[[{"header":{"parameterUnit":"m.s-1","parameterCategory":1,"la1":31.0,"la2":29.5877,"lo1":-88.7671,"lo2":-86.6584,"dy":0.0162,"dx":0.0185,"nx":115,"ny":88,"refTime":"2026-04-29T00:00:00:Z","depth":0,"parameterNumber":2,"parameterNumberName":"U-component_of_WINDS"},"data":[0.0,0.0,0.0,0.0,0.0,0.0,0.0,0.0,0.0,0.0,0.0,0.0,0.0,0.0,0.0,0.0,0.0,0.0,0.0,0.0,0.0,0.0,0.0,0.0,0.0,0.0,0.0,0.0,0.0,0.0,0.0,0.0,0.0,0.0,0.0,0.0,0.0,0.0,0.0,0.0,0.0,0.0,0.0,0.0,0.0,0.0,0.0,0.0,0.0,0.0,0.0,0.0,0.0,0.0,0.0,0.0,0.0,0.0,0.0,0.0,0.0,0.0,0.0,0.0,0.0,0.0,0.0,0.0,0.0,0.0,0.0,0.0,0.0,0.0,0.0,0.0,0.0,0.0,0.0,0.0,0.0,0.0,0.0,0.0,0.0,0.0,0.0,0.0,0.0,0.0,0.0,0.0,0.0,0.0,0.0,0.0,0.0,0.0,0.0,0.0,0.0,0.0,0.0,0.0,0.0,0.0,0.0,0.0,0.0,0.0,0.0,0.0,0.0,0.0,0.0,0.0,0.0,0.0,0.0,0.0,0.0,0.0,0.0,0.0,0.0,0.0,0.0,0.0,0.0,0.0,0.0,0.0,0.0,0.0,0.0,0.0,0.0,0.0,0.0,0.0,0.0,0.0,0.0,0.0,0.0,0.0,0.0,0.0,0.0,0.0,0.0,0.0,0.0,0.0,0.0,0.0,0.0,0.0,0.0,0.0,0.0,0.0,0.0,0.0,0.0,0.0,0.0,0.0,0.0,0.0,0.0,0.0,0.0,0.0,0.0,0.0,0.0,0.0,0.0,0.0,0.0,0.0,0.0,0.0,0.0,0.0,0.0,0.0,0.0,0.0,0.0,0.0,0.0,0.0,0.0,0.0,0.0,0.0,0.0,0.0,0.0,0.0,0.0,0.0,0.0,0.0,0.0,0.0,0.0,0.0,0.0,0.0,0.0,0.0,0.0,0.0,0.0,0.0,0.0,0.0,0.0,0.0,0.0,0.0,0.0,0.0,0.0,0.0,0.0,0.0,0.0,0.0,0.0,0.0,0.0,0.0,0.0,0.0,0.0,0.0,0.0,0.0,0.0,0.0,0.0,0.0,0.0,0.0,0.0,0.0,0.0,0.0,0.0,0.0,0.0,0.0,0.0,0.0,0.0,0.0,0.0,0.0,0.0,0.0,0.0,0.0,0.0,0.0,0.0,0.0,0.0,0.0,0.0,0.0,0.0,0.0,0.0,0.0,0.0,0.0,0.0,0.0,0.0,0.0,0.0,0.0,0.0,0.0,0.0,0.0,0.0,0.0,0.0,0.0,0.0,0.0,0.0,0.0,0.0,0.0,0.0,0.0,0.0,0.0,0.0,0.0,0.0,0.0,0.0,0.0,0.0,0.0,0.0,0.0,0.0,0.0,0.0,0.0,0.0,0.0,0.0,0.0,0.0,0.0,0.0,0.0,0.0,0.0,0.0,0.0,0.0,0.0,0.0,0.0,0.0,0.0,0.0,0.0,0.0,0.0,0.0,0.0,0.0,0.0,0.0,0.0,0.0,0.0,0.0,0.0,0.0,0.0,0.0,0.0,0.0,0.0,0.0,0.0,0.0,0.0,0.0,0.0,0.0,0.0,0.0,0.0,0.0,0.0,0.0,0.0,0.0,0.0,0.0,0.0,0.0,0.0,0.0,0.0,0.0,0.0,0.0,0.0,0.0,0.0,0.0,0.0,0.0,0.0,0.0,0.0,0.0,0.0,0.0,0.0,0.0,0.0,0.0,0.0,0.0,0.0,0.0,0.0,0.0,0.0,0.0,0.0,0.0,0.0,0.0,0.0,0.0,0.0,0.0,0.0,0.0,0.0,0.0,0.0,0.0,0.0,0.0,0.0,0.0,0.0,0.0,0.0,0.0,0.0,0.0,0.0,0.0,0.0,0.0,0.0,0.0,0.0,0.0,0.0,0.0,0.0,0.0,0.0,0.0,0.0,0.0,0.0,0.0,0.0,0.0,0.0,0.0,0.0,0.0,0.0,0.0,0.0,0.0,0.0,0.0,0.0,0.0,0.0,0.0,0.0,0.0,0.0,0.0,0.0,0.0,0.0,0.0,0.0,0.0,0.0,0.0,0.0,0.0,0.0,0.0,0.0,0.0,0.0,0.0,0.0,0.0,0.0,0.0,0.0,0.0,0.0,0.0,0.0,0.0,0.0,0.0,0.0,0.0,0.0,0.0,0.0,0.0,0.0,0.0,0.0,0.0,0.0,0.0,0.0,0.0,0.0,0.0,0.0,0.0,0.0,0.0,0.0,0.0,0.0,0.0,0.0,0.0,0.0,0.0,0.0,0.0,0.0,0.0,0.0,0.0,0.0,0.0,0.0,0.0,0.0,0.0,0.0,0.0,0.0,0.0,0.0,0.0,0.0,0.0,0.0,0.0,0.0,0.0,0.0,0.0,0.0,0.0,0.0,0.0,0.0,0.0,0.0,0.0,0.0,0.0,0.0,0.0,0.0,0.0,0.0,0.0,0.0,0.0,0.0,0.0,0.0,0.0,0.0,0.0,0.0,0.0,0.0,0.0,0.0,0.0,0.0,0.0,0.0,0.0,0.0,0.0,0.0,0.0,0.0,0.0,0.0,0.0,0.0,0.0,0.0,0.0,0.0,0.0,0.0,0.0,0.0,0.0,0.0,0.0,0.0,0.0,0.0,0.0,0.0,0.0,0.0,0.0,0.0,0.0,0.0,0.0,0.0,0.0,0.0,0.0,0.0,0.0,0.0,0.0,0.0,0.0,0.0,0.0,0.0,0.0,0.0,0.0,0.0,0.0,0.0,0.0,0.0,0.0,0.0,0.0,0.0,0.0,0.0,0.0,0.0,0.0,0.0,0.0,0.0,0.0,0.0,0.0,0.0,0.0,0.0,0.0,0.0,0.0,0.0,0.0,0.0,0.0,0.0,0.0,0.0,0.0,0.0,0.0,0.0,0.0,0.0,0.0,0.0,0.0,0.0,0.0,0.0,0.0,0.0,0.0,0.0,0.0,0.0,0.0,0.0,0.0,0.0,0.0,0.0,0.0,0.0,0.0,0.0,0.0,0.0,0.0,0.0,0.0,0.0,0.0,0.0,0.0,0.0,0.0,0.0,0.0,0.0,0.0,0.0,0.0,0.0,0.0,0.0,0.0,0.0,0.0,0.0,0.0,0.0,0.0,0.0,0.0,0.0,0.0,0.0,0.0,0.0,0.0,0.0,0.0,0.0,0.0,0.0,0.0,0.0,0.0,0.0,0.0,0.0,0.0,0.0,0.0,0.0,0.0,0.0,0.0,0.0,0.0,0.0,0.0,0.0,0.0,0.0,0.0,0.0,0.0,0.0,0.0,0.0,0.0,0.0,0.0,0.0,0.0,0.0,0.0,0.0,0.0,0.0,0.0,0.0,0.0,0.0,0.0,0.0,0.0,0.0,0.0,0.0,0.0,0.0,0.0,0.0,0.0,0.0,0.0,0.0,0.0,0.0,0.0,0.0,0.0,0.0,0.0,0.0,0.0,0.0,0.0,0.0,0.0,0.0,0.0,0.0,0.0,0.0,0.0,0.0,0.0,0.0,0.0,0.0,0.0,0.0,0.0,0.0,0.0,0.0,0.0,0.0,0.0,0.0,0.0,0.0,0.0,0.0,0.0,0.0,0.0,0.0,0.0,0.0,0.0,0.0,0.0,0.0,0.0,0.0,0.0,0.0,0.0,0.0,0.0,0.0,0.0,0.0,0.0,0.0,0.0,0.0,0.0,0.0,0.0,0.0,0.0,0.0,0.0,0.0,0.0,0.0,0.0,0.0,0.0,0.0,0.0,0.0,0.0,0.0,0.0,0.0,0.0,0.0,0.0,0.0,0.0,0.0,0.0,0.0,0.0,0.0,0.0,0.0,0.0,0.0,0.0,0.0,0.0,0.0,0.0,0.0,0.0,0.0,0.0,0.0,0.0,0.0,0.0,0.0,0.0,0.0,0.0,0.0,0.0,0.0,0.0,0.0,0.0,0.0,0.0,0.0,0.0,0.0,0.0,0.0,0.0,0.0,0.0,0.0,0.0,0.0,0.0,0.0,0.0,0.0,0.0,0.0,0.0,0.0,0.0,0.0,0.0,0.0,0.0,0.0,0.0,0.0,0.0,0.0,0.0,0.0,0.0,0.0,0.0,0.0,0.0,0.0,0.0,0.0,0.0,0.0,0.0,0.0,0.0,0.0,0.0,0.0,0.0,0.0,0.0,0.0,0.0,0.0,0.0,0.0,0.0,0.0,0.0,0.0,-1.7422,0.0,0.0,0.0,0.0,0.0,0.0,0.0,0.0,0.0,0.0,0.0,0.0,0.0,0.0,0.0,0.0,0.0,0.0,0.0,0.0,0.0,0.0,0.0,0.0,0.0,0.0,0.0,0.0,0.0,0.0,0.0,0.0,0.0,0.0,0.0,0.0,0.0,0.0,0.0,0.0,0.0,0.0,0.0,0.0,0.0,0.0,0.0,0.0,0.0,0.0,0.0,0.0,0.0,0.0,0.0,0.0,0.0,0.0,0.0,0.0,0.0,0.0,0.0,0.0,0.0,0.0,0.0,0.0,0.0,0.0,0.0,0.0,0.0,0.0,0.0,0.0,0.0,0.0,0.0,0.0,0.0,0.0,0.0,0.0,0.0,0.0,0.0,0.0,0.0,0.0,0.0,0.0,0.0,0.0,0.0,0.0,0.0,0.0,0.0,0.0,0.0,0.0,0.0,0.0,0.0,0.0,0.0,0.0,0.0,0.0,-1.6513,-1.6522,-1.7047,-1.7312,-1.7312,0.0,0.0,0.0,0.0,0.0,0.0,0.0,0.0,0.0,0.0,0.0,0.0,0.0,0.0,0.0,0.0,0.0,0.0,0.0,0.0,0.0,0.0,0.0,0.0,0.0,0.0,0.0,0.0,0.0,0.0,0.0,0.0,0.0,0.0,0.0,0.0,0.0,0.0,0.0,0.0,0.0,0.0,0.0,0.0,0.0,0.0,0.0,0.0,0.0,0.0,0.0,0.0,0.0,0.0,0.0,0.0,0.0,0.0,0.0,0.0,0.0,0.0,0.0,0.0,0.0,0.0,0.0,0.0,0.0,0.0,0.0,0.0,0.0,0.0,0.0,0.0,0.0,0.0,0.0,0.0,0.0,0.0,0.0,0.0,0.0,0.0,0.0,0.0,0.0,0.0,0.0,0.0,0.0,0.0,0.0,0.0,0.0,0.0,0.0,0.0,0.0,0.0,0.0,0.0,0.0,0.0,0.0,0.0,0.0,0.0,0.0,0.0,-1.761,-1.7963,-1.8051,0.0,0.0,0.0,0.0,0.0,0.0,0.0,0.0,0.0,0.0,0.0,0.0,0.0,0.0,0.0,0.0,0.0,0.0,0.0,0.0,0.0,0.0,0.0,0.0,0.0,0.0,0.0,0.0,0.0,0.0,0.0,0.0,0.0,0.0,0.0,0.0,0.0,0.0,0.0,0.0,0.0,0.0,0.0,0.0,0.0,0.0,0.0,0.0,0.0,0.0,0.0,0.0,0.0,0.0,0.0,0.0,0.0,0.0,0.0,0.0,0.0,0.0,0.0,0.0,0.0,0.0,0.0,0.0,0.0,0.0,0.0,0.0,0.0,0.0,0.0,0.0,0.0,0.0,0.0,0.0,0.0,0.0,0.0,0.0,0.0,0.0,0.0,0.0,0.0,0.0,0.0,0.0,0.0,0.0,0.0,0.0,0.0,0.0,0.0,0.0,0.0,0.0,0.0,0.0,0.0,0.0,0.0,0.0,0.0,0.0,-1.7707,-1.8734,-1.9322,0.0,-2.0317,0.0,0.0,0.0,0.0,0.0,0.0,0.0,0.0,0.0,0.0,0.0,0.0,0.0,0.0,0.0,0.0,0.0,0.0,0.0,0.0,0.0,0.0,0.0,0.0,0.0,0.0,0.0,0.0,0.0,0.0,0.0,0.0,0.0,0.0,0.0,0.0,0.0,0.0,0.0,0.0,0.0,0.0,0.0,0.0,0.0,0.0,0.0,0.0,0.0,0.0,0.0,0.0,0.0,0.0,0.0,0.0,0.0,0.0,0.0,0.0,0.0,0.0,0.0,0.0,0.0,0.0,0.0,0.0,0.0,0.0,0.0,0.0,0.0,0.0,0.0,0.0,0.0,0.0,0.0,0.0,0.0,0.0,0.0,0.0,0.0,0.0,0.0,0.0,0.0,0.0,0.0,0.0,0.0,0.0,0.0,0.0,0.0,0.0,0.0,0.0,0.0,0.0,0.0,0.0,0.0,0.0,0.0,0.0,0.0,0.0,-1.8669,-1.9049,-1.9603,-2.0157,0.0,0.0,0.0,0.0,0.0,0.0,0.0,0.0,0.0,0.0,0.0,0.0,0.0,0.0,0.0,0.0,0.0,0.0,0.0,0.0,0.0,0.0,0.0,0.0,0.0,0.0,0.0,0.0,0.0,0.0,0.0,0.0,0.0,0.0,0.0,0.0,0.0,0.0,0.0,0.0,0.0,0.0,0.0,0.0,0.0,0.0,0.0,0.0,0.0,0.0,0.0,0.0,0.0,0.0,0.0,0.0,0.0,0.0,0.0,0.0,0.0,0.0,0.0,0.0,0.0,0.0,0.0,0.0,0.0,0.0,0.0,0.0,0.0,0.0,0.0,0.0,0.0,0.0,0.0,0.0,0.0,0.0,0.0,0.0,0.0,0.0,0.0,0.0,0.0,0.0,0.0,0.0,0.0,0.0,0.0,0.0,0.0,0.0,0.0,0.0,0.0,0.0,0.0,0.0,0.0,0.0,0.0,0.0,0.0,0.0,-1.9054,-1.9577,-1.9833,-2.0191,-2.0445,-2.0463,0.0,0.0,0.0,0.0,0.0,0.0,0.0,0.0,0.0,0.0,0.0,0.0,0.0,0.0,0.0,0.0,0.0,0.0,0.0,0.0,0.0,0.0,0.0,0.0,0.0,0.0,0.0,0.0,0.0,0.0,0.0,0.0,0.0,0.0,0.0,0.0,0.0,0.0,0.0,0.0,0.0,0.0,0.0,0.0,0.0,0.0,0.0,0.0,0.0,0.0,0.0,0.0,0.0,0.0,0.0,0.0,0.0,0.0,0.0,0.0,0.0,0.0,0.0,0.0,0.0,0.0,0.0,0.0,0.0,0.0,0.0,0.0,0.0,0.0,0.0,0.0,0.0,0.0,0.0,0.0,0.0,0.0,0.0,0.0,0.0,0.0,0.0,0.0,0.0,0.0,0.0,0.0,0.0,0.0,0.0,0.0,0.0,0.0,0.0,0.0,0.0,0.0,0.0,0.0,0.0,0.0,0.0,0.0,0.0,-2.0125,-2.0438,-2.1535,-2.161,-2.1099,0.0,0.0,0.0,0.0,0.0,0.0,0.0,0.0,0.0,0.0,0.0,0.0,0.0,0.0,0.0,0.0,0.0,0.0,0.0,0.0,0.0,0.0,0.0,0.0,0.0,0.0,0.0,0.0,0.0,0.0,0.0,0.0,0.0,0.0,0.0,0.0,0.0,0.0,0.0,0.0,0.0,0.0,0.0,0.0,0.0,0.0,0.0,0.0,0.0,0.0,0.0,0.0,0.0,0.0,0.0,0.0,0.0,0.0,0.0,0.0,0.0,0.0,0.0,0.0,0.0,0.0,0.0,0.0,0.0,0.0,0.0,0.0,0.0,0.0,0.0,0.0,0.0,0.0,0.0,0.0,0.0,0.0,0.0,0.0,0.0,0.0,0.0,0.0,0.0,0.0,0.0,0.0,0.0,0.0,0.0,0.0,0.0,0.0,0.0,0.0,0.0,0.0,0.0,0.0,0.0,0.0,0.0,0.0,0.0,-1.9551,-2.0138,-2.1233,-2.2802,-2.1724,-2.0892,0.0,0.0,0.0,0.0,0.0,0.0,0.0,0.0,0.0,0.0,0.0,0.0,0.0,0.0,0.0,0.0,0.0,0.0,0.0,0.0,0.0,0.0,0.0,0.0,0.0,0.0,0.0,0.0,0.0,0.0,0.0,0.0,0.0,0.0,0.0,0.0,0.0,0.0,0.0,0.0,0.0,0.0,0.0,0.0,0.0,0.0,0.0,0.0,0.0,0.0,0.0,0.0,0.0,0.0,0.0,0.0,0.0,0.0,0.0,0.0,0.0,0.0,0.0,0.0,0.0,0.0,0.0,0.0,0.0,0.0,0.0,0.0,0.0,0.0,0.0,0.0,0.0,0.0,0.0,0.0,0.0,0.0,0.0,0.0,0.0,0.0,0.0,0.0,0.0,0.0,0.0,0.0,0.0,0.0,0.0,0.0,0.0,0.0,0.0,0.0,0.0,0.0,0.0,0.0,0.0,0.0,0.0,0.0,0.0,-1.9797,0.0,-2.1889,0.0,-2.171,-2.0696,0.0,0.0,0.0,0.0,0.0,0.0,0.0,0.0,0.0,0.0,0.0,0.0,0.0,0.0,0.0,0.0,0.0,0.0,0.0,0.0,0.0,0.0,0.0,0.0,0.0,0.0,0.0,0.0,0.0,0.0,0.0,0.0,0.0,0.0,0.0,0.0,0.0,0.0,0.0,0.0,0.0,0.0,0.0,0.0,0.0,0.0,0.0,0.0,0.0,0.0,0.0,0.0,0.0,0.0,0.0,0.0,0.0,0.0,0.0,0.0,0.0,0.0,0.0,0.0,0.0,0.0,0.0,0.0,0.0,0.0,0.0,0.0,0.0,0.0,0.0,0.0,0.0,0.0,0.0,0.0,0.0,0.0,0.0,0.0,0.0,0.0,0.0,0.0,0.0,0.0,0.0,0.0,0.0,0.0,0.0,0.0,0.0,0.0,0.0,0.0,0.0,0.0,0.0,0.0,0.0,0.0,0.0,0.0,-1.9812,-2.1585,-2.2298,-2.2409,-2.1789,-2.1714,-2.0572,0.0,0.0,0.0,0.0,0.0,0.0,0.0,0.0,0.0,0.0,0.0,0.0,0.0,0.0,0.0,0.0,0.0,0.0,0.0,0.0,0.0,0.0,0.0,0.0,0.0,0.0,0.0,0.0,0.0,0.0,0.0,0.0,0.0,0.0,0.0,0.0,0.0,0.0,0.0,0.0,0.0,0.0,0.0,0.0,0.0,0.0,0.0,0.0,0.0,0.0,0.0,0.0,0.0,0.0,0.0,0.0,0.0,0.0,0.0,0.0,0.0,0.0,0.0,0.0,0.0,0.0,0.0,0.0,0.0,0.0,0.0,0.0,0.0,0.0,0.0,0.0,0.0,0.0,0.0,0.0,0.0,0.0,0.0,0.0,0.0,0.0,0.0,0.0,0.0,0.0,0.0,0.0,0.0,0.0,0.0,0.0,0.0,0.0,0.0,0.0,0.0,0.0,0.0,0.0,0.0,0.0,0.0,0.0,0.0,-2.1538,-2.2304,-2.2979,-2.3463,-2.1892,-2.0763,0.0,0.0,0.0,0.0,0.0,0.0,0.0,0.0,0.0,0.0,0.0,0.0,0.0,0.0,0.0,0.0,0.0,0.0,0.0,0.0,0.0,0.0,0.0,0.0,0.0,0.0,0.0,0.0,0.0,0.0,0.0,0.0,0.0,0.0,0.0,0.0,0.0,0.0,0.0,0.0,0.0,0.0,0.0,0.0,0.0,0.0,0.0,0.0,0.0,0.0,0.0,0.0,0.0,0.0,0.0,0.0,0.0,0.0,0.0,0.0,0.0,0.0,0.0,0.0,0.0,0.0,0.0,0.0,0.0,0.0,0.0,0.0,0.0,0.0,0.0,0.0,0.0,0.0,0.0,0.0,0.0,0.0,0.0,0.0,0.0,0.0,0.0,0.0,0.0,0.0,0.0,0.0,0.0,0.0,0.0,0.0,0.0,0.0,0.0,0.0,0.0,0.0,0.0,0.0,0.0,0.0,0.0,0.0,0.0,-2.2948,-2.3258,-2.3616,-2.4095,-2.237,-2.118,-2.0635,0.0,0.0,0.0,0.0,0.0,0.0,0.0,0.0,0.0,0.0,0.0,0.0,0.0,0.0,0.0,0.0,0.0,0.0,0.0,0.0,0.0,0.0,0.0,0.0,0.0,0.0,0.0,0.0,0.0,0.0,0.0,0.0,0.0,0.0,0.0,0.0,0.0,0.0,0.0,0.0,0.0,0.0,0.0,0.0,0.0,0.0,0.0,0.0,0.0,0.0,0.0,0.0,0.0,0.0,0.0,0.0,0.0,0.0,0.0,0.0,0.0,0.0,0.0,0.0,0.0,0.0,0.0,0.0,0.0,0.0,0.0,0.0,0.0,0.0,0.0,0.0,0.0,0.0,0.0,0.0,0.0,0.0,0.0,0.0,0.0,0.0,0.0,0.0,0.0,0.0,0.0,0.0,0.0,0.0,0.0,0.0,0.0,0.0,0.0,0.0,0.0,0.0,0.0,0.0,0.0,0.0,0.0,0.0,-2.5444,-2.5039,-2.456,-2.3966,-2.3218,-2.1934,0.0,0.0,0.0,0.0,0.0,0.0,0.0,0.0,0.0,0.0,0.0,0.0,0.0,0.0,0.0,0.0,0.0,0.0,0.0,0.0,0.0,0.0,0.0,0.0,0.0,0.0,0.0,0.0,0.0,0.0,0.0,0.0,0.0,0.0,0.0,0.0,0.0,0.0,0.0,0.0,0.0,0.0,0.0,0.0,0.0,0.0,0.0,0.0,0.0,0.0,0.0,0.0,0.0,0.0,0.0,0.0,0.0,0.0,0.0,0.0,0.0,0.0,0.0,0.0,0.0,0.0,0.0,0.0,0.0,0.0,0.0,0.0,0.0,0.0,0.0,0.0,0.0,0.0,0.0,0.0,0.0,0.0,0.0,0.0,0.0,0.0,0.0,0.0,0.0,0.0,0.0,0.0,0.0,0.0,0.0,0.0,0.0,0.0,0.0,0.0,0.0,0.0,0.0,0.0,0.0,0.0,0.0,0.0,0.0,-2.6217,-2.711,-2.7414,-2.7117,-2.5183,-2.3474,0.0,0.0,0.0,0.0,0.0,0.0,0.0,0.0,0.0,0.0,0.0,0.0,0.0,0.0,0.0,0.0,0.0,0.0,0.0,0.0,0.0,0.0,0.0,0.0,0.0,0.0,0.0,0.0,0.0,0.0,0.0,0.0,0.0,0.0,0.0,0.0,0.0,0.0,0.0,0.0,0.0,0.0,0.0,0.0,0.0,0.0,0.0,0.0,0.0,0.0,0.0,0.0,0.0,0.0,0.0,0.0,0.0,0.0,0.0,0.0,0.0,0.0,0.0,0.0,0.0,0.0,0.0,0.0,0.0,0.0,0.0,0.0,0.0,0.0,0.0,0.0,0.0,0.0,0.0,0.0,0.0,0.0,0.0,0.0,0.0,0.0,0.0,0.0,0.0,0.0,0.0,0.0,0.0,0.0,0.0,0.0,0.0,0.0,0.0,0.0,0.0,0.0,0.0,0.0,0.0,0.0,0.0,0.0,-2.5136,-2.7395,-2.904,-2.9666,-2.9291,-2.7058,-2.4878,0.0,0.0,0.0,0.0,0.0,0.0,0.0,0.0,0.0,0.0,0.0,0.0,0.0,0.0,0.0,0.0,0.0,0.0,0.0,0.0,0.0,0.0,0.0,0.0,0.0,0.0,0.0,0.0,0.0,0.0,0.0,0.0,0.0,0.0,0.0,0.0,0.0,0.0,0.0,0.0,0.0,0.0,0.0,0.0,0.0,0.0,0.0,0.0,0.0,0.0,0.0,0.0,0.0,0.0,0.0,0.0,0.0,0.0,0.0,0.0,0.0,0.0,0.0,0.0,0.0,0.0,0.0,0.0,0.0,0.0,0.0,0.0,0.0,0.0,0.0,0.0,0.0,0.0,0.0,0.0,0.0,0.0,0.0,0.0,0.0,0.0,0.0,0.0,0.0,0.0,0.0,0.0,0.0,0.0,0.0,0.0,0.0,0.0,0.0,0.0,0.0,0.0,0.0,0.0,0.0,0.0,0.0,0.0,-2.6099,-2.8757,-3.0616,-3.1267,-3.0614,-2.8782,-2.6294,0.0,0.0,0.0,0.0,0.0,0.0,0.0,0.0,0.0,0.0,0.0,0.0,0.0,0.0,0.0,0.0,0.0,0.0,0.0,0.0,0.0,0.0,0.0,0.0,0.0,0.0,0.0,0.0,0.0,0.0,0.0,0.0,0.0,0.0,0.0,0.0,0.0,0.0,0.0,0.0,0.0,0.0,0.0,0.0,0.0,0.0,0.0,0.0,0.0,0.0,0.0,0.0,0.0,0.0,0.0,0.0,0.0,0.0,0.0,0.0,0.0,0.0,0.0,0.0,0.0,0.0,0.0,0.0,0.0,0.0,0.0,0.0,0.0,0.0,0.0,0.0,0.0,0.0,0.0,0.0,0.0,0.0,0.0,0.0,0.0,0.0,0.0,0.0,0.0,0.0,0.0,0.0,0.0,0.0,0.0,0.0,0.0,0.0,0.0,0.0,0.0,0.0,0.0,0.0,0.0,0.0,0.0,0.0,-2.744,-3.0028,-3.1022,-3.1468,-3.1382,-2.9924,-2.7859,0.0,0.0,0.0,0.0,0.0,0.0,0.0,0.0,0.0,0.0,0.0,0.0,0.0,0.0,0.0,0.0,0.0,0.0,0.0,0.0,0.0,0.0,0.0,0.0,0.0,0.0,0.0,0.0,0.0,0.0,0.0,0.0,0.0,0.0,0.0,0.0,0.0,0.0,0.0,0.0,0.0,0.0,0.0,0.0,0.0,0.0,0.0,0.0,-2.2448,0.0,0.0,0.0,0.0,0.0,0.0,0.0,0.0,0.0,0.0,0.0,0.0,0.0,0.0,0.0,0.0,0.0,0.0,0.0,0.0,0.0,0.0,0.0,0.0,0.0,0.0,0.0,0.0,0.0,0.0,0.0,0.0,0.0,0.0,0.0,0.0,0.0,0.0,0.0,0.0,0.0,0.0,0.0,0.0,0.0,0.0,0.0,0.0,0.0,0.0,0.0,0.0,0.0,0.0,0.0,0.0,0.0,0.0,0.0,-2.8353,-3.094,-3.197,-3.2346,-3.2055,-3.1077,-2.9155,0.0,0.0,0.0,0.0,0.0,0.0,0.0,0.0,0.0,0.0,0.0,0.0,0.0,0.0,0.0,0.0,0.0,0.0,0.0,0.0,0.0,0.0,0.0,0.0,0.0,0.0,0.0,0.0,0.0,0.0,0.0,0.0,0.0,0.0,0.0,0.0,0.0,0.0,0.0,0.0,0.0,0.0,0.0,0.0,0.0,0.0,0.0,0.0,0.0,0.0,0.0,0.0,0.0,0.0,0.0,0.0,0.0,0.0,0.0,0.0,0.0,0.0,0.0,0.0,0.0,0.0,0.0,0.0,0.0,0.0,0.0,0.0,0.0,0.0,0.0,0.0,0.0,0.0,0.0,0.0,0.0,0.0,0.0,0.0,0.0,0.0,0.0,0.0,0.0,0.0,0.0,0.0,0.0,0.0,0.0,0.0,0.0,0.0,0.0,0.0,0.0,0.0,0.0,0.0,0.0,0.0,0.0,-2.6119,-2.8844,-3.1652,-3.2856,-3.3277,-3.2891,-3.2051,-3.0156,-2.7177,0.0,0.0,0.0,0.0,0.0,0.0,0.0,0.0,0.0,0.0,0.0,0.0,0.0,0.0,0.0,0.0,0.0,0.0,0.0,0.0,0.0,0.0,0.0,0.0,0.0,0.0,0.0,0.0,0.0,0.0,0.0,0.0,0.0,0.0,0.0,0.0,0.0,0.0,-2.2147,-2.3866,0.0,0.0,0.0,0.0,0.0,0.0,0.0,0.0,-2.3545,0.0,0.0,0.0,0.0,0.0,0.0,0.0,0.0,0.0,0.0,0.0,0.0,0.0,0.0,0.0,0.0,0.0,0.0,0.0,0.0,0.0,0.0,0.0,0.0,0.0,0.0,0.0,0.0,0.0,0.0,0.0,0.0,0.0,0.0,0.0,0.0,0.0,0.0,0.0,0.0,0.0,0.0,0.0,0.0,0.0,0.0,0.0,0.0,0.0,0.0,0.0,0.0,0.0,0.0,0.0,0.0,-2.5859,-2.6484,-2.8617,-3.2323,-3.2648,-3.3251,-3.417,-3.2536,-3.0831,-2.9032,0.0,0.0,0.0,0.0,0.0,0.0,0.0,0.0,0.0,0.0,0.0,0.0,0.0,0.0,0.0,0.0,0.0,0.0,0.0,0.0,0.0,0.0,0.0,0.0,0.0,0.0,0.0,0.0,0.0,0.0,0.0,0.0,0.0,0.0,0.0,0.0,0.0,0.0,0.0,-2.6531,-2.7215,0.0,0.0,0.0,0.0,0.0,0.0,0.0,0.0,-2.3744,0.0,0.0,0.0,0.0,0.0,0.0,0.0,0.0,0.0,0.0,0.0,0.0,0.0,0.0,0.0,0.0,0.0,0.0,0.0,0.0,0.0,0.0,0.0,0.0,0.0,0.0,0.0,0.0,0.0,0.0,0.0,0.0,0.0,0.0,0.0,0.0,0.0,0.0,0.0,0.0,0.0,0.0,0.0,0.0,0.0,0.0,0.0,0.0,0.0,0.0,0.0,0.0,0.0,0.0,0.0,-2.5528,-2.7615,-3.0124,-3.3009,-3.3469,-3.3786,-3.403,-3.2141,-3.0296,0.0,0.0,0.0,0.0,0.0,0.0,0.0,0.0,0.0,0.0,0.0,0.0,0.0,0.0,0.0,0.0,0.0,0.0,0.0,0.0,0.0,0.0,0.0,0.0,0.0,0.0,0.0,0.0,0.0,0.0,0.0,0.0,0.0,0.0,0.0,0.0,0.0,0.0,0.0,0.0,-2.6926,-2.747,-2.8134,0.0,0.0,0.0,0.0,0.0,0.0,-2.5017,-2.4519,0.0,0.0,0.0,0.0,0.0,0.0,0.0,0.0,0.0,0.0,0.0,0.0,0.0,0.0,0.0,0.0,0.0,0.0,0.0,0.0,0.0,0.0,0.0,0.0,0.0,0.0,0.0,0.0,0.0,0.0,0.0,0.0,0.0,0.0,0.0,0.0,0.0,0.0,0.0,0.0,0.0,0.0,0.0,0.0,0.0,0.0,0.0,0.0,0.0,0.0,0.0,0.0,0.0,0.0,0.0,-2.4999,-2.8412,-3.1291,-3.3486,-3.4112,-3.4194,-3.3779,-3.1855,-2.98,0.0,0.0,0.0,0.0,0.0,0.0,0.0,0.0,0.0,0.0,0.0,0.0,0.0,0.0,0.0,0.0,0.0,0.0,0.0,0.0,0.0,0.0,0.0,0.0,0.0,0.0,0.0,0.0,0.0,0.0,0.0,0.0,0.0,0.0,0.0,0.0,0.0,0.0,0.0,0.0,0.0,-2.8148,-2.8966,-2.7996,0.0,0.0,0.0,0.0,-2.6235,-2.642,0.0,0.0,0.0,0.0,0.0,0.0,0.0,0.0,0.0,0.0,0.0,0.0,0.0,0.0,0.0,0.0,0.0,0.0,0.0,0.0,0.0,0.0,0.0,0.0,0.0,0.0,0.0,0.0,0.0,0.0,0.0,0.0,0.0,0.0,0.0,0.0,0.0,0.0,0.0,0.0,0.0,0.0,0.0,0.0,0.0,0.0,0.0,0.0,0.0,0.0,0.0,0.0,0.0,0.0,0.0,0.0,-2.5446,-2.7694,-3.0373,-3.3396,-3.3675,-3.3946,-3.4455,-3.2549,-3.0279,0.0,0.0,0.0,0.0,0.0,0.0,0.0,0.0,0.0,0.0,0.0,0.0,0.0,0.0,0.0,0.0,0.0,0.0,0.0,0.0,0.0,0.0,0.0,0.0,0.0,0.0,0.0,0.0,0.0,0.0,0.0,0.0,0.0,0.0,0.0,0.0,0.0,0.0,0.0,0.0,0.0,-3.1128,-2.973,-2.9092,-2.845,0.0,0.0,-2.779,-2.8502,-2.9161,0.0,0.0,0.0,0.0,0.0,0.0,0.0,0.0,0.0,0.0,0.0,0.0,0.0,0.0,0.0,0.0,0.0,0.0,0.0,0.0,0.0,0.0,0.0,0.0,0.0,0.0,0.0,0.0,0.0,0.0,0.0,0.0,0.0,0.0,0.0,0.0,0.0,0.0,0.0,0.0,0.0,0.0,0.0,0.0,0.0,0.0,0.0,0.0,0.0,0.0,0.0,0.0,0.0,0.0,0.0,-2.2689,-2.5576,-2.8317,-3.0801,-3.2961,-3.3391,-3.3364,-3.2889,-3.1328,-2.9203,0.0,0.0,0.0,0.0,0.0,0.0,0.0,0.0,0.0,0.0,0.0,0.0,0.0,0.0,0.0,0.0,0.0,0.0,0.0,0.0,0.0,0.0,0.0,0.0,0.0,0.0,0.0,0.0,0.0,0.0,0.0,0.0,0.0,0.0,0.0,0.0,0.0,0.0,0.0,0.0,0.0,0.0,-3.0475,-3.036,0.0,0.0,0.0,-2.9854,-3.0211,0.0,0.0,0.0,0.0,0.0,0.0,0.0,0.0,0.0,0.0,0.0,0.0,0.0,0.0,0.0,0.0,0.0,0.0,0.0,0.0,0.0,0.0,0.0,0.0,0.0,0.0,0.0,0.0,0.0,0.0,0.0,0.0,0.0,0.0,0.0,0.0,0.0,0.0,0.0,0.0,0.0,0.0,0.0,0.0,0.0,0.0,0.0,0.0,0.0,0.0,0.0,0.0,0.0,0.0,0.0,0.0,0.0,-2.5591,-2.8901,-3.1244,-3.2567,-3.3093,-3.2788,-3.1632,-3.0145,0.0,0.0,0.0,0.0,0.0,0.0,0.0,0.0,0.0,0.0,0.0,0.0,0.0,0.0,0.0,0.0,0.0,0.0,0.0,0.0,0.0,0.0,0.0,0.0,0.0,0.0,0.0,-1.5412,0.0,0.0,0.0,0.0,0.0,0.0,0.0,0.0,0.0,0.0,0.0,0.0,0.0,0.0,-2.9995,-3.1179,-3.1574,-3.1749,0.0,0.0,-3.1681,-3.1495,-3.1782,-3.0513,0.0,0.0,0.0,0.0,0.0,0.0,0.0,0.0,0.0,0.0,0.0,0.0,0.0,0.0,0.0,0.0,0.0,0.0,0.0,0.0,0.0,0.0,0.0,0.0,0.0,0.0,0.0,0.0,0.0,0.0,0.0,0.0,0.0,0.0,0.0,0.0,0.0,0.0,0.0,0.0,0.0,0.0,0.0,0.0,0.0,0.0,0.0,0.0,0.0,0.0,0.0,0.0,0.0,0.0,-2.3267,-2.5606,-2.8901,-3.1244,-3.2524,-3.2641,-3.233,-3.1606,-2.9685,-2.7415,0.0,0.0,0.0,0.0,0.0,0.0,0.0,0.0,0.0,0.0,0.0,0.0,0.0,0.0,0.0,0.0,0.0,0.0,0.0,0.0,0.0,0.0,0.0,0.0,0.0,0.0,0.0,0.0,0.0,0.0,0.0,0.0,0.0,0.0,0.0,0.0,0.0,0.0,0.0,0.0,0.0,-3.1213,-3.1697,-3.2625,-3.325,0.0,-3.3254,-3.3017,-3.2344,-3.3393,-3.2278,-2.636,0.0,0.0,0.0,0.0,0.0,0.0,0.0,0.0,0.0,0.0,0.0,0.0,0.0,0.0,0.0,0.0,0.0,0.0,0.0,0.0,0.0,0.0,0.0,0.0,0.0,0.0,0.0,0.0,0.0,0.0,0.0,0.0,0.0,0.0,0.0,0.0,0.0,0.0,0.0,0.0,0.0,0.0,0.0,0.0,0.0,0.0,0.0,0.0,0.0,0.0,0.0,0.0,0.0,-2.3243,-2.5591,-2.847,-3.06,-3.1847,-3.1923,-3.1407,-3.0388,-2.9215,-2.7156,0.0,0.0,0.0,0.0,0.0,0.0,0.0,0.0,0.0,0.0,0.0,0.0,0.0,0.0,0.0,0.0,0.0,0.0,0.0,0.0,0.0,0.0,0.0,0.0,0.0,0.0,0.0,0.0,-1.8781,-1.9235,-1.9638,0.0,0.0,0.0,0.0,0.0,0.0,0.0,0.0,0.0,0.0,-3.0913,-3.1957,-3.3226,0.0,0.0,-3.4066,-3.4004,-3.3751,-3.3117,-3.1318,-2.7397,-2.5961,0.0,0.0,0.0,0.0,0.0,0.0,0.0,0.0,0.0,0.0,0.0,0.0,0.0,0.0,0.0,0.0,0.0,0.0,0.0,0.0,0.0,0.0,0.0,0.0,0.0,0.0,0.0,0.0,0.0,0.0,0.0,0.0,0.0,0.0,0.0,0.0,0.0,0.0,0.0,0.0,0.0,0.0,0.0,0.0,0.0,0.0,0.0,0.0,0.0,0.0,0.0,0.0,-2.3421,-2.56,-2.8233,-3.0208,-3.1481,-3.1301,-3.0702,-2.9609,-2.8768,-2.6916,0.0,0.0,0.0,0.0,0.0,0.0,0.0,0.0,0.0,0.0,0.0,0.0,0.0,0.0,0.0,0.0,0.0,0.0,0.0,0.0,0.0,0.0,0.0,0.0,0.0,0.0,0.0,0.0,-1.9545,-1.9909,-2.0449,0.0,0.0,0.0,0.0,0.0,0.0,0.0,0.0,0.0,0.0,-3.1029,-3.2613,-3.3969,-3.4827,-3.4827,-3.4624,-3.442,-3.4282,-3.2856,-3.0811,-2.799,0.0,0.0,0.0,0.0,0.0,0.0,0.0,0.0,0.0,0.0,0.0,0.0,0.0,0.0,0.0,0.0,0.0,0.0,0.0,0.0,0.0,0.0,0.0,0.0,0.0,0.0,0.0,-1.8874,0.0,0.0,-1.725,0.0,0.0,0.0,0.0,0.0,0.0,0.0,0.0,0.0,0.0,0.0,0.0,0.0,0.0,0.0,0.0,0.0,0.0,0.0,0.0,0.0,0.0,-2.3781,-2.5591,-2.8244,-3.0193,-3.1406,-3.0838,-3.0223,-2.9592,-2.8319,-2.6671,-2.459,0.0,0.0,0.0,0.0,0.0,0.0,0.0,0.0,0.0,0.0,0.0,0.0,0.0,0.0,0.0,0.0,0.0,0.0,0.0,0.0,0.0,0.0,0.0,0.0,0.0,0.0,-1.9707,-1.9723,-2.0032,0.0,0.0,0.0,0.0,0.0,0.0,0.0,0.0,0.0,0.0,-3.0049,-3.1876,-3.3766,-3.4908,-3.5498,-3.5566,-3.4962,-3.4269,-3.3596,-3.2835,-3.1264,0.0,0.0,0.0,0.0,0.0,0.0,0.0,0.0,0.0,0.0,0.0,0.0,0.0,0.0,0.0,0.0,0.0,0.0,0.0,0.0,0.0,0.0,0.0,0.0,0.0,0.0,0.0,-2.0782,-1.9725,0.0,0.0,0.0,0.0,0.0,0.0,0.0,0.0,0.0,0.0,0.0,-2.2712,-2.2859,0.0,0.0,0.0,0.0,0.0,0.0,0.0,0.0,0.0,0.0,0.0,0.0,-2.3781,-2.5597,-2.7799,-2.9355,-3.0208,-3.0013,-2.9579,-2.8936,-2.8064,-2.6267,-2.3415,0.0,0.0,0.0,0.0,0.0,0.0,0.0,0.0,0.0,0.0,0.0,0.0,0.0,0.0,0.0,0.0,0.0,0.0,0.0,0.0,0.0,0.0,0.0,0.0,0.0,-2.0031,0.0,0.0,0.0,0.0,0.0,0.0,0.0,0.0,0.0,0.0,0.0,-2.6522,-2.8561,-3.0204,-3.1774,-3.3414,-3.4342,-3.5047,0.0,0.0,0.0,0.0,0.0,0.0,0.0,0.0,0.0,0.0,0.0,0.0,0.0,0.0,-2.9876,-2.6438,-2.5403,-2.5301,-2.6067,0.0,0.0,0.0,0.0,0.0,0.0,0.0,0.0,0.0,0.0,0.0,0.0,0.0,0.0,-2.2098,-2.1018,-2.1054,0.0,0.0,0.0,0.0,0.0,0.0,0.0,0.0,-2.4385,-2.5211,-2.4978,-2.4704,-2.422,0.0,-2.2833,-2.1653,0.0,0.0,0.0,0.0,0.0,0.0,0.0,0.0,-2.3962,-2.5606,-2.759,-2.8921,-2.9535,-2.9382,-2.9026,-2.8592,-2.751,-2.5803,-2.343,-2.1684,-2.0427,0.0,0.0,0.0,0.0,0.0,0.0,0.0,0.0,0.0,0.0,0.0,0.0,0.0,0.0,0.0,0.0,0.0,0.0,0.0,0.0,0.0,0.0,0.0,-2.0416,0.0,0.0,0.0,0.0,0.0,0.0,0.0,0.0,0.0,-2.5237,-2.6573,-2.8062,-2.9568,-3.1038,-3.2408,-3.3609,0.0,0.0,0.0,0.0,0.0,0.0,0.0,-3.1577,-3.1862,-3.0409,-2.9365,-2.9778,-3.1523,-3.27,-3.22,0.0,0.0,-2.9164,-2.8149,-2.8051,-2.8853,-2.995,-3.0765,-3.0866,-3.1454,-3.1846,0.0,0.0,0.0,0.0,0.0,0.0,0.0,0.0,-2.3138,-2.3012,0.0,-2.2916,0.0,0.0,0.0,0.0,-2.0396,-2.2666,0.0,0.0,-2.7386,-2.8248,-2.7594,-2.6916,-2.6295,-2.568,-2.5539,-2.4889,-2.3587,-2.0754,0.0,0.0,0.0,0.0,0.0,0.0,-2.4283,-2.5659,-2.756,-2.8861,-2.9472,-2.8876,-2.8562,-2.8502,-2.6662,-2.5292,-2.459,-2.331,-2.1774,-1.9872,-1.9335,0.0,0.0,0.0,0.0,0.0,0.0,0.0,0.0,0.0,0.0,0.0,0.0,0.0,0.0,0.0,0.0,0.0,0.0,0.0,0.0,-2.0405,0.0,0.0,0.0,0.0,0.0,0.0,0.0,0.0,0.0,0.0,-2.6894,-2.8163,-2.9602,-3.1072,0.0,0.0,0.0,0.0,-3.5566,-3.5583,-3.5013,-3.4556,-3.4556,-3.3934,-3.3264,-3.2716,0.0,0.0,-3.0739,-3.2139,-3.3064,-3.1647,-3.2662,-3.3715,-3.4307,-3.2486,-3.1534,-3.2765,-3.293,-3.3074,-3.3697,-3.4022,-3.4243,-2.272,0.0,0.0,0.0,0.0,-2.3545,-2.4687,-2.6297,-2.6764,-2.6186,-2.4894,-2.4945,0.0,0.0,0.0,0.0,0.0,0.0,-2.5316,-2.6822,-2.8062,-2.8742,-2.8981,-2.781,-2.7153,-2.6924,-2.5989,-2.5329,-2.4951,-2.3658,-2.2149,-2.0439,0.0,0.0,0.0,0.0,-2.4963,-2.6288,-2.736,-2.7989,-2.8169,-2.7989,-2.7899,-2.7884,-2.6393,-2.53,-2.4619,-2.337,-2.2224,-2.1186,-2.0206,0.0,0.0,0.0,0.0,0.0,0.0,0.0,0.0,0.0,0.0,0.0,0.0,0.0,0.0,0.0,0.0,0.0,0.0,0.0,-2.0336,-2.0627,-2.0797,0.0,0.0,0.0,0.0,0.0,0.0,0.0,0.0,0.0,-2.9648,-3.0277,-3.1125,0.0,0.0,-3.3677,-3.4387,-3.4675,-3.5013,-3.5515,-3.543,0.0,-3.5278,-3.4235,-3.3722,-3.4566,-3.4733,-3.458,-3.4175,-3.4582,-3.4839,-3.4404,-3.5002,-3.5614,-3.5683,-3.4467,-3.3726,-3.4638,-3.5279,-3.5632,-3.5835,-3.6114,-3.6215,-2.6264,-2.4707,-2.4129,-2.4594,-2.5781,-2.6155,-2.7115,-2.8412,-2.8848,-2.8308,-2.719,-2.7275,-2.6006,-2.3837,-2.3656,0.0,0.0,0.0,-2.7191,-2.8783,-2.916,-2.9714,-3.0255,-2.9228,-2.858,-2.8274,-2.7249,-2.6594,-2.6316,-2.5976,-2.4789,-2.2819,0.0,0.0,-2.3018,-2.432,-2.5525,-2.6557,-2.7255,-2.7585,-2.7585,-2.7585,-2.7585,-2.7555,-2.6303,-2.5397,-2.4993,-2.3744,-2.2778,-2.2113,-2.1148,-1.9917,0.0,0.0,0.0,0.0,0.0,0.0,0.0,0.0,0.0,0.0,0.0,-1.4994,-1.5017,0.0,0.0,0.0,-1.9031,-2.0312,-2.1028,-2.1335,0.0,0.0,0.0,0.0,0.0,0.0,0.0,-2.7483,-2.8115,-2.9185,-3.134,-3.1884,-3.251,-3.3694,-3.3829,-3.41,-3.4844,0.0,-3.5098,-3.5532,-3.5783,-3.592,-3.5902,-3.5168,-3.4832,-3.547,-3.5616,-3.5616,-3.56,-3.5761,-3.592,-3.5985,-3.6354,-3.6783,-3.6944,-3.6246,-3.5793,-3.6403,-3.7082,-3.7523,-3.7509,-3.7345,-3.7114,-3.0141,-2.9493,-2.7855,-2.7765,-2.8742,-2.8757,-2.9131,-2.9756,-2.9744,-2.9625,-2.9421,-2.959,-2.8596,-2.6708,-2.6292,0.0,-2.7854,-2.8483,-2.9385,-3.0582,-3.0582,-3.0898,-3.1466,-3.0776,-3.0133,-2.9549,-2.8861,-2.8214,-2.76,-2.757,-2.6971,-2.5764,-2.4537,-2.4178,-2.4694,-2.5337,-2.6004,-2.6662,-2.73,-2.7585,-2.7585,-2.7585,-2.7595,-2.7495,-2.6258,-2.557,-2.5495,-2.4283,-2.331,-2.2718,-2.2019,-2.0651,-1.8548,0.0,0.0,0.0,0.0,0.0,0.0,0.0,0.0,0.0,0.0,0.0,0.0,0.0,0.0,0.0,-2.0353,0.0,-2.1759,-2.2314,0.0,0.0,0.0,-2.3253,-2.5055,-2.5802,-2.666,-2.7838,0.0,0.0,-3.2192,-3.2966,-3.3694,-3.4472,-3.4612,-3.4827,-3.5498,-3.5583,-3.5622,-3.5672,-3.6075,-3.6392,-3.635,-3.6205,-3.5994,-3.5655,-3.5616,-3.5622,-3.5711,-3.6032,-3.6371,-3.6457,-3.6884,-3.736,-3.7825,-3.7805,-3.7945,-3.7907,-3.8312,-3.8673,-3.851,-3.7842,-3.7267,-3.2045,-3.245,-3.202,-3.117,-3.0058,-3.0058,-3.0432,-3.1017,-3.1047,-3.0753,-3.0239,-3.0244,-2.9744,-2.8847,-2.8741,-2.9083,-2.9819,-2.9983,-3.0492,-3.1227,-3.1256,-3.1346,-3.1436,-3.0342,-2.9741,-2.9547,-2.8408,-2.775,-2.76,-2.7585,-2.7435,-2.7136,-2.6806,-2.6213,-2.5435,-2.6019,-2.6701,-2.7345,-2.7525,-2.7585,-2.7585,-2.7585,-2.736,-2.6826,-2.6033,-2.5337,-2.4859,-2.4059,-2.331,-2.2718,-2.1663,-2.0605,-1.9566,-1.7515,0.0,0.0,0.0,0.0,0.0,0.0,0.0,0.0,0.0,-1.676,-1.6011,0.0,-1.8021,0.0,-2.0789,-2.1842,-2.2202,-2.2363,0.0,0.0,-2.4247,-2.4798,-2.7149,-2.7127,-2.7611,-2.9342,-2.9905,-3.0886,-3.2899,-3.3288,-3.3897,-3.5126,-3.5329,-3.5397,-3.56,-3.5616,-3.5744,-3.6118,-3.6329,-3.6412,-3.6412,-3.6049,-3.5761,-3.5622,-3.5616,-3.5756,-3.6139,-3.6308,-3.6539,-3.6923,-3.7379,-3.7737,-3.7894,-3.8216,-3.8481,-3.8496,-3.8627,-3.8562,-3.8183,-3.7894,-3.7632,-3.3304,-3.3499,-3.3499,-3.2841,-3.1824,-3.1524,-3.16,-3.1914,-3.1645,-3.1286,-3.0928,-3.0928,-3.0748,-3.0462,-3.0447,-3.0627,-3.0913,-3.0928,-3.1137,-3.1496,-3.1496,-3.1496,-3.1466,-3.0477,-2.9849,-2.9577,-2.8558,-2.7899,-2.7615,-2.7585,-2.7585,-2.7585,-2.7585,-2.7225,-2.6527,-2.6841,-2.724,-2.7585,-2.7585,-2.7585,-2.7585,-2.7315,-2.6986,-2.6611,-2.5651,-2.4829,-2.4193,-2.355,-2.2892,-2.2283,-2.1331,-2.0542,-1.9926,-1.8147,-1.6944,0.0,0.0,0.0,0.0,0.0,0.0,0.0,0.0,0.0,0.0,0.0,-1.9104,-2.0075,-2.137,-2.246,-2.3278,-2.3596,-2.454,-2.6386,-2.6257,-2.6841,-2.8832,-2.8722,-2.9036,-3.0427,-3.0869,-3.1664,-3.3203,-3.3694,-3.4184,-3.4996,-3.5131,-3.525,-3.5577,-3.5783,-3.6054,-3.6354,-3.6766,-3.6981,-3.6803,-3.6312,-3.5871,-3.5667,-3.5616,-3.5783,-3.6291,-3.662,-3.6904,-3.7433,-3.7911,-3.8267,-3.8267,-3.8481,-3.8615,-3.8248,-3.8175,-3.819,-3.8243,-3.8065,-3.7825,-3.4294,-3.3754,-3.3754,-3.3754,-3.3709,-3.3051,-3.2721,-3.2587,-3.1914,-3.1585,-3.1496,-3.1496,-3.1496,-3.1496,-3.1496,-3.1496,-3.1496,-3.1496,-3.1496,-3.1496,-3.1496,-3.1496,-3.1466,-3.0821,-3.0178,-2.9606,-2.8921,-2.8248,-2.76,-2.7585,-2.7585,-2.7585,-2.7585,-2.7585,-2.7585,-2.7585,-2.7585,-2.7585,-2.7585,-2.7555,-2.7465,-2.6896,-2.6512,-2.6303,-2.5151,-2.4156,-2.3505,-2.2987,-2.2388,-2.1724,-2.1078,-2.0513,-2.001,-1.8774,-1.78,0.0,-1.7166,0.0,0.0,0.0,0.0,0.0,0.0,0.0,0.0,-1.9585,-2.0288,-2.0797,-2.2024,-2.3268,-2.4379,-2.5155,-2.6333,-2.8093,-2.842,-2.8912,-3.0068,-3.0243,-3.0497,-3.1123,-3.1785,-3.2442,-3.3288,-3.3964,-3.4353,-3.4506,-3.4556,-3.4709,-3.5193,-3.5673,-3.5994,-3.6269,-3.7195,-3.7506,-3.7173,-3.6643,-3.6097,-3.5711,-3.5711,-3.5898,-3.6437,-3.6943,-3.7451,-3.7911,-3.8366,-3.8621,-3.8579,-3.8524,-3.8248,-3.7511,-3.7345,-3.7588,-3.8221,-3.8113,-3.7905,-3.5235,-3.513,-3.513,-3.513,-3.507,-3.4412,-3.3799,-3.326,-3.2587,-3.2004,-3.1511,-3.1496,-3.1496,-3.1496,-3.1496,-3.1496,-3.1496,-3.1496,-3.1496,-3.1496,-3.1496,-3.1496,-3.1451,-3.0793,-3.0178,-2.9592,-2.8921,-2.8274,-2.7585,-2.7585,-2.7585,-2.7585,-2.7585,-2.7585,-2.7585,0.0,0.0,0.0,-2.7585,-2.733,-2.6821,-2.6662,-2.6078,-2.5008,-2.4186,0.0,-2.2912,-2.2763,-2.2403,-2.1739,-2.1166,0.0,0.0,0.0,0.0,0.0,0.0,0.0,0.0,0.0,0.0,0.0,-2.1141,-2.0662,-1.9678,-2.1115,-2.1969,-2.159,-2.2667,-2.3716,-2.4369,-2.5447,-2.6913,-2.8767,-2.9454,-3.008,-3.0886,-3.0987,-3.1055,-3.1173,-3.1326,-3.1935,-3.3169,-3.3541,-3.3846,-3.432,-3.4472,-3.4303,-3.3846,-3.4285,-3.494,-3.5888,-3.6839,-3.7286,-3.7228,-3.6378,-3.5783,-3.5667,-3.6006,-3.6416,-3.6943,-3.7433,-3.7929,-3.8396,-3.8627,-3.845,-3.7845,-3.7731,-3.7474,-3.667,-3.6523,-3.6762,-3.7566,-3.7653,-3.7757,-3.5489,-3.5489,-3.5489,-3.5489,0.0,-3.513,-3.4786,-3.4427,-3.3425,-3.2632,-3.1974,-3.1645,-3.1496,-3.1496,-3.1496,-3.1496,-3.1496,-3.1496,-3.1496,-3.1496,-3.1496,-3.1496,-3.1481,-3.0836,-3.0178,-2.9592,-2.8921,-2.8274,-2.7615,-2.7585,-2.7585,-2.7585,-2.7585,-2.7585,-2.7585,-2.7585,-2.7585,-2.7585,-2.727,-2.6941,-2.6572,-2.5959,-2.5292,-2.4619,-2.3954,0.0,0.0,0.0,0.0,0.0,0.0,0.0,0.0,0.0,0.0,-1.9654,-1.9672,-1.9989,-2.0617,-2.0681,-2.0981,-2.1655,-2.1994,-2.1909,-2.1235,-2.2119,-2.2823,-2.311,-2.3723,-2.4717,-2.623,-2.6951,-2.809,-2.9942,-3.046,-3.0818,-3.1123,-3.119,-3.119,-3.1241,-3.1512,-3.2053,-3.2767,-3.3203,-3.3355,-3.3427,-3.341,-3.3173,-3.2656,-3.3708,-3.514,-3.6372,-3.6626,-3.6803,-3.6744,-3.6143,-3.5717,-3.5941,-3.6224,-3.6704,-3.7415,-3.7737,-3.7973,-3.8086,-3.8102,-3.7826,-3.7125,-3.6905,-3.6666,-3.5899,-3.5646,-3.5771,-3.6229,-3.6597,-3.7015,-3.5489,-3.5489,-3.5489,-3.5489,-3.5489,-3.5489,-3.5444,-3.525,0.0,0.0,0.0,-3.1914,-3.1615,-3.1496,-3.1496,-3.1496,-3.1496,-3.1496,-3.1496,-3.1496,-3.1496,-3.1496,-3.1466,-3.0821,-3.0178,-2.9592,-2.8921,-2.8248,-2.7615,-2.7585,-2.7585,-2.7585,-2.7585,-2.7585,-2.7585,-2.748,-2.748,-2.7555,-2.6956,-2.6527,-2.6393,-2.5217,-2.456,-2.4425,-2.3789,-2.3191,-2.2718,-2.2703,-2.2194,-2.1126,-2.1051,-2.0812,-2.0292,-2.0647,-2.0868,-2.0897,-2.1395,-2.1754,-2.1859,-2.1859,-2.1919,-2.2024,-2.2553,-2.2853,-2.2868,-2.2868,-2.334,-2.4515,-2.4605,-2.5597,-2.7973,-2.834,-2.91,-3.0851,-3.1134,-3.1173,-3.119,-3.119,-3.123,-3.1342,-3.1825,-3.2281,-3.2454,-3.2961,-3.3083,-3.2483,-3.2412,-3.2209,-3.1998,-3.3611,-3.5386,-3.651,-3.6591,-3.6433,-3.635,-3.6097,-3.5941,-3.6287,-3.6542,-3.6929,-3.7488,-3.7781,-3.7707,-3.7326,-3.7309,-3.696,-3.6285,-3.6064,-3.5771,-3.4949,-3.477,-3.4802,-3.4857,-3.5334,-3.5917,-3.5489,-3.5489,-3.5489,-3.5489,-3.5489,-3.5489,-3.5175,-3.4638,-3.4459,-3.3649,-3.2482,-3.2378,-3.2034,-3.1496,-3.1496,-3.1496,-3.1496,-3.1496,-3.1496,-3.1496,-3.1496,-3.1496,-3.1466,-3.0793,-3.0178,-2.9564,-2.8906,-2.8248,-2.766,-2.76,-2.7585,-2.7585,-2.7585,-2.7585,-2.754,-2.7031,-2.7046,-2.7555,-2.6956,-2.6318,-2.5749,-2.4993,-2.4306,-2.3759,-2.3167,-2.2793,-2.2718,-2.2718,-2.2613,-2.2433,-2.2433,-2.2373,-2.2269,-2.1784,-2.1545,-2.156,-2.165,-2.1954,-2.2508,-2.2553,-2.2793,-2.3266,-2.3415,-2.3475,-2.346,-2.3475,-2.3789,-2.453,-2.4634,-2.5417,-2.737,-2.8154,-2.9005,-3.0261,-3.0915,-3.119,-3.119,-3.121,-3.1368,-3.1641,-3.1802,-3.2163,-3.2697,-3.2938,-3.2833,-3.2414,-3.2175,-3.2429,-3.2964,-3.3779,-3.4793,-3.5817,-3.6267,-3.6385,-3.6392,-3.6371,-3.6312,-3.6392,-3.7082,-3.7345,-3.7083,-3.7267,-3.7211,-3.6582,-3.6439,-3.6091,-3.5343,-3.5188,-3.483,-3.4156,-3.405,-3.4018,-3.405,-3.4211,-3.4669,-3.5489,-3.5489,-3.5489,-3.5489,-3.5474,-3.51,-3.4771,-3.4474,-3.4129,-3.3425,-3.2482,-3.2108,-3.1795,-3.1511,-3.1496,-3.1496,-3.1496,-3.1496,-3.1496,-3.1496,-3.1496,-3.1496,-3.1436,-3.0793,-3.0178,-2.9606,-2.9269,-2.8722,-2.8152,-2.8091,-2.8076,-2.8082,-2.776,-2.7585,-2.754,-2.6941,-2.6746,-2.7031,-2.6033,-2.554,-2.5585,-2.4575,-2.3887,-2.361,-2.331,-2.3197,-2.3176,-2.3197,-2.3047,-2.2718,-2.2703,-2.2538,-2.2194,-2.2224,-2.2218,-2.2254,-2.2547,-2.2862,-2.3146,-2.3197,-2.3295,-2.3565,-2.3595,-2.3595,-2.3595,-2.3595,-2.4029,-2.5031,-2.5417,-2.6409,-2.8327,-2.907,-2.9789,-3.067,-3.1035,-3.119,-3.123,-3.1411,-3.1603,-3.1789,-3.2039,-3.2231,-3.2346,-3.2344,-3.2193,-3.1783,-3.1718,-3.2141,-3.3203,-3.3635,-3.4257,-3.5435,-3.5856,-3.6088,-3.635,-3.6412,-3.6623,-3.7079,-3.722,-3.7238,-3.7035,-3.7076,-3.6402,-3.5523,-3.5263,-3.4935,-3.4189,-3.3816,-3.3679,-3.3904,-3.3592,-3.3564,-3.3707,-3.3807,-3.41,-3.5489,-3.5489,-3.5489,-3.5415,-3.5235,-3.4728,-3.4354,-3.3993,-3.3484,-3.2901,-3.2258,-3.1869,-3.166,-3.1511,-3.1496,-3.1496,-3.1496,-3.1496,-3.1496,-3.1496,-3.1496,-3.1496,-3.1406,-3.0702,-3.0043,-2.9627,-2.9368,-2.8998,-2.8558,-2.863,-2.863,-2.8439,-2.7885,-2.7525,-2.7345,-2.6731,-2.6378,-2.6288,-2.5053,-2.4709,-2.5307,-2.4223,-2.3595,-2.3595,-2.3595,-2.3595,-2.3595,-2.3595,-2.337,-2.2942,-2.2912,-2.2673,-2.2188,-2.2628,-2.2897,-2.2957,-2.3325,-2.3595,-2.3595,-2.3595,-2.3595,-2.3595,-2.3724,-2.3773,-2.3773,-2.39,-2.4461,-2.5629,-2.6308,-2.745,-2.9203,-2.9962,-3.0539,-3.1095,-3.119,-3.1249,-3.1351,-3.1604,-3.1915,-3.2092,-3.2451,-3.2517,-3.2213,-3.2127,-3.2021,-3.1709,-3.1642,-3.2288,-3.3291,-3.3696,-3.4372,-3.5187,-3.5616,-3.5849,-3.6308,-3.6539,-3.6855,-3.7593,-3.7155,-3.6779,-3.6638,-3.6112,-3.5342,-3.4258,-3.3979,-3.3844,-3.3301,-3.2876,-3.3003,-3.355,-3.3508,-3.3317,-3.3564,-3.3638,-3.3652,-3.5489,-3.5489,-3.5489,-3.513,-3.4653,-3.4533,-3.3845,-3.2811,-3.2632,-3.2213,-3.169,-3.2153,-3.2034,-3.1555,-3.1496,-3.1496,-3.1496,-3.1496,-3.1496,-3.1496,-3.1496,-3.1496,-3.1391,-3.0268,-2.9639,-2.9537,-2.8974,-2.8691,-2.863,-2.9081,-2.9035,-2.8487,-2.7894,-2.73,-2.6716,-2.6048,-2.5704,-2.5659,-2.4373,-2.4029,-2.4605,-2.3999,-2.3595,-2.3595,-2.3595,-2.3595,-2.3595,-2.3595,-2.358,-2.352,-2.349,-2.3475,-2.3415,-2.346,-2.3505,-2.3511,-2.3586,-2.3595,-2.3595,-2.3595,-2.3595,-2.3638,-2.4032,-2.4323,-2.4343,-2.4772,-2.542,-2.6295,-2.6919,-2.8072,-2.9932,-3.0272,-3.0597,-3.1131,-3.123,-3.1332,-3.166,-3.1771,-3.2127,-3.2981,-3.3042,-3.3105,-3.2999,-3.2937,-3.2793,-3.2299,-3.2669,-3.321,-3.3755,-3.4464,-3.4905,-3.5409,-3.5588,-3.582,-3.6243,-3.6823,-3.682,-3.6804,-3.6757,-3.6158,-3.5255,-3.4471,-3.3679,-3.3182,-3.2796,-3.2839,-3.2961,-3.2856,-3.2793,-3.3419,-3.3447,-3.3214,-3.3258,-3.3258,-3.324,-3.5489,-3.5489,-3.5489,-3.534,-3.5011,-3.4247,-3.3589,-3.3051,-3.2213,-3.1735,-3.1555,-3.1795,-3.175,-3.1496,-3.1496,-3.1496,-3.1496,-3.1496,-3.1496,-3.1496,-3.1496,-3.1496,-3.1361,-3.0193,-2.9765,-3.0036,-2.9389,-2.9219,-2.9496,-2.9451,-2.8904,-2.8042,-2.771,-2.7255,-2.6626,-2.5944,-2.542,-2.5016,-2.4088,-2.3744,-2.3939,-2.3744,-2.3595,-2.3595,-2.3595,-2.3595,-2.3595,-2.3595,-2.3595,-2.3595,-2.3595,-2.3595,-2.3595,-2.3595,-2.3745,-2.4048,-2.4074,-2.3927,-2.3616,-2.3595,-2.3595,-2.3595,-2.4095,-2.4425,-2.445,-2.5182,-2.5997,-2.6771,-2.7477,-2.8531,-3.0046,-3.0617,-3.0955,-3.1173,-3.1391,-3.1623,-3.1771,-3.2298,-3.2825,-3.3184,-3.3404,-3.3465,-3.3229,-3.2952,-3.2729,-3.2534,-3.2836,-3.3195,-3.3478,-3.4325,-3.4828,-3.4866,-3.5269,-3.5688,-3.5804,-3.5921,-3.5942,-3.5669,-3.5237,-3.454,-3.4185,-3.3409,-3.2803,-3.2162,-3.2109,-3.2144,-3.2299,-3.2315,-3.2332,-3.3039,-3.339,-3.3199,-3.3199,-3.2983,-3.2825,-3.5651,-3.5814,-3.6022,-3.5772,-3.5147,-3.4226,-3.3593,-3.3095,-3.1989,-3.1496,-3.1496,-3.1496,-3.1496,-3.1496,-3.1496,-3.1496,-3.1496,-3.1496,-3.1496,-3.1496,-3.1496,-3.1626,-3.1632,-3.0464,-3.0184,-3.056,-2.9993,-2.987,-3.0166,-2.9496,-2.8709,-2.7944,-2.77,-2.7165,-2.6363,-2.5824,-2.5196,-2.4365,-2.3834,-2.3595,-2.361,-2.3595,-2.3595,-2.3595,-2.3595,-2.3595,-2.3595,-2.3595,-2.3595,-2.3595,-2.373,-2.3815,-2.3837,-2.3964,-2.422,-2.4552,-2.4612,-2.445,-2.4053,-2.4032,-2.4017,-2.4074,-2.4516,-2.4835,-2.5008,-2.5672,-2.6488,-2.7236,-2.7987,-2.8951,-3.0052,-3.0821,-3.1213,-3.1334,-3.1641,-3.1879,-3.2213,-3.284,-3.3229,-3.3361,-3.3606,-3.3707,-3.339,-3.3121,-3.2952,-3.2937,-3.2991,-3.2977,-3.3228,-3.4001,-3.4471,-3.4027,-3.4789,-3.5244,-3.518,-3.5238,-3.5021,-3.4534,-3.4039,-3.36,-3.3248,-3.2546,-3.2144,-3.1694,-3.1658,-3.1825,-3.2179,-3.2144,-3.2057,-3.2729,-3.3093,-3.3045,-3.2745,-3.2565,-3.2467,-3.5911,-3.6584,-3.7352,-3.6395,-3.4566,-3.4603,-3.3811,-3.2572,-3.1809,-3.1496,-3.1496,-3.1496,-3.1496,-3.1496,-3.1496,-3.1496,-3.1496,-3.1496,-3.1496,-3.1496,-3.1496,-3.1881,-3.2412,-3.1155,-3.0789,-3.135,-3.0553,-3.023,-3.023,-2.9157,-2.8511,-2.8431,-2.7839,-2.6916,-2.5869,-2.5615,-2.4941,-2.3834,-2.364,-2.3595,-2.3595,-2.3595,-2.3595,-2.3595,-2.3595,-2.3595,-2.3595,-2.3595,-2.3595,-2.3595,-2.4074,-2.4348,-2.4389,-2.4835,-2.5125,-2.5128,-2.5147,-2.5144,-2.5086,-2.5047,-2.5047,-2.5128,-2.5486,-2.5888,-2.5815,-2.6279,-2.6859,-2.767,-2.8326,-2.9171,-2.9878,-3.0692,-3.1317,-3.1678,-3.1789,-3.2195,-3.3014,-3.3121,-3.3375,-3.3652,-3.378,-3.378,-3.3766,-3.3766,-3.3666,-3.3706,-3.3992,-3.4006,-3.3563,-3.3894,-3.3975,-3.3674,-3.3882,-3.4337,-3.4693,-3.4602,-3.4358,-3.3741,-3.3069,-3.2819,-3.2147,-3.1581,-3.1408,-3.1349,-3.1487,-3.1769,-3.2161,-3.2315,-3.2247,-3.2582,-3.2919,-3.2872,-3.2332,-3.2366,-3.235,-3.5636,-3.5943,-3.6722,-3.603,-3.4569,-3.4647,-3.387,-3.2482,-3.178,-3.1496,-3.1496,-3.1496,-3.1496,-3.1496,-3.1496,-3.1496,-3.1496,-3.1496,-3.1496,-3.1496,-3.1496,-3.1894,-3.2392,-3.1166,-3.1079,-3.1765,-3.0893,-3.0293,-3.023,-2.9489,-2.8873,-2.8362,-2.7431,-2.6482,-2.5689,-2.5158,-2.4485,-2.3699,-2.3595,-2.3595,-2.3595,-2.3595,-2.3595,-2.3595,-2.3595,-2.3595,-2.3595,-2.3595,-2.3767,-2.4095,-2.4307,-2.4552,-2.493,-2.5411,-2.5542,-2.5262,-2.5524,-2.5559,-2.5275,-2.5202,-2.5202,-2.524,-2.5689,-2.6013,-2.6085,-2.6435,-2.6826,-2.7182,-2.7807,-2.8382,-2.889,-3.0159,-3.1351,-3.1734,-3.2074,-3.2448,-3.3075,-3.3422,-3.3634,-3.3762,-3.3807,-3.3807,-3.3807,-3.3807,-3.3807,-3.3812,-3.3922,-3.3674,-3.3281,-3.3683,-3.3812,-3.2973,-3.3405,-3.3933,-3.2841,-3.3366,-3.3346,-3.2493,-3.1867,-3.1829,-3.1385,-3.1621,-3.1601,-3.1621,-3.1658,-3.1986,-3.2501,-3.2713,-3.2631,-3.2663,-3.2999,-3.25,-3.1933,-3.2144,-3.2213,-3.6085,-3.6054,-3.7233,-3.689,-3.5599,-3.5436,-3.4679,-3.3426,-3.233,-3.1853,-3.1824,-3.1611,-3.1496,-3.1496,-3.1496,-3.1496,-3.1496,-3.1496,-3.1626,-3.1853,-3.1853,-3.2339,-3.2898,-3.1776,-3.1686,-3.232,-3.1049,-3.0293,-3.023,-2.9695,-2.918,-2.8748,-2.7524,-2.6561,-2.5886,-2.5032,-2.4261,-2.3729,-2.3595,-2.3595,-2.3595,-2.3595,-2.3595,-2.3616,-2.3752,-2.3788,-2.3616,-2.3767,-2.4012,-2.4389,-2.4732,-2.5163,-2.5654,-2.6033,-2.6068,-2.5781,-2.6033,-2.6086,-2.5746,-2.5691,-2.5691,-2.5709,-2.5998,-2.6227,-2.6244,-2.6539,-2.6674,-2.686,-2.7367,-2.7789,-2.8128,-2.9431,-3.0694,-3.122,-3.1787,-3.2369,-3.2973,-3.3474,-3.3762,-3.3807,-3.3807,-3.3807,-3.3807,-3.3807,-3.3807,-3.3807,-3.3707,-3.3314,-3.3008,-3.3056,-3.3273,-3.2161,-3.2739,-3.2774,-3.2244,-3.2393,-3.2508,-3.1794,-3.1504,-3.1283,-3.131,-3.1584,-3.1825,-3.1915,-3.2127,-3.2467,-3.2745,-3.3014,-3.3045,-3.2999,-3.2598,-3.2127,-3.195,-3.2004,-3.2213,-3.7249,-3.6888,-3.9086,-3.8853,-3.7358,-3.6787,-3.6277,-3.5056,-3.34,-3.2559,-3.241,-3.1853,-3.1582,-3.1496,-3.1496,-3.1524,-3.1611,-3.1625,-3.1938,-3.2449,-3.2559,-3.3261,-3.43,-3.2976,-3.2557,-3.3077,-3.1283,-3.0368,-3.0351,-2.9805,-2.9451,-2.9188,-2.7997,-2.6956,-2.6457,-2.5197,-2.4216,-2.3729,-2.3595,-2.3595,-2.3595,-2.3595,-2.3616,-2.3702,-2.4116,-2.4158,-2.3724,-2.4158,-2.445,-2.4612,-2.5392,-2.6174,-2.6487,-2.6624,-2.6657,-2.659,-2.6657,-2.6674,-2.6641,-2.6607,-2.6522,-2.6539,-2.6641,-2.6624,-2.6624,-2.6657,-2.6708,-2.681,-2.7266,-2.7722,-2.7842,-2.8522,-2.9437,-3.0117,-3.0975,-3.1691,-3.2552,-3.3335,-3.3807,-3.3807,-3.3807,-3.3807,-3.3807,-3.3807,-3.3807,-3.3734,-3.355,-3.3284,-3.3075,-3.2756,-3.2074,-3.1896,-3.2196,-3.2214,-3.1839,-3.1506,-3.1464,-3.1349,-3.1305,-3.121,-3.1332,-3.1584,-3.1933,-3.2109,-3.2582,-3.2903,-3.309,-3.324,-3.2919,-3.2761,-3.2264,-3.1879,-3.1806,-3.1896,-3.2451,-3.6813,-3.6813,-3.8509,-3.8144,-3.6504,-3.6682,-3.5876,-3.428,-3.3508,-3.3013,-3.2614,-3.2355,-3.1964,-3.1582,-3.1496,-3.1796,-3.2216,-3.2272,-3.2425,-3.2668,-3.3093,-3.3735,-3.4274,-3.362,-3.2973,-3.2508,-3.1486,-3.0918,-3.0797,-3.0293,-3.0021,-2.9659,-2.7864,-2.6772,-2.6432,-2.481,-2.3774,-2.364,-2.3595,-2.3595,-2.3595,-2.3595,-2.3773,-2.4137,-2.4328,-2.4471,-2.4692,-2.4891,-2.5109,-2.5465,-2.5799,-2.6192,-2.659,-2.6708,-2.6708,-2.6708,-2.6708,-2.6708,-2.6708,-2.6708,-2.6708,-2.6708,-2.6708,-2.6708,-2.6708,-2.6708,-2.6708,-2.6708,-2.6928,-2.7148,-2.743,-2.7649,-2.8564,-3.0031,-3.0444,-3.1205,-3.2487,-3.333,-3.3733,-3.3807,-3.3807,-3.3807,-3.3807,-3.3807,-3.3807,-3.3807,-3.3666,-3.3504,-3.3214,-3.2887,-3.2614,-3.2384,-3.2281,-3.1986,-3.1696,-3.1488,-3.143,-3.1312,-3.1213,-3.119,-3.1332,-3.1732,-3.2057,-3.25,-3.2965,-3.3255,-3.3433,-3.3299,-3.2981,-3.2582,-3.2179,-3.186,-3.1582,-3.1896,-3.2484,-3.7024,-3.7217,-3.8412,-3.8193,-3.6905,-3.692,-3.605,-3.4775,-3.4201,-3.3598,-3.3066,-3.2975,-3.2586,-3.2092,-3.216,-3.2544,-3.2986,-3.3209,-3.3339,-3.3391,-3.3735,-3.4333,-3.4728,-3.3894,-3.2866,-3.1975,-3.141,-3.119,-3.1171,-3.0838,-3.0638,-3.0208,-2.811,-2.6871,-2.6622,-2.4728,-2.3595,-2.3595,-2.3595,-2.3595,-2.3638,-2.3809,-2.4053,-2.441,-2.4792,-2.5163,-2.5486,-2.567,-2.5835,-2.6031,-2.6156,-2.6401,-2.6674,-2.6708,-2.6708,-2.6708,-2.6708,-2.6708,-2.6708,-2.6708,-2.6708,-2.6708,-2.6708,-2.6708,-2.6725,-2.6808,-2.689,-2.6725,-2.7021,-2.7315,-2.7651,-2.7721,-2.8481,-3.0011,-3.0401,-3.1218,-3.2697,-3.3476,-3.377,-3.3807,-3.3807,-3.3807,-3.3807,-3.3807,-3.3807,-3.3807,-3.3807,-3.3648,-3.3302,-3.3029,-3.2729,-3.2367,-3.1968,-3.1715,-3.1584,-3.1488,-3.1449,-3.1312,-3.121,-3.119,-3.1252,-3.1932,-3.2434,-3.2981,-3.3462,-3.3522,-3.3666,-3.3361,-3.3045,-3.2582,-3.2144,-3.1879,-3.1714,-3.2074,-3.2583,-3.779,-3.7906,-3.867,-3.8854,-3.8434,-3.7317,-3.6629,-3.638,-3.5257,-3.4301,-3.3735,-3.3659,-3.3287,-3.2906,-3.3156,-3.3453,-3.3761,-3.4161,-3.4455,-3.4528,-3.4671,-3.4915,-3.5093,-3.3987,-3.2748,-3.163,-3.1275,-3.119,-3.119,-3.1131,-3.119,-3.0847,-2.8735,-2.7398,-2.6909,-2.4891,-2.3684,-2.361,-2.3638,-2.3702,-2.373,-2.4178,-2.4496,-2.4612,-2.5411,-2.5924,-2.6068,-2.635,-2.6419,-2.6174,-2.6453,-2.6641,-2.6708,-2.6708,-2.6708,-2.6708,-2.6708,-2.6708,-2.6708,-2.6708,-2.6708,-2.6708,-2.6708,-2.6725,-2.6791,-2.7035,-2.7147,-2.6989,-2.7544,-2.8126,-2.8441,-2.8655,-2.923,-3.0171,-3.0819,-3.1805,-3.3355,-3.3715,-3.3807,-3.3807,-3.3807,-3.3807,-3.3807,-3.3807,-3.3807,-3.3807,-3.3807,-3.362,-3.3361,-3.3029,-3.245,-3.2127,-3.195,-3.1677,-3.1638,-3.1764,-3.174,-3.1766,-3.163,-3.1633,-3.1468,-3.2039,-3.2759,-3.3328,-3.3694,-3.378,-3.3707,-3.3404,-3.3045,-3.2599,-3.2213,-3.1915,-3.1915,-3.2144,-3.2535,-3.7802,-3.7893,-3.8673,-3.8362,-3.7438,-3.6931,-3.6417,-3.5938,-3.5548,-3.4894,-3.4431,-3.4333,-3.3962,-3.3417,-3.3547,-3.3862,-3.4309,-3.4544,-3.4934,-3.5276,-3.5322,-3.5071,-3.4704,-3.3863,-3.2899,-3.2005,-3.1427,-3.119,-3.119,-3.119,-3.1171,-3.1117,-2.9153,-2.7848,-2.7141,-2.533,-2.4147,-2.3719,-2.4012,-2.4178,-2.4266,-2.4732,-2.5186,-2.5596,-2.587,-2.6175,-2.6453,-2.6624,-2.6657,-2.6556,-2.6624,-2.6708,-2.6708,-2.6708,-2.6708,-2.6708,-2.6708,-2.6708,-2.6708,-2.6708,-2.6708,-2.6708,-2.6708,-2.6824,-2.7131,-2.7241,-2.7396,-2.7619,-2.8296,-2.8895,-2.9312,-2.9862,-3.0729,-3.1678,-3.1789,-3.2059,-3.287,-3.344,-3.3807,-3.3807,-3.3807,-3.3807,-3.3807,-3.3807,-3.3807,-3.3807,-3.3807,-3.3753,-3.3465,-3.3136,-3.2648,-3.2583,-3.2384,-3.1968,-3.1776,-3.1949,-3.2096,-3.2212,-3.2259,-3.2347,-3.2102,-3.2056,-3.2842,-3.3532,-3.3707,-3.3807,-3.368,-3.348,-3.3045,-3.2632,-3.2265,-3.195,-3.177,-3.1878,-3.2386,-3.7829,-3.7821,-3.8321,-3.7855,-3.6812,-3.6434,-3.6028,-3.5667,-3.56,-3.523,-3.4759,-3.4918,-3.464,-3.4087,-3.4325,-3.4657,-3.4988,-3.5012,-3.5253,-3.5448,-3.5261,-3.4704,-3.4083,-3.3503,-3.2865,-3.1887,-3.141,-3.1224,-3.119,-3.119,-3.1072,-3.0566,-2.9202,-2.8051,-2.7278,-2.5567,-2.4532,-2.4322,-2.441,-2.4491,-2.4736,-2.5259,-2.5633,-2.6013,-2.6174,-2.6436,-2.6674,-2.6708,-2.6708,-2.6691,-2.6708,-2.6708,-2.6708,-2.6708,-2.6708,-2.6708,-2.6708,-2.6708,-2.6708,-2.6708,-2.6708,-2.6708,-2.6708,-2.6906,-2.7241,-2.7441,-2.771,-2.7911,-2.8621,-2.9346,-3.0175,-3.1155,-3.2085,-3.2641,-3.2629,-3.2675,-3.3038,-3.355,-3.377,-3.3807,-3.3807,-3.3807,-3.3807,-3.3807,-3.3807,-3.3807,-3.3807,-3.368,-3.3494,-3.3166,-3.284,-3.2632,-3.2546,-3.2162,-3.2205,-3.2445,-3.2818,-3.2933,-3.3093,-3.3141,-3.2976,-3.2634,-3.3028,-3.366,-3.3762,-3.378,-3.368,-3.3522,-3.3196,-3.2793,-3.2332,-3.1932,-3.1714,-3.1787,-3.2283,-3.7686,-3.7694,-3.7758,-3.7347,-3.6586,-3.5926,-3.565,-3.5616,-3.5616,-3.5276,-3.4965,-3.5362,-3.5207,-3.4736,-3.5161,-3.5554,-3.5577,-3.5492,-3.5436,-3.5233,-3.4726,-3.3998,-3.3339,-3.3203,-3.2476,-3.1461,-3.1207,-3.119,-3.119,-3.119,-3.0938,-3.0423,-2.9279,-2.8174,-2.7253,-2.5687,-2.5031,-2.4854,-2.4672,-2.4835,-2.5278,-2.5762,-2.6086,-2.6191,-2.6453,-2.6624,-2.6674,-2.6708,-2.6708,-2.6708,-2.6708,-2.6708,-2.6708,-2.6708,-2.6708,-2.6708,-2.6708,-2.6708,-2.6708,-2.6708,-2.6708,-2.6708,-2.6708,-2.6923,-2.7317,-2.7663,-2.7908,-2.8134,-2.8711,-2.9793,-3.1034,-3.2397,-3.3042,-3.3263,-3.3245,-3.3429,-3.3694,-3.3807,-3.3807,-3.3807,-3.3807,-3.3807,-3.3807,-3.3807,-3.3807,-3.3807,-3.3807,-3.3721,-3.3433,-3.3045,-3.2648,-3.2247,-3.2257,-3.2315,-3.2605,-3.297,-3.344,-3.3783,-3.3956,-3.4059,-3.4014,-3.3824,-3.3713,-3.3875,-3.4179,-3.41,-3.3793,-3.3564,-3.3299,-3.2887,-3.2401,-3.1914,-3.1526,-3.1842,-3.2248,-3.6943,-3.7023,-3.7013,-3.6569,-3.591,-3.5667,-3.5616,-3.5616,-3.5616,-3.5492,-3.5447,-3.5554,-3.5492,-3.5345,-3.5515,-3.5616,-3.5616,-3.5583,-3.5334,-3.4658,-3.3981,-3.3237,-3.2682,-3.2564,-3.2056,-3.1343,-3.119,-3.119,-3.119,-3.1171,-3.1131,-3.0848,-3.0067,-2.9035,-2.7443,-2.6489,-2.5497,-2.4847,-2.4851,-2.5278,-2.5764,-2.6245,-2.6504,-2.6539,-2.6641,-2.6691,-2.6708,-2.6708,-2.6708,-2.6708,-2.6708,-2.6708,-2.6708,-2.6708,-2.6708,-2.6708,-2.6708,-2.6708,-2.6708,-2.6708,-2.6708,-2.6708,-2.6775,-2.6987,-2.7678,-2.7823,-2.8188,-2.871,-2.9502,-3.0424,-3.1843,-3.3008,-3.3529,-3.3625,-3.3638,-3.368,-3.3775,-3.3807,-3.3807,-3.3807,-3.3807,-3.3807,-3.3807,-3.3807,-3.3807,-3.3807,-3.3793,-3.3766,-3.3404,-3.2968,-3.2583,-3.2196,-3.241,-3.2584,-3.2903,-3.344,-3.4201,-3.451,-3.4664,-3.4935,-3.4914,-3.4941,-3.4823,-3.4727,-3.4738,-3.4491,-3.4119,-3.3766,-3.3555,-3.3014,-3.2555,-3.2178,-3.1976,-3.2126,-3.2231,-3.6447,-3.6789,-3.6812,-3.6332,-3.5667,-3.5616,-3.5616,-3.5616,-3.5616,-3.5616,-3.5616,-3.5616,-3.5616,-3.5616,-3.5616,-3.5616,-3.5616,-3.5583,-3.4991,-3.415,-3.3525,-3.3017,-3.2327,-3.1955,-3.1549,-3.1207,-3.119,-3.119,-3.119,-3.1171,-3.1035,-3.0781,-3.0456,-2.9391,-2.7902,-2.6948,-2.6241,-2.5684,-2.5288,-2.5542,-2.6263,-2.6556,-2.6708,-2.6708,-2.6708,-2.6708,-2.6708,-2.6708,-2.6708,-2.6708,-2.6708,-2.6708,-2.6708,-2.6708,-2.6708,-2.6708,-2.6708,-2.6708,-2.6708,-2.6708,-2.6708,-2.6708,-2.6857,-2.7303,-2.7779,-2.802,-2.8386,-2.8919,-2.9482,-3.0289,-3.188,-3.317,-3.3678,-3.3807,-3.3807,-3.3807,-3.3807,-3.3807,-3.3807,-3.3807,-3.3807,-3.3807,-3.3807,-3.3807,-3.3807,-3.3807,-3.3807,-3.378,-3.355,-3.3121,-3.2697,-3.2476,-3.2732,-3.2978,-3.3224,-3.3897,-3.4962,-3.5209,-3.5278,-3.5559,-3.5762,-3.5841,-3.5897,-3.5698,-3.5406,-3.4899,-3.4513,-3.4156,-3.3931,-3.3707,-3.3322,-3.2774,-3.2487,-3.2575,-3.2628,-3.6041,-3.6603,-3.6626,-3.6214,-3.565,-3.5616,-3.5616,-3.5616,-3.5616,-3.5616,-3.5616,-3.5616,-3.5616,-3.5616,-3.5616,-3.5616,-3.5532,-3.5126,-3.4404,-3.3609,-3.3,-3.2544,-3.2005,-3.1565,-3.1275,-3.119,-3.119,-3.119,-3.119,-3.1171,-3.1015,-3.0559,-3.0477,-2.9786,-2.8512,-2.731,-2.6687,-2.659,-2.5699,-2.5672,-2.647,-2.6674,-2.6708,-2.6708,-2.6708,-2.6708,-2.6708,-2.6708,-2.6708,-2.6708,-2.6708,-2.6708,-2.6708,-2.6708,-2.6708,-2.6708,-2.6708,-2.6708,-2.6708,-2.6725,-2.6725,-2.6775,-2.7067,-2.75,-2.7922,-2.8224,-2.854,-2.8973,-2.9482,-3.0191,-3.1329,-3.2871,-3.366,-3.3807,-3.3807,-3.3807,-3.3807,-3.3807,-3.3807,-3.3807,-3.3807,-3.3807,-3.3807,-3.3807,-3.3807,-3.3807,-3.3807,-3.3753,-3.3536,-3.3181,-3.2713,-3.2458,-3.2638,-3.3303,-3.3664,-3.4286,-3.5351,-3.5554,-3.5637,-3.593,-3.6295,-3.6482,-3.6453,-3.627,-3.5952,-3.5483,-3.5137,-3.4862,-3.4655,-3.4491,-3.4148,-3.3618,-3.3311,-3.3072,-3.2928,-3.5687,-3.5802,-3.5785,-3.5718,-3.5616,-3.5616,-3.5616,-3.5616,-3.5616,-3.5616,-3.5616,-3.56,-3.56,-3.5583,-3.56,-3.5583,-3.5228,-3.4484,-3.3744,-3.3119,-3.2408,-3.1681,-3.1613,-3.136,-3.1207,-3.119,-3.119,-3.119,-3.119,-3.1171,-3.1095,-3.1035,-3.0888,-3.0209,-2.8968,-2.7923,-2.7001,-2.6801,-2.5894,-2.5817,-2.647,-2.6708,-2.6708,-2.6708,-2.6708,-2.6708,-2.6708,-2.6708,-2.6708,-2.6708,-2.6708,-2.6708,-2.6708,-2.6708,-2.6708,-2.6708,-2.6708,-2.6708,-2.6708,-2.6725,-2.689,-2.7115,-2.7317,-2.766,-2.8112,-2.8381,-2.8633,-2.9126,-3.0027,-3.1005,-3.1378,-3.2711,-3.3605,-3.377,-3.3788,-3.3807,-3.3807,-3.3807,-3.3807,-3.3807,-3.3807,-3.3807,-3.3807,-3.3807,-3.3807,-3.3807,-3.3807,-3.3734,-3.3564,-3.3121,-3.2583,-3.2442,-3.2421,-3.3284,-3.4121,-3.4827,-3.5588,-3.5661,-3.5776,-3.6015,-3.6381,-3.6865,-3.6915,-3.6535,-3.6438,-3.6281,-3.5937,-3.5567,-3.5389,-3.5208,-3.4855,-3.4464,-3.4102,-3.3696,-3.2815,-3.5276,-3.5616,-3.5616,-3.5616,-3.5616,-3.5616,-3.5616,-3.5616,-3.5616,-3.5616,-3.5616,-3.5583,-3.5363,-3.5233,-3.5481,-3.5228,-3.4366,-3.3825,-3.3203,-3.2696,-3.2087,-3.1769,-3.163,-3.1393,-3.1224,-3.119,-3.119,-3.119,-3.119,-3.119,-3.119,-3.1013,-3.0619,-2.9735,-2.8727,-2.7453,-2.6909,-2.6497,-2.604,-2.5944,-2.6624,-2.6708,-2.6708,-2.6708,-2.6708,-2.6708,-2.6708,-2.6708,-2.6708,-2.6708,-2.6708,-2.6708,-2.6708,-2.6708,-2.6708,-2.6708,-2.6708,-2.6708,-2.6758,-2.6841,-2.7019,-2.7036,-2.7485,-2.7876,-2.8197,-2.8438,-2.8713,-2.8955,-2.9586,-3.0467,-3.0454,-3.2175,-3.3005,-3.3256,-3.3532,-3.3788,-3.3807,-3.3807,-3.3807,-3.3807,-3.3807,-3.3807,-3.3807,-3.3807,-3.3807,-3.3807,-3.3807,-3.3721,-3.3592,-3.3042,-3.2467,-3.242,-3.2509,-3.3519,-3.4387,-3.5081,-3.56,-3.5689,-3.5783,-3.6006,-3.6182,-3.6539,-3.6656,-3.6504,-3.6542,-3.6647,-3.6538,-3.6103,-3.6015,-3.5951,-3.5641,-3.5295,-3.484,-3.4231,-3.3236,-3.5138,-3.5616,-3.5616,-3.5616,-3.5616,-3.5616,-3.5616,-3.5616,-3.5616,-3.5616,-3.5616,-3.5566,-3.5177,-3.4759,-3.4742,-3.4484,-3.3389,-3.3288,-3.2814,-3.2412,-3.2056,-3.2022,-3.1867,-3.1579,-3.119,-3.119,-3.119,-3.119,-3.119,-3.119,-3.119,-3.1013,-3.0086,-2.9362,-2.8731,-2.7696,-2.6832,-2.6454,-2.6134,-2.6243,-2.659,-2.6708,-2.6708,-2.6708,-2.6708,-2.6708,-2.6708,-2.6708,-2.6708,-2.6708,-2.6708,-2.6708,-2.6708,-2.6708,-2.6708,-2.6708,-2.6708,-2.6708,-2.6775,-2.6906,-2.7051,-2.7178,-2.7801,-2.8071,-2.8347,-2.8651,-2.887,-2.8717,-2.9303,-3.0013,-3.0485,-3.161,-3.2575,-3.3041,-3.3495,-3.3807,-3.3807,-3.3807,-3.3807,-3.3807,-3.3807,-3.3807,-3.3807,-3.3807,-3.3807,-3.3807,-3.3807,-3.3766,-3.3564,-3.2934,-3.249,-3.2446,-3.2761,-3.3803,-3.4624,-3.5199,-3.5549,-3.5644,-3.5667,-3.5761,-3.5871,-3.6006,-3.61,-3.6243,-3.6498,-3.656,-3.655,-3.6778,-3.6933,-3.688,-3.652,-3.6059,-3.5483,-3.4439,-3.3264,-3.5554,-3.5616,-3.5616,-3.5616,-3.5616,-3.5616,-3.5616,-3.5616,-3.5616,-3.5616,-3.56,-3.5532,-3.5131,-3.4472,-3.3795,-3.3558,-3.322,-3.2679,-3.2361,-3.209,-3.1684,-3.1444,-3.136,-3.1275,-3.119,-3.119,-3.119,-3.119,-3.1089,-3.1072,-3.1123,-3.0982,-3.0617,-3.0474,-2.9157,-2.7954,-2.7881,-2.7401,-2.6504,-2.6244,-2.6607,-2.6708,-2.6708,-2.6708,-2.6708,-2.6708,-2.6708,-2.6708,-2.6708,-2.6708,-2.6708,-2.6708,-2.6708,-2.6708,-2.6708,-2.6708,-2.6708,-2.6708,-2.6725,-2.6857,-2.7083,-2.7378,-2.7876,-2.8268,-2.8614,-2.8779,-2.8905,-2.9019,-2.9619,-3.0191,-3.075,-3.1939,-3.2803,-3.3293,-3.3605,-3.3788,-3.3807,-3.3807,-3.3807,-3.3807,-3.3807,-3.3807,-3.3807,-3.3807,-3.3807,-3.3807,-3.3793,-3.3739,-3.339,-3.2663,-3.2651,-3.2664,-3.2903,-3.3855,-3.4788,-3.5363,-3.5515,-3.56,-3.5616,-3.5616,-3.5689,-3.5761,-3.5734,-3.5904,-3.622,-3.6435,-3.6364,-3.6773,-3.7606,-3.7535,-3.686,-3.6417,-3.604,-3.4764,-3.3296,-3.5616,-3.5616,-3.5616,-3.5616,-3.5616,-3.5616,-3.5616,-3.5616,-3.5616,-3.5616,-3.5498,-3.5131,-3.4573,-3.3761,-3.2713,-3.2391,-3.2547,-3.2039,-3.1701,-3.1718,-3.136,-3.119,-3.1207,-3.119,-3.119,-3.119,-3.1123,-3.0869,-3.0768,-3.0598,-3.0565,-3.0425,-2.9523,-2.8596,-2.8628,-2.7497,-2.6965,-2.6677,-2.6499,-2.6504,-2.6641,-2.6708,-2.6708,-2.6708,-2.6708,-2.6708,-2.6708,-2.6708,-2.6708,-2.6708,-2.6708,-2.6708,-2.6708,-2.6708,-2.6708,-2.6708,-2.6708,-2.6708,-2.6725,-2.6906,-2.7147,-2.7363,-2.7791,-2.8438,-2.8827,-2.8797,-2.87,-2.8676,-2.9379,-3.0035,-3.0682,-3.1759,-3.2502,-3.3096,-3.3623,-3.3752,-3.3807,-3.3807,-3.3807,-3.3807,-3.3807,-3.3807,-3.3807,-3.3807,-3.3807,-3.3807,-3.368,-3.3522,-3.295,-3.2109,-3.2399,-3.3016,-3.333,-3.3846,-3.4754,-3.5515,-3.5549,-3.5616,-3.5616,-3.5616,-3.5616,-3.5622,-3.5616,-3.5898,-3.6397,-3.6429,-3.6235,-3.6592,-3.7257,-3.7204,-3.7022,-3.6398,-3.5709,-3.457,-3.3207,-3.5616,-3.5616,-3.5616,-3.5616,-3.5616,-3.5616,-3.5616,-3.5616,-3.5616,-3.5498,-3.5098,-3.437,-3.3592,-3.2966,-3.1935,-3.1596,-3.1972,-3.1447,-3.1241,-3.119,-3.119,-3.119,-3.119,-3.119,-3.119,-3.119,-3.119,-3.097,-3.0514,-3.0074,-2.982,-2.9785,-2.9087,-2.7979,-2.7306,-2.6974,-2.6694,-2.6166,-2.6347,-2.6453,-2.6487,-2.6487,-2.6573,-2.6657,-2.6708,-2.6708,-2.6708,-2.6708,-2.6708,-2.6708,-2.6708,-2.6708,-2.6708,-2.6708,-2.6708,-2.6708,-2.6708,-2.6708,-2.6808,-2.6988,-2.7115,-2.7409,-2.783,-2.8682,-2.8863,-2.8682,-2.8565,-2.8676,-2.9075,-2.959,-3.0257,-3.1563,-3.2342,-3.2999,-3.3513,-3.3678,-3.3807,-3.3807,-3.3807,-3.3807,-3.3807,-3.3807,-3.3807,-3.3807,-3.3807,-3.3807,-3.3638,-3.3328,-3.27,-3.191,-3.2408,-3.3181,-3.3728,-3.4184,-3.494,-3.5566,-3.56,-3.5616,-3.5616,-3.5616,-3.5616,-3.5616,-3.5616,-3.6011,-3.646,-3.6391,-3.6145,-3.6505,-3.6798,-3.6612,-3.638,-3.5884,-3.5144,-3.41,-3.338,-3.5616,-3.5616,-3.5616,-3.5616,-3.5616,-3.5616,-3.5616,-3.5616,-3.5616,-3.5216,-3.4421,-3.3224,-3.2598,-3.2192,-3.1647,-3.1241,-3.1292,-3.1224,-3.119,-3.119,-3.119,-3.119,-3.119,-3.119,-3.119,-3.119,-3.1173,-3.114,-3.0835,-2.9956,-2.9467,-2.899,-2.8812,-2.8613,-2.8056,-2.7311,-2.6732,-2.622,-2.6191,-2.6174,-2.6156,-2.6175,-2.6349,-2.6641,-2.6708,-2.6708,-2.6708,-2.6708,-2.6758,-2.6758,-2.6725,-2.6775,-2.6808,-2.6725,-2.6725,-2.6708,-2.6708,-2.6725,-2.6857,-2.7051,-2.7426,-2.7897,-2.8404,-2.8839,-2.897,-2.8975,-2.894,-2.8978,-2.9345,-3.0003,-3.0735,-3.1574,-3.2577,-3.3146,-3.3642,-3.3697,-3.3807,-3.3807,-3.3807,-3.3807,-3.3807,-3.3807,-3.3807,-3.3807,-3.3807,-3.3807,-3.3419,-3.3103,-3.2879,-3.2349,-3.2779,-3.3383,-3.4024,-3.4624,-3.5295,-3.5616,-3.5616,-3.5616,-3.5616,-3.5616,-3.5616,-3.5616,-3.5616,-3.5761,-3.6058,-3.6092,-3.6108,-3.6221,-3.622,-3.6022,-3.5726,-3.5416,-3.4927,-3.4106,-3.3605,-3.5177,-3.56,-3.5616,-3.5616,-3.5616,-3.5616,-3.5616,-3.5616,-3.56,-3.4912,-3.3783,-3.2784,-3.2039,-3.165,-3.141,-3.119,-3.119,-3.119,-3.123,-3.119,-3.119,-3.119,-3.119,-3.121,-3.119,-3.119,-3.1173,-3.0869,-3.0395,-3.0178,-2.9687,-2.9281,-2.8704,-2.8094,-2.7638,-2.7485,-2.6787,-2.6375,-2.6227,-2.6314,-2.6085,-2.6314,-2.6505,-2.6657,-2.6708,-2.6708,-2.6708,-2.6708,-2.6841,-2.6906,-2.6791,-2.6841,-2.6923,-2.6808,-2.6708,-2.6725,-2.6708,-2.6841,-2.6954,-2.7067,-2.721,-2.7851,-2.8334,-2.8749,-2.8952,-2.8987,-2.8987,-2.9225,-2.9861,-3.065,-3.1164,-3.2265,-3.3275,-3.366,-3.3807,-3.3807,-3.3807,-3.3807,-3.3807,-3.3807,-3.3807,-3.3807,-3.3807,-3.3807,-3.3807,-3.378,-3.3314,-3.2925,-3.2804,-3.2732,-3.31,-3.362,-3.4278,-3.481,-3.5464,-3.5583,-3.56,-3.5616,-3.5616,-3.5616,-3.5616,-3.5616,-3.5622,-3.5711,-3.5715,-3.5797,-3.5801,-3.5771,-3.575,-3.5756,-3.5511,-3.5155,-3.461,-3.4201,-3.3972,-3.4607,-3.5228,-3.5261,-3.5397,-3.5583,-3.5616,-3.5616,-3.5566,-3.5329,-3.4563,-3.3243,-3.248,-3.198,-3.1646,-3.1618,-3.162,-3.1657,-3.1657,-3.162,-3.1638,-3.1657,-3.1506,-3.1411,-3.137,-3.137,-3.1252,-3.1157,-3.0886,-3.0615,-3.0784,-3.0395,-2.9465,-2.8247,-2.8044,-2.796,-2.7655,-2.6974,-2.6343,-2.6476,-2.65,-2.615,-2.6262,-2.6573,-2.6641,-2.6708,-2.6708,-2.6708,-2.6708,-2.6791,-2.689,-2.6873,-2.6857,-2.6906,-2.689,-2.6725,-2.6725,-2.6841,-2.7036,-2.7162,-2.7376,-2.7497,-2.8255,-2.8495,-2.8779,-2.8917,-2.9023,-2.906,-2.95,-3.043,-3.1219,-3.1549,-3.2614,-3.333,-3.3623,-3.3788,-3.3807,-3.3807,-3.3807,-3.3807,-3.3807,-3.3807,-3.3807,-3.3807,-3.3807,-3.3817,-3.3657,-3.3121,-3.2959,-3.314,-3.3112,-3.324,-3.3838,-3.4544,-3.5047,-3.5498,-3.5571,-3.5644,-3.5616,-3.5616,-3.5616,-3.5616,-3.5644,-3.5622,-3.5644,-3.5637,-3.5569,-3.5604,-3.5673,-3.5676,-3.5666,-3.5507,-3.549,-3.559,-3.5277,-3.4785,-3.3884,-3.4489,-3.4544,-3.4934,-3.543,-3.5583,-3.5616,-3.5504,-3.4876,-3.4028,-3.3085,-3.2292,-3.2126,-3.2282,-3.2265,-3.2248,-3.2265,-3.2316,-3.2316,-3.2265,-3.2214,-3.2109,-3.1861,-3.1678,-3.1488,-3.1252,-3.1173,-3.114,-3.1055,-3.0734,-3.0598,-3.0531,-2.9583,-2.8857,-2.8959,-2.8925,-2.7897,-2.645,-2.6877,-2.6649,-2.6313,-2.6238,-2.6419,-2.6624,-2.6708,-2.6708,-2.6708,-2.6708,-2.6791,-2.6873,-2.6791,-2.6774,-2.6857,-2.6774,-2.6725,-2.6791,-2.7067,-2.7239,-2.7363,-2.7956,-2.8412,-2.8676,-2.8755,-2.8929,-2.8994,-2.9115,-2.9354,-2.9867,-3.0522,-3.1262,-3.194,-3.2711,-3.3275,-3.3568,-3.3752,-3.3807,-3.3807,-3.3807,-3.3807,-3.3807,-3.3807,-3.3807,-3.3807,-3.3793,-3.3808,-3.3549,-3.2952,-3.2938,-3.3318,-3.3557,-3.3681,-3.4151,-3.4847,-3.5248,-3.5644,-3.5655,-3.5689,-3.5644,-3.5689,-3.5783,-3.5783,-3.5805,-3.5778,-3.5689,-3.5616,-3.5591,-3.5593,-3.5621,-3.5608,-3.5648,-3.6063,-3.6184,-3.6359,-3.6258,-3.5668,-3.3359,-3.3783,-3.412,-3.4195,-3.429,-3.5194,-3.56,-3.5447,-3.4664,-3.3919,-3.3335,-3.2599,-3.2333,-3.2467,-3.255,-3.2567,-3.255,-3.2501,-3.2501,-3.2534,-3.2567,-3.2179,-3.1933,-3.1807,-3.1603,-3.131,-3.119,-3.119,-3.1157,-3.0835,-3.0903,-3.0903,-3.0581,-2.9958,-2.9264,-2.8939,-2.8333,-2.7634,-2.7542,-2.7284,-2.678,-2.6563,-2.6538,-2.6725,-2.6708,-2.6708,-2.6708,-2.6708,-2.6791,-2.6923,-2.6841,-2.6808,-2.6923,-2.689,-2.6841,-2.702,-2.7301,-2.756,-2.7946,-2.8471,-2.867,-2.8791,-2.8881,-2.8975,-2.9005,-2.9555,-2.9904,-3.0411,-3.1146,-3.1885,-3.2509,-3.317,-3.3642,-3.3715,-3.3807,-3.3807,-3.3807,-3.3807,-3.3807,-3.3807,-3.3807,-3.3807,-3.3807,-3.3834,-3.3854,-3.4039,-3.3629,-3.3468,-3.3723,-3.4051,-3.424,-3.4666,-3.5168,-3.5533,-3.5805,-3.5985,-3.5963,-3.5898,-3.6028,-3.6199,-3.6178,-3.6139,-3.6139,-3.6182,-3.5876,-3.5622,-3.5635,-3.5643,-3.5582,-3.5701,-3.6,-3.6359,-3.6528,-3.647,-3.6243,-3.2644,-3.3066,-3.3513,-3.3704,-3.3758,-3.4503,-3.4813,-3.4622,-3.4127,-3.374,-3.3395,-3.2925,-3.2856,-3.2934,-3.295,-3.2932,-3.295,-3.295,-3.2965,-3.295,-3.2965,-3.2631,-3.2264,-3.1968,-3.1714,-3.137,-3.119,-3.119,-3.119,-3.119,-3.1173,-3.1173,-3.1173,-3.0651,-3.0042,-2.98,-2.9372,-2.8781,-2.8454,-2.8237,-2.7608,-2.7176,-2.6945,-2.6793,-2.6708,-2.6708,-2.6708,-2.6741,-2.6825,-2.6955,-2.6923,-2.6841,-2.6955,-2.7051,-2.702,-2.7224,-2.7631,-2.796,-2.8515,-2.8761,-2.8839,-2.8737,-2.8893,-2.8964,-2.9133,-2.9666,-3.0246,-3.0907,-3.1922,-3.2564,-3.3041,-3.3678,-3.3752,-3.3807,-3.3807,-3.3807,-3.3807,-3.3807,-3.3807,-3.3807,-3.3807,-3.3807,-3.3821,-3.3887,-3.393,-3.4166,-3.4367,-3.432,-3.4306,-3.4621,-3.5002,-3.5385,-3.5745,-3.6101,-3.6354,-3.644,-3.6378,-3.6186,-3.6395,-3.6661,-3.6701,-3.6684,-3.6684,-3.6646,-3.6429,-3.6163,-3.5808,-3.5668,-3.5298,-3.534,-3.5677,-3.6085,-3.6559,-3.662,-3.6519,-3.1695,-3.2329,-3.2798,-3.3405,-3.3893,-3.3662,-3.3379,-3.3164,-3.3512,-3.3529,-3.3232,-3.325,-3.3328,-3.3694,-3.3734,-3.3675,-3.3648,-3.3662,-3.3648,-3.362,-3.3476,-3.3027,-3.2598,-3.2298,-3.1806,-3.1408,-3.119,-3.119,-3.119,-3.119,-3.119,-3.119,-3.119,-3.097,-3.0869,-3.07,-3.0205,-2.9677,-2.9424,-2.9072,-2.8393,-2.7788,-2.7367,-2.7063,-2.681,-2.6725,-2.6708,-2.6708,-2.6725,-2.6741,-2.6708,-2.6725,-2.6841,-2.7083,-2.7208,-2.7527,-2.8057,-2.8515,-2.8821,-2.8994,-2.8994,-2.8875,-2.8952,-2.8987,-2.9262,-2.9843,-3.0595,-3.1329,-3.2228,-3.2963,-3.3642,-3.3715,-3.3788,-3.3807,-3.3807,-3.3807,-3.3807,-3.3807,-3.3807,-3.3807,-3.3807,-3.3812,-3.3812,-3.3847,-3.395,-3.4526,-3.4933,-3.5473,-3.5474,-3.5499,-3.5859,-3.6226,-3.6544,-3.6775,-3.6921,-3.6943,-3.6865,-3.6706,-3.6962,-3.7209,-3.7228,-3.7157,-3.7032,-3.696,-3.6959,-3.6528,-3.5418,-3.4888,-3.472,-3.4879,-3.5084,-3.5654,-3.6068,-3.6659,-3.6721,-3.2558,-3.2512,-3.2953,-3.3079,-3.3002,-3.3173,-3.35,-3.3902,-3.4069,-3.3921,-3.3638,-3.3638,-3.368,-3.3788,-3.3807,-3.3807,-3.3807,-3.3807,-3.3793,-3.3721,-3.355,-3.3011,-3.2583,-3.2179,-3.1695,-3.137,-3.119,-3.119,-3.119,-3.119,-3.119,-3.119,-3.1173,-3.1173,-3.114,-3.119,-3.0818,-3.0531,-3.0311,-2.982,-2.9092,-2.8382,-2.7858,-2.7435,-2.6894,-2.6776,-2.6708,-2.6708,-2.6708,-2.6708,-2.6708,-2.6791,-2.7147,-2.7272,-2.7424,-2.8066,-2.854,-2.8905,-2.8975,-2.8987,-2.8987,-2.9005,-2.9042,-2.9005,-2.9335,-3.0118,-3.1035,-3.1641,-3.2577,-3.3421,-3.3715,-3.377,-3.3807,-3.3807,-3.3807,-3.3807,-3.3807,-3.3807,-3.3807,-3.3807,-3.3807,-3.3812,-3.3812,-3.3709,-3.3895,-3.4684,-3.5429,-3.6094,-3.656,-3.6517,-3.6581,-3.6932,-3.7248,-3.7433,-3.7378,-3.7378,-3.7323,-3.7285,-3.756,-3.7666,-3.7559,-3.7451,-3.7326,-3.6968,-3.6487,-3.5509,-3.4323,-3.4094,-3.4199,-3.4092,-3.4318,-3.4976,-3.5617,-3.5946,-3.6422,-3.2763,-3.2583,-3.2999,-3.3121,-3.3072,-3.3317,-3.3713,-3.4065,-3.4119,-3.3966,-3.383,-3.3793,-3.3807,-3.3807,-3.3807,-3.3807,-3.3807,-3.3807,-3.3807,-3.3707,-3.3332,-3.295,-3.2501,-3.2021,-3.1603,-3.1332,-3.119,-3.119,-3.119,-3.1157,-3.114,-3.0751,-3.097,-3.0987,-3.0903,-3.0987,-3.119,-3.0987,-3.0784,-3.0429,-2.9753,-2.8941,-2.8349,-2.7756,-2.7148,-2.681,-2.6725,-2.6725,-2.6691,-2.6758,-2.6791,-2.7019,-2.7394,-2.7542,-2.796,-2.8552,-2.8803,-2.8952,-2.8987,-2.8987,-2.8987,-2.9078,-2.9262,-2.95,-2.9879,-3.0577,-3.1072,-3.1623,-3.2852,-3.3807,-3.3807,-3.3807,-3.3807,-3.3807,-3.3807,-3.3807,-3.3807,-3.3807,-3.3807,-3.3807,-3.3807,-3.3807,-3.3744,-3.3618,-3.398,-3.4965,-3.5849,-3.6552,-3.7075,-3.7309,-3.7292,-3.7452,-3.779,-3.8065,-3.7892,-3.7681,-3.7733,-3.7803,-3.8101,-3.8145,-3.7945,-3.753,-3.7187,-3.6472,-3.567,-3.4792,-3.4008,-3.3813,-3.3813,-3.3616,-3.3366,-3.3788,-3.4199,-3.4469,-3.4998,-3.2632,-3.2665,-3.306,-3.3447,-3.378,-3.378,-3.3798,-3.3807,-3.384,-3.3825,-3.3807,-3.3807,-3.3807,-3.3807,-3.3807,-3.3807,-3.3766,-3.3721,-3.3652,-3.3694,-3.3072,-3.2665,-3.2315,-3.1968,-3.1507,-3.1274,-3.119,-3.119,-3.119,-3.1157,-3.0903,-3.026,-3.0869,-3.1004,-3.0683,-3.0987,-3.119,-3.114,-3.1055,-3.0818,-3.0226,-2.9465,-2.8721,-2.8094,-2.7401,-2.6843,-2.6826,-2.6793,-2.6708,-2.6857,-2.7036,-2.7272,-2.766,-2.8043,-2.8565,-2.8785,-2.8952,-2.8975,-2.8987,-2.8987,-2.8987,-2.9225,-2.9647,-2.9849,-3.0191,-3.1091,-3.1641,-3.1971,-3.3073,-3.3697,-3.3807,-3.3807,-3.3807,-3.3807,-3.3807,-3.3807,-3.3807,-3.3807,-3.3807,-3.3807,-3.3807,-3.3793,-3.3647,-3.3553,-3.3918,-3.5128,-3.6045,-3.6768,-3.7401,-3.7799,-3.7891,-3.7856,-3.7876,-3.8,-3.7828,-3.7723,-3.8079,-3.8282,-3.83,-3.8193,-3.7713,-3.7336,-3.6967,-3.6021,-3.506,-3.4658,-3.4101,-3.3617,-3.303,-3.2581,-3.2446,-3.2563,-3.2847,-3.3199,-3.3895,-3.3476,-3.3508,-3.3606,-3.3721,-3.3793,-3.3807,-3.3807,-3.3807,-3.3807,-3.3807,-3.3807,-3.3807,-3.3807,-3.3807,-3.3807,-3.3807,-3.378,-3.3536,-3.3375,-3.3087,-3.2647,-3.2298,-3.195,-3.1621,-3.1332,-3.1232,-3.119,-3.119,-3.119,-3.1157,-3.114,-3.092,-3.1173,-3.0987,-3.0751,-3.1106,-3.119,-3.119,-3.1157,-3.1123,-3.0784,-3.0277,-2.9651,-2.9075,-2.845,-2.7587,-2.7368,-2.6996,-2.7026,-2.7131,-2.7225,-2.7572,-2.8125,-2.8577,-2.8851,-2.8964,-2.8987,-2.8987,-2.8987,-2.8987,-2.8987,-2.9023,-2.9335,-2.9684,-3.0363,-3.1574,-3.2357,-3.2632,-3.2999,-3.3495,-3.3807,-3.3807,-3.3807,-3.3807,-3.3807,-3.3807,-3.3807,-3.3807,-3.3807,-3.3807,-3.3807,-3.373,-3.3577,-3.3742,-3.4113,-3.4844,-3.5783,-3.6614,-3.7405,-3.7919,-3.8109,-3.8054,-3.7679,-3.7677,-3.7525,-3.74,-3.7558,-3.7496,-3.7374,-3.7367,-3.7364,-3.6538,-3.572,-3.518,-3.4484,-3.4054,-3.3483,-3.2715,-3.2144,-3.1821,-3.1738,-3.1937,-3.2051,-3.2343,-3.3094,-3.3807,-3.3807,-3.3807,-3.3807,-3.3807,-3.3807,-3.3807,-3.3807,-3.3807,-3.3807,-3.3807,-3.3807,-3.3807,-3.3807,-3.3807,-3.3807,-3.3739,-3.3394,-3.3273,-3.2952,-3.2315,-3.1969,-3.164,-3.1389,-3.1271,-3.119,-3.119,-3.119,-3.119,-3.1157,-3.1123,-3.0903,-3.0937,-3.1072,-3.092,-3.097,-3.119,-3.119,-3.119,-3.119,-3.1123,-3.0581,-3.0123,-2.9649,-2.911,-2.8314,-2.7826,-2.7471,-2.7445,-2.7531,-2.7601,-2.8071,-2.8527,-2.8839,-2.8964,-2.8987,-2.8987,-2.8987,-2.8987,-2.8987,-2.8987,-2.9023,-2.9427,-2.9971,-3.0815,-3.1935,-3.2417,-3.2711,-3.3275,-3.3788,-3.3807,-3.3807,-3.3807,-3.3807,-3.3807,-3.3807,-3.3807,-3.3807,-3.3807,-3.3807,-3.3807,-3.378,-3.3671,-3.3689,-3.415,-3.4848,-3.5742,-3.6454,-3.7239,-3.7658,-3.7955,-3.7955,-3.7404,-3.7092,-3.6883,-3.6758,-3.6729,-3.6615,-3.6483,-3.6321,-3.6156,-3.522,-3.439,-3.4265,-3.3967,-3.3406,-3.2749,-3.2281,-3.1806,-3.1523,-3.1419,-3.1382,-3.1506,-3.1786,-3.2488,-3.3807,-3.3807,-3.3807,-3.3807,-3.3807,-3.3807,-3.3807,-3.3807,-3.3807,-3.3807,-3.3807,-3.3807,-3.3807,-3.3807,-3.3807,-3.3807,-3.3638,-3.3199,-3.3108,-3.2809,-3.2074,-3.1733,-3.1526,-3.1353,-3.1252,-3.119,-3.119,-3.119,-3.119,-3.1157,-3.097,-3.0497,-3.0598,-3.0886,-3.0615,-3.0784,-3.119,-3.119,-3.119,-3.119,-3.092,-3.0615,-3.0412,-3.004,-2.9516,-2.8805,-2.8456,-2.81,-2.8003,-2.8035,-2.8132,-2.8502,-2.8773,-2.8964,-2.8964,-2.8987,-2.8987,-2.8987,-2.8987,-2.8987,-2.8987,-2.9152,-2.9757,-3.043,-3.1201,-3.1825,-3.2289,-3.3005,-3.3568,-3.377,-3.3807,-3.3807,-3.3807,-3.3807,-3.3807,-3.3807,-3.3807,-3.3807,-3.3807,-3.3807,-3.3807,-3.3793,-3.3721,-3.3734,-3.4147,-3.4862,-3.5573,-3.6321,-3.6886,-3.696,-3.711,-3.7,-3.6597,-3.6358,-3.6174,-3.5881,-3.5716,-3.5826,-3.5679,-3.5371,-3.5023,-3.4454,-3.4069,-3.3899,-3.3512,-3.3121,-3.2777,-3.2383,-3.1896,-3.1524,-3.1654,-3.1746,-3.1763,-3.1998,-3.2161,-3.3807,-3.3807,-3.3807,-3.3807,-3.3807,-3.3807,-3.3807,-3.3807,-3.3807,-3.3807,-3.3807,-3.3807,-3.3807,-3.3807,-3.3807,-3.378,-3.3578,-3.306,-3.2713,-3.2467,-3.186,-3.1506,-3.1389,-3.1449,-3.1252,-3.123,-3.1249,-3.119,-3.119,-3.119,-3.1157,-3.097,-3.097,-3.1106,-3.1072,-3.119,-3.119,-3.119,-3.119,-3.119,-3.121,-3.1041,-3.1058,-3.07,-3.0277,-2.9939,-2.9525,-2.8802,-2.8646,-2.8679,-2.8796,-2.8931,-2.8952,-2.8987,-2.8987,-2.8987,-2.8987,-2.8987,-2.8987,-2.8987,-2.8987,-2.9005,-2.9537,-3.0044,-3.0797,-3.1476,-3.2228,-3.3366,-3.3788,-3.3788,-3.3807,-3.3807,-3.3807,-3.3807,-3.3807,-3.3807,-3.3807,-3.3807,-3.3807,-3.3807,-3.3807,-3.3666,-3.348,-3.3536,-3.3684,-3.4338,-3.4857,-3.5563,-3.5862,-3.6064,-3.6303,-3.6046,-3.5789,-3.5463,-3.5224,-3.4761,-3.4578,-3.478,-3.4876,-3.4656,-3.4394,-3.41,-3.3793,-3.3766,-3.3536,-3.3199,-3.2825,-3.2533,-3.2367,-3.2109,-3.2248,-3.2334,-3.2265,-3.2282,-3.2467]},{"header":{"parameterUnit":"m.s-1","parameterCategory":1,"la1":31.0,"la2":29.5877,"lo1":-88.7671,"lo2":-86.6584,"dy":0.0162,"dx":0.0185,"nx":115,"ny":88,"refTime":"2026-04-29T00:00:00:Z","depth":0,"parameterNumber":3,"parameterNumberName":"V-component_of_WINDS"},"data":[0.0,0.0,0.0,0.0,0.0,0.0,0.0,0.0,0.0,0.0,0.0,0.0,0.0,0.0,0.0,0.0,0.0,0.0,0.0,0.0,0.0,0.0,0.0,0.0,0.0,0.0,0.0,0.0,0.0,0.0,0.0,0.0,0.0,0.0,0.0,0.0,0.0,0.0,0.0,0.0,0.0,0.0,0.0,0.0,0.0,0.0,0.0,0.0,0.0,0.0,0.0,0.0,0.0,0.0,0.0,0.0,0.0,0.0,0.0,0.0,0.0,0.0,0.0,0.0,0.0,0.0,0.0,0.0,0.0,0.0,0.0,0.0,0.0,0.0,0.0,0.0,0.0,0.0,0.0,0.0,0.0,0.0,0.0,0.0,0.0,0.0,0.0,0.0,0.0,0.0,0.0,0.0,0.0,0.0,0.0,0.0,0.0,0.0,0.0,0.0,0.0,0.0,0.0,0.0,0.0,0.0,0.0,0.0,0.0,0.0,0.0,0.0,0.0,0.0,0.0,0.0,0.0,0.0,0.0,0.0,0.0,0.0,0.0,0.0,0.0,0.0,0.0,0.0,0.0,0.0,0.0,0.0,0.0,0.0,0.0,0.0,0.0,0.0,0.0,0.0,0.0,0.0,0.0,0.0,0.0,0.0,0.0,0.0,0.0,0.0,0.0,0.0,0.0,0.0,0.0,0.0,0.0,0.0,0.0,0.0,0.0,0.0,0.0,0.0,0.0,0.0,0.0,0.0,0.0,0.0,0.0,0.0,0.0,0.0,0.0,0.0,0.0,0.0,0.0,0.0,0.0,0.0,0.0,0.0,0.0,0.0,0.0,0.0,0.0,0.0,0.0,0.0,0.0,0.0,0.0,0.0,0.0,0.0,0.0,0.0,0.0,0.0,0.0,0.0,0.0,0.0,0.0,0.0,0.0,0.0,0.0,0.0,0.0,0.0,0.0,0.0,0.0,0.0,0.0,0.0,0.0,0.0,0.0,0.0,0.0,0.0,0.0,0.0,0.0,0.0,0.0,0.0,0.0,0.0,0.0,0.0,0.0,0.0,0.0,0.0,0.0,0.0,0.0,0.0,0.0,0.0,0.0,0.0,0.0,0.0,0.0,0.0,0.0,0.0,0.0,0.0,0.0,0.0,0.0,0.0,0.0,0.0,0.0,0.0,0.0,0.0,0.0,0.0,0.0,0.0,0.0,0.0,0.0,0.0,0.0,0.0,0.0,0.0,0.0,0.0,0.0,0.0,0.0,0.0,0.0,0.0,0.0,0.0,0.0,0.0,0.0,0.0,0.0,0.0,0.0,0.0,0.0,0.0,0.0,0.0,0.0,0.0,0.0,0.0,0.0,0.0,0.0,0.0,0.0,0.0,0.0,0.0,0.0,0.0,0.0,0.0,0.0,0.0,0.0,0.0,0.0,0.0,0.0,0.0,0.0,0.0,0.0,0.0,0.0,0.0,0.0,0.0,0.0,0.0,0.0,0.0,0.0,0.0,0.0,0.0,0.0,0.0,0.0,0.0,0.0,0.0,0.0,0.0,0.0,0.0,0.0,0.0,0.0,0.0,0.0,0.0,0.0,0.0,0.0,0.0,0.0,0.0,0.0,0.0,0.0,0.0,0.0,0.0,0.0,0.0,0.0,0.0,0.0,0.0,0.0,0.0,0.0,0.0,0.0,0.0,0.0,0.0,0.0,0.0,0.0,0.0,0.0,0.0,0.0,0.0,0.0,0.0,0.0,0.0,0.0,0.0,0.0,0.0,0.0,0.0,0.0,0.0,0.0,0.0,0.0,0.0,0.0,0.0,0.0,0.0,0.0,0.0,0.0,0.0,0.0,0.0,0.0,0.0,0.0,0.0,0.0,0.0,0.0,0.0,0.0,0.0,0.0,0.0,0.0,0.0,0.0,0.0,0.0,0.0,0.0,0.0,0.0,0.0,0.0,0.0,0.0,0.0,0.0,0.0,0.0,0.0,0.0,0.0,0.0,0.0,0.0,0.0,0.0,0.0,0.0,0.0,0.0,0.0,0.0,0.0,0.0,0.0,0.0,0.0,0.0,0.0,0.0,0.0,0.0,0.0,0.0,0.0,0.0,0.0,0.0,0.0,0.0,0.0,0.0,0.0,0.0,0.0,0.0,0.0,0.0,0.0,0.0,0.0,0.0,0.0,0.0,0.0,0.0,0.0,0.0,0.0,0.0,0.0,0.0,0.0,0.0,0.0,0.0,0.0,0.0,0.0,0.0,0.0,0.0,0.0,0.0,0.0,0.0,0.0,0.0,0.0,0.0,0.0,0.0,0.0,0.0,0.0,0.0,0.0,0.0,0.0,0.0,0.0,0.0,0.0,0.0,0.0,0.0,0.0,0.0,0.0,0.0,0.0,0.0,0.0,0.0,0.0,0.0,0.0,0.0,0.0,0.0,0.0,0.0,0.0,0.0,0.0,0.0,0.0,0.0,0.0,0.0,0.0,0.0,0.0,0.0,0.0,0.0,0.0,0.0,0.0,0.0,0.0,0.0,0.0,0.0,0.0,0.0,0.0,0.0,0.0,0.0,0.0,0.0,0.0,0.0,0.0,0.0,0.0,0.0,0.0,0.0,0.0,0.0,0.0,0.0,0.0,0.0,0.0,0.0,0.0,0.0,0.0,0.0,0.0,0.0,0.0,0.0,0.0,0.0,0.0,0.0,0.0,0.0,0.0,0.0,0.0,0.0,0.0,0.0,0.0,0.0,0.0,0.0,0.0,0.0,0.0,0.0,0.0,0.0,0.0,0.0,0.0,0.0,0.0,0.0,0.0,0.0,0.0,0.0,0.0,0.0,0.0,0.0,0.0,0.0,0.0,0.0,0.0,0.0,0.0,0.0,0.0,0.0,0.0,0.0,0.0,0.0,0.0,0.0,0.0,0.0,0.0,0.0,0.0,0.0,0.0,0.0,0.0,0.0,0.0,0.0,0.0,0.0,0.0,0.0,0.0,0.0,0.0,0.0,0.0,0.0,0.0,0.0,0.0,0.0,0.0,0.0,0.0,0.0,0.0,0.0,0.0,0.0,0.0,0.0,0.0,0.0,0.0,0.0,0.0,0.0,0.0,0.0,0.0,0.0,0.0,0.0,0.0,0.0,0.0,0.0,0.0,0.0,0.0,0.0,0.0,0.0,0.0,0.0,0.0,0.0,0.0,0.0,0.0,0.0,0.0,0.0,0.0,0.0,0.0,0.0,0.0,0.0,0.0,0.0,0.0,0.0,0.0,0.0,0.0,0.0,0.0,0.0,0.0,0.0,0.0,0.0,0.0,0.0,0.0,0.0,0.0,0.0,0.0,0.0,0.0,0.0,0.0,0.0,0.0,0.0,0.0,0.0,0.0,0.0,0.0,0.0,0.0,0.0,0.0,0.0,0.0,0.0,0.0,0.0,0.0,0.0,0.0,0.0,0.0,0.0,0.0,0.0,0.0,0.0,0.0,0.0,0.0,0.0,0.0,0.0,0.0,0.0,0.0,0.0,0.0,0.0,0.0,0.0,0.0,0.0,0.0,0.0,0.0,0.0,0.0,0.0,0.0,0.0,0.0,0.0,0.0,0.0,0.0,0.0,0.0,0.0,0.0,0.0,0.0,0.0,0.0,0.0,0.0,0.0,0.0,0.0,0.0,0.0,0.0,0.0,0.0,0.0,0.0,0.0,0.0,0.0,0.0,0.0,0.0,0.0,0.0,0.0,0.0,0.0,0.0,0.0,0.0,0.0,0.0,0.0,0.0,0.0,0.0,0.0,0.0,0.0,0.0,0.0,0.0,0.0,0.0,0.0,0.0,0.0,0.0,0.0,0.0,0.0,0.0,0.0,0.0,0.0,0.0,0.0,0.0,0.0,0.0,0.0,0.0,0.0,0.0,0.0,0.0,0.0,0.0,0.0,0.0,0.0,0.0,0.0,0.0,0.0,0.0,0.0,0.0,0.0,0.0,0.0,0.0,0.0,0.0,0.0,0.0,0.0,0.0,0.0,0.0,0.0,0.0,0.0,0.0,0.0,0.0,0.0,0.0,0.0,0.0,0.0,0.0,0.0,0.0,0.0,0.0,0.0,0.0,0.0,0.0,0.0,0.0,0.0,0.0,0.0,0.0,0.0,0.0,0.0,0.0,0.0,0.0,0.0,0.0,0.0,0.0,0.0,0.0,0.0,0.0,0.0,0.0,0.0,0.0,0.0,0.0,0.0,0.0,0.0,0.0,0.0,0.0,0.0,0.0,0.0,0.0,0.0,0.0,0.0,0.0,0.0,0.0,-1.8765,0.0,0.0,0.0,0.0,0.0,0.0,0.0,0.0,0.0,0.0,0.0,0.0,0.0,0.0,0.0,0.0,0.0,0.0,0.0,0.0,0.0,0.0,0.0,0.0,0.0,0.0,0.0,0.0,0.0,0.0,0.0,0.0,0.0,0.0,0.0,0.0,0.0,0.0,0.0,0.0,0.0,0.0,0.0,0.0,0.0,0.0,0.0,0.0,0.0,0.0,0.0,0.0,0.0,0.0,0.0,0.0,0.0,0.0,0.0,0.0,0.0,0.0,0.0,0.0,0.0,0.0,0.0,0.0,0.0,0.0,0.0,0.0,0.0,0.0,0.0,0.0,0.0,0.0,0.0,0.0,0.0,0.0,0.0,0.0,0.0,0.0,0.0,0.0,0.0,0.0,0.0,0.0,0.0,0.0,0.0,0.0,0.0,0.0,0.0,0.0,0.0,0.0,0.0,0.0,0.0,0.0,0.0,0.0,0.0,0.0,-1.9723,-1.969,-1.9184,-1.8893,-1.8893,0.0,0.0,0.0,0.0,0.0,0.0,0.0,0.0,0.0,0.0,0.0,0.0,0.0,0.0,0.0,0.0,0.0,0.0,0.0,0.0,0.0,0.0,0.0,0.0,0.0,0.0,0.0,0.0,0.0,0.0,0.0,0.0,0.0,0.0,0.0,0.0,0.0,0.0,0.0,0.0,0.0,0.0,0.0,0.0,0.0,0.0,0.0,0.0,0.0,0.0,0.0,0.0,0.0,0.0,0.0,0.0,0.0,0.0,0.0,0.0,0.0,0.0,0.0,0.0,0.0,0.0,0.0,0.0,0.0,0.0,0.0,0.0,0.0,0.0,0.0,0.0,0.0,0.0,0.0,0.0,0.0,0.0,0.0,0.0,0.0,0.0,0.0,0.0,0.0,0.0,0.0,0.0,0.0,0.0,0.0,0.0,0.0,0.0,0.0,0.0,0.0,0.0,0.0,0.0,0.0,0.0,0.0,0.0,0.0,0.0,0.0,0.0,-1.9176,-1.8683,-1.8571,0.0,0.0,0.0,0.0,0.0,0.0,0.0,0.0,0.0,0.0,0.0,0.0,0.0,0.0,0.0,0.0,0.0,0.0,0.0,0.0,0.0,0.0,0.0,0.0,0.0,0.0,0.0,0.0,0.0,0.0,0.0,0.0,0.0,0.0,0.0,0.0,0.0,0.0,0.0,0.0,0.0,0.0,0.0,0.0,0.0,0.0,0.0,0.0,0.0,0.0,0.0,0.0,0.0,0.0,0.0,0.0,0.0,0.0,0.0,0.0,0.0,0.0,0.0,0.0,0.0,0.0,0.0,0.0,0.0,0.0,0.0,0.0,0.0,0.0,0.0,0.0,0.0,0.0,0.0,0.0,0.0,0.0,0.0,0.0,0.0,0.0,0.0,0.0,0.0,0.0,0.0,0.0,0.0,0.0,0.0,0.0,0.0,0.0,0.0,0.0,0.0,0.0,0.0,0.0,0.0,0.0,0.0,0.0,0.0,0.0,-1.9537,-2.0715,-1.9154,0.0,-1.7622,0.0,0.0,0.0,0.0,0.0,0.0,0.0,0.0,0.0,0.0,0.0,0.0,0.0,0.0,0.0,0.0,0.0,0.0,0.0,0.0,0.0,0.0,0.0,0.0,0.0,0.0,0.0,0.0,0.0,0.0,0.0,0.0,0.0,0.0,0.0,0.0,0.0,0.0,0.0,0.0,0.0,0.0,0.0,0.0,0.0,0.0,0.0,0.0,0.0,0.0,0.0,0.0,0.0,0.0,0.0,0.0,0.0,0.0,0.0,0.0,0.0,0.0,0.0,0.0,0.0,0.0,0.0,0.0,0.0,0.0,0.0,0.0,0.0,0.0,0.0,0.0,0.0,0.0,0.0,0.0,0.0,0.0,0.0,0.0,0.0,0.0,0.0,0.0,0.0,0.0,0.0,0.0,0.0,0.0,0.0,0.0,0.0,0.0,0.0,0.0,0.0,0.0,0.0,0.0,0.0,0.0,0.0,0.0,0.0,0.0,-1.9845,-1.9726,-1.8725,-1.7952,0.0,0.0,0.0,0.0,0.0,0.0,0.0,0.0,0.0,0.0,0.0,0.0,0.0,0.0,0.0,0.0,0.0,0.0,0.0,0.0,0.0,0.0,0.0,0.0,0.0,0.0,0.0,0.0,0.0,0.0,0.0,0.0,0.0,0.0,0.0,0.0,0.0,0.0,0.0,0.0,0.0,0.0,0.0,0.0,0.0,0.0,0.0,0.0,0.0,0.0,0.0,0.0,0.0,0.0,0.0,0.0,0.0,0.0,0.0,0.0,0.0,0.0,0.0,0.0,0.0,0.0,0.0,0.0,0.0,0.0,0.0,0.0,0.0,0.0,0.0,0.0,0.0,0.0,0.0,0.0,0.0,0.0,0.0,0.0,0.0,0.0,0.0,0.0,0.0,0.0,0.0,0.0,0.0,0.0,0.0,0.0,0.0,0.0,0.0,0.0,0.0,0.0,0.0,0.0,0.0,0.0,0.0,0.0,0.0,0.0,-1.9774,-1.9535,-1.8739,-1.8381,-1.8009,-1.7632,0.0,0.0,0.0,0.0,0.0,0.0,0.0,0.0,0.0,0.0,0.0,0.0,0.0,0.0,0.0,0.0,0.0,0.0,0.0,0.0,0.0,0.0,0.0,0.0,0.0,0.0,0.0,0.0,0.0,0.0,0.0,0.0,0.0,0.0,0.0,0.0,0.0,0.0,0.0,0.0,0.0,0.0,0.0,0.0,0.0,0.0,0.0,0.0,0.0,0.0,0.0,0.0,0.0,0.0,0.0,0.0,0.0,0.0,0.0,0.0,0.0,0.0,0.0,0.0,0.0,0.0,0.0,0.0,0.0,0.0,0.0,0.0,0.0,0.0,0.0,0.0,0.0,0.0,0.0,0.0,0.0,0.0,0.0,0.0,0.0,0.0,0.0,0.0,0.0,0.0,0.0,0.0,0.0,0.0,0.0,0.0,0.0,0.0,0.0,0.0,0.0,0.0,0.0,0.0,0.0,0.0,0.0,0.0,0.0,-1.914,-1.8282,-1.8271,-1.8213,-1.818,0.0,0.0,0.0,0.0,0.0,0.0,0.0,0.0,0.0,0.0,0.0,0.0,0.0,0.0,0.0,0.0,0.0,0.0,0.0,0.0,0.0,0.0,0.0,0.0,0.0,0.0,0.0,0.0,0.0,0.0,0.0,0.0,0.0,0.0,0.0,0.0,0.0,0.0,0.0,0.0,0.0,0.0,0.0,0.0,0.0,0.0,0.0,0.0,0.0,0.0,0.0,0.0,0.0,0.0,0.0,0.0,0.0,0.0,0.0,0.0,0.0,0.0,0.0,0.0,0.0,0.0,0.0,0.0,0.0,0.0,0.0,0.0,0.0,0.0,0.0,0.0,0.0,0.0,0.0,0.0,0.0,0.0,0.0,0.0,0.0,0.0,0.0,0.0,0.0,0.0,0.0,0.0,0.0,0.0,0.0,0.0,0.0,0.0,0.0,0.0,0.0,0.0,0.0,0.0,0.0,0.0,0.0,0.0,0.0,-1.8553,-1.7974,-1.8175,-1.9133,-1.8229,-1.8002,0.0,0.0,0.0,0.0,0.0,0.0,0.0,0.0,0.0,0.0,0.0,0.0,0.0,0.0,0.0,0.0,0.0,0.0,0.0,0.0,0.0,0.0,0.0,0.0,0.0,0.0,0.0,0.0,0.0,0.0,0.0,0.0,0.0,0.0,0.0,0.0,0.0,0.0,0.0,0.0,0.0,0.0,0.0,0.0,0.0,0.0,0.0,0.0,0.0,0.0,0.0,0.0,0.0,0.0,0.0,0.0,0.0,0.0,0.0,0.0,0.0,0.0,0.0,0.0,0.0,0.0,0.0,0.0,0.0,0.0,0.0,0.0,0.0,0.0,0.0,0.0,0.0,0.0,0.0,0.0,0.0,0.0,0.0,0.0,0.0,0.0,0.0,0.0,0.0,0.0,0.0,0.0,0.0,0.0,0.0,0.0,0.0,0.0,0.0,0.0,0.0,0.0,0.0,0.0,0.0,0.0,0.0,0.0,0.0,-1.7592,0.0,-1.8367,0.0,-1.8216,-1.799,0.0,0.0,0.0,0.0,0.0,0.0,0.0,0.0,0.0,0.0,0.0,0.0,0.0,0.0,0.0,0.0,0.0,0.0,0.0,0.0,0.0,0.0,0.0,0.0,0.0,0.0,0.0,0.0,0.0,0.0,0.0,0.0,0.0,0.0,0.0,0.0,0.0,0.0,0.0,0.0,0.0,0.0,0.0,0.0,0.0,0.0,0.0,0.0,0.0,0.0,0.0,0.0,0.0,0.0,0.0,0.0,0.0,0.0,0.0,0.0,0.0,0.0,0.0,0.0,0.0,0.0,0.0,0.0,0.0,0.0,0.0,0.0,0.0,0.0,0.0,0.0,0.0,0.0,0.0,0.0,0.0,0.0,0.0,0.0,0.0,0.0,0.0,0.0,0.0,0.0,0.0,0.0,0.0,0.0,0.0,0.0,0.0,0.0,0.0,0.0,0.0,0.0,0.0,0.0,0.0,0.0,0.0,0.0,-1.7605,-1.8152,-1.8669,-1.872,-1.8243,-1.818,-1.8161,0.0,0.0,0.0,0.0,0.0,0.0,0.0,0.0,0.0,0.0,0.0,0.0,0.0,0.0,0.0,0.0,0.0,0.0,0.0,0.0,0.0,0.0,0.0,0.0,0.0,0.0,0.0,0.0,0.0,0.0,0.0,0.0,0.0,0.0,0.0,0.0,0.0,0.0,0.0,0.0,0.0,0.0,0.0,0.0,0.0,0.0,0.0,0.0,0.0,0.0,0.0,0.0,0.0,0.0,0.0,0.0,0.0,0.0,0.0,0.0,0.0,0.0,0.0,0.0,0.0,0.0,0.0,0.0,0.0,0.0,0.0,0.0,0.0,0.0,0.0,0.0,0.0,0.0,0.0,0.0,0.0,0.0,0.0,0.0,0.0,0.0,0.0,0.0,0.0,0.0,0.0,0.0,0.0,0.0,0.0,0.0,0.0,0.0,0.0,0.0,0.0,0.0,0.0,0.0,0.0,0.0,0.0,0.0,0.0,-1.6941,-1.8264,-1.8858,-1.8538,-1.7966,-1.8329,0.0,0.0,0.0,0.0,0.0,0.0,0.0,0.0,0.0,0.0,0.0,0.0,0.0,0.0,0.0,0.0,0.0,0.0,0.0,0.0,0.0,0.0,0.0,0.0,0.0,0.0,0.0,0.0,0.0,0.0,0.0,0.0,0.0,0.0,0.0,0.0,0.0,0.0,0.0,0.0,0.0,0.0,0.0,0.0,0.0,0.0,0.0,0.0,0.0,0.0,0.0,0.0,0.0,0.0,0.0,0.0,0.0,0.0,0.0,0.0,0.0,0.0,0.0,0.0,0.0,0.0,0.0,0.0,0.0,0.0,0.0,0.0,0.0,0.0,0.0,0.0,0.0,0.0,0.0,0.0,0.0,0.0,0.0,0.0,0.0,0.0,0.0,0.0,0.0,0.0,0.0,0.0,0.0,0.0,0.0,0.0,0.0,0.0,0.0,0.0,0.0,0.0,0.0,0.0,0.0,0.0,0.0,0.0,0.0,-1.7609,-1.8918,-1.9467,-1.9123,-1.8399,-1.8534,-1.9624,0.0,0.0,0.0,0.0,0.0,0.0,0.0,0.0,0.0,0.0,0.0,0.0,0.0,0.0,0.0,0.0,0.0,0.0,0.0,0.0,0.0,0.0,0.0,0.0,0.0,0.0,0.0,0.0,0.0,0.0,0.0,0.0,0.0,0.0,0.0,0.0,0.0,0.0,0.0,0.0,0.0,0.0,0.0,0.0,0.0,0.0,0.0,0.0,0.0,0.0,0.0,0.0,0.0,0.0,0.0,0.0,0.0,0.0,0.0,0.0,0.0,0.0,0.0,0.0,0.0,0.0,0.0,0.0,0.0,0.0,0.0,0.0,0.0,0.0,0.0,0.0,0.0,0.0,0.0,0.0,0.0,0.0,0.0,0.0,0.0,0.0,0.0,0.0,0.0,0.0,0.0,0.0,0.0,0.0,0.0,0.0,0.0,0.0,0.0,0.0,0.0,0.0,0.0,0.0,0.0,0.0,0.0,0.0,-1.9745,-2.0504,-2.0562,-1.9932,-1.9396,-1.8858,0.0,0.0,0.0,0.0,0.0,0.0,0.0,0.0,0.0,0.0,0.0,0.0,0.0,0.0,0.0,0.0,0.0,0.0,0.0,0.0,0.0,0.0,0.0,0.0,0.0,0.0,0.0,0.0,0.0,0.0,0.0,0.0,0.0,0.0,0.0,0.0,0.0,0.0,0.0,0.0,0.0,0.0,0.0,0.0,0.0,0.0,0.0,0.0,0.0,0.0,0.0,0.0,0.0,0.0,0.0,0.0,0.0,0.0,0.0,0.0,0.0,0.0,0.0,0.0,0.0,0.0,0.0,0.0,0.0,0.0,0.0,0.0,0.0,0.0,0.0,0.0,0.0,0.0,0.0,0.0,0.0,0.0,0.0,0.0,0.0,0.0,0.0,0.0,0.0,0.0,0.0,0.0,0.0,0.0,0.0,0.0,0.0,0.0,0.0,0.0,0.0,0.0,0.0,0.0,0.0,0.0,0.0,0.0,0.0,-2.1563,-2.2597,-2.2598,-2.1474,-2.0667,-2.0182,0.0,0.0,0.0,0.0,0.0,0.0,0.0,0.0,0.0,0.0,0.0,0.0,0.0,0.0,0.0,0.0,0.0,0.0,0.0,0.0,0.0,0.0,0.0,0.0,0.0,0.0,0.0,0.0,0.0,0.0,0.0,0.0,0.0,0.0,0.0,0.0,0.0,0.0,0.0,0.0,0.0,0.0,0.0,0.0,0.0,0.0,0.0,0.0,0.0,0.0,0.0,0.0,0.0,0.0,0.0,0.0,0.0,0.0,0.0,0.0,0.0,0.0,0.0,0.0,0.0,0.0,0.0,0.0,0.0,0.0,0.0,0.0,0.0,0.0,0.0,0.0,0.0,0.0,0.0,0.0,0.0,0.0,0.0,0.0,0.0,0.0,0.0,0.0,0.0,0.0,0.0,0.0,0.0,0.0,0.0,0.0,0.0,0.0,0.0,0.0,0.0,0.0,0.0,0.0,0.0,0.0,0.0,0.0,-2.1091,-2.2987,-2.3726,-2.3916,-2.3509,-2.2354,-2.1154,0.0,0.0,0.0,0.0,0.0,0.0,0.0,0.0,0.0,0.0,0.0,0.0,0.0,0.0,0.0,0.0,0.0,0.0,0.0,0.0,0.0,0.0,0.0,0.0,0.0,0.0,0.0,0.0,0.0,0.0,0.0,0.0,0.0,0.0,0.0,0.0,0.0,0.0,0.0,0.0,0.0,0.0,0.0,0.0,0.0,0.0,0.0,0.0,0.0,0.0,0.0,0.0,0.0,0.0,0.0,0.0,0.0,0.0,0.0,0.0,0.0,0.0,0.0,0.0,0.0,0.0,0.0,0.0,0.0,0.0,0.0,0.0,0.0,0.0,0.0,0.0,0.0,0.0,0.0,0.0,0.0,0.0,0.0,0.0,0.0,0.0,0.0,0.0,0.0,0.0,0.0,0.0,0.0,0.0,0.0,0.0,0.0,0.0,0.0,0.0,0.0,0.0,0.0,0.0,0.0,0.0,0.0,0.0,-2.1948,-2.413,-2.4353,-2.4759,-2.5348,-2.3885,-2.1868,0.0,0.0,0.0,0.0,0.0,0.0,0.0,0.0,0.0,0.0,0.0,0.0,0.0,0.0,0.0,0.0,0.0,0.0,0.0,0.0,0.0,0.0,0.0,0.0,0.0,0.0,0.0,0.0,0.0,0.0,0.0,0.0,0.0,0.0,0.0,0.0,0.0,0.0,0.0,0.0,0.0,0.0,0.0,0.0,0.0,0.0,0.0,0.0,0.0,0.0,0.0,0.0,0.0,0.0,0.0,0.0,0.0,0.0,0.0,0.0,0.0,0.0,0.0,0.0,0.0,0.0,0.0,0.0,0.0,0.0,0.0,0.0,0.0,0.0,0.0,0.0,0.0,0.0,0.0,0.0,0.0,0.0,0.0,0.0,0.0,0.0,0.0,0.0,0.0,0.0,0.0,0.0,0.0,0.0,0.0,0.0,0.0,0.0,0.0,0.0,0.0,0.0,0.0,0.0,0.0,0.0,0.0,0.0,-2.3025,-2.5197,-2.5743,-2.5539,-2.4518,-2.3275,-2.211,0.0,0.0,0.0,0.0,0.0,0.0,0.0,0.0,0.0,0.0,0.0,0.0,0.0,0.0,0.0,0.0,0.0,0.0,0.0,0.0,0.0,0.0,0.0,0.0,0.0,0.0,0.0,0.0,0.0,0.0,0.0,0.0,0.0,0.0,0.0,0.0,0.0,0.0,0.0,0.0,0.0,0.0,0.0,0.0,0.0,0.0,0.0,0.0,-1.4164,0.0,0.0,0.0,0.0,0.0,0.0,0.0,0.0,0.0,0.0,0.0,0.0,0.0,0.0,0.0,0.0,0.0,0.0,0.0,0.0,0.0,0.0,0.0,0.0,0.0,0.0,0.0,0.0,0.0,0.0,0.0,0.0,0.0,0.0,0.0,0.0,0.0,0.0,0.0,0.0,0.0,0.0,0.0,0.0,0.0,0.0,0.0,0.0,0.0,0.0,0.0,0.0,0.0,0.0,0.0,0.0,0.0,0.0,0.0,-2.3424,-2.4887,-2.5034,-2.4932,-2.4541,-2.3048,-2.1771,0.0,0.0,0.0,0.0,0.0,0.0,0.0,0.0,0.0,0.0,0.0,0.0,0.0,0.0,0.0,0.0,0.0,0.0,0.0,0.0,0.0,0.0,0.0,0.0,0.0,0.0,0.0,0.0,0.0,0.0,0.0,0.0,0.0,0.0,0.0,0.0,0.0,0.0,0.0,0.0,0.0,0.0,0.0,0.0,0.0,0.0,0.0,0.0,0.0,0.0,0.0,0.0,0.0,0.0,0.0,0.0,0.0,0.0,0.0,0.0,0.0,0.0,0.0,0.0,0.0,0.0,0.0,0.0,0.0,0.0,0.0,0.0,0.0,0.0,0.0,0.0,0.0,0.0,0.0,0.0,0.0,0.0,0.0,0.0,0.0,0.0,0.0,0.0,0.0,0.0,0.0,0.0,0.0,0.0,0.0,0.0,0.0,0.0,0.0,0.0,0.0,0.0,0.0,0.0,0.0,0.0,0.0,-2.2855,-2.341,-2.4233,-2.3926,-2.4011,-2.4505,-2.3073,-2.156,-2.011,0.0,0.0,0.0,0.0,0.0,0.0,0.0,0.0,0.0,0.0,0.0,0.0,0.0,0.0,0.0,0.0,0.0,0.0,0.0,0.0,0.0,0.0,0.0,0.0,0.0,0.0,0.0,0.0,0.0,0.0,0.0,0.0,0.0,0.0,0.0,0.0,0.0,0.0,-1.3872,-1.4128,0.0,0.0,0.0,0.0,0.0,0.0,0.0,0.0,-1.3594,0.0,0.0,0.0,0.0,0.0,0.0,0.0,0.0,0.0,0.0,0.0,0.0,0.0,0.0,0.0,0.0,0.0,0.0,0.0,0.0,0.0,0.0,0.0,0.0,0.0,0.0,0.0,0.0,0.0,0.0,0.0,0.0,0.0,0.0,0.0,0.0,0.0,0.0,0.0,0.0,0.0,0.0,0.0,0.0,0.0,0.0,0.0,0.0,0.0,0.0,0.0,0.0,0.0,0.0,0.0,0.0,-2.3904,-2.2972,-2.3225,-2.4802,-2.4826,-2.4047,-2.2616,-2.3369,-2.2658,-2.0376,0.0,0.0,0.0,0.0,0.0,0.0,0.0,0.0,0.0,0.0,0.0,0.0,0.0,0.0,0.0,0.0,0.0,0.0,0.0,0.0,0.0,0.0,0.0,0.0,0.0,0.0,0.0,0.0,0.0,0.0,0.0,0.0,0.0,0.0,0.0,0.0,0.0,0.0,0.0,-1.4782,-1.5359,0.0,0.0,0.0,0.0,0.0,0.0,0.0,0.0,-1.3951,0.0,0.0,0.0,0.0,0.0,0.0,0.0,0.0,0.0,0.0,0.0,0.0,0.0,0.0,0.0,0.0,0.0,0.0,0.0,0.0,0.0,0.0,0.0,0.0,0.0,0.0,0.0,0.0,0.0,0.0,0.0,0.0,0.0,0.0,0.0,0.0,0.0,0.0,0.0,0.0,0.0,0.0,0.0,0.0,0.0,0.0,0.0,0.0,0.0,0.0,0.0,0.0,0.0,0.0,0.0,-2.3137,-2.2967,-2.3272,-2.4148,-2.3708,-2.322,-2.2792,-2.261,-2.2265,0.0,0.0,0.0,0.0,0.0,0.0,0.0,0.0,0.0,0.0,0.0,0.0,0.0,0.0,0.0,0.0,0.0,0.0,0.0,0.0,0.0,0.0,0.0,0.0,0.0,0.0,0.0,0.0,0.0,0.0,0.0,0.0,0.0,0.0,0.0,0.0,0.0,0.0,0.0,0.0,-1.5195,-1.5661,-1.5435,0.0,0.0,0.0,0.0,0.0,0.0,-1.4443,-1.4443,0.0,0.0,0.0,0.0,0.0,0.0,0.0,0.0,0.0,0.0,0.0,0.0,0.0,0.0,0.0,0.0,0.0,0.0,0.0,0.0,0.0,0.0,0.0,0.0,0.0,0.0,0.0,0.0,0.0,0.0,0.0,0.0,0.0,0.0,0.0,0.0,0.0,0.0,0.0,0.0,0.0,0.0,0.0,0.0,0.0,0.0,0.0,0.0,0.0,0.0,0.0,0.0,0.0,0.0,0.0,-2.2117,-2.2701,-2.3154,-2.3447,-2.2739,-2.2579,-2.3161,-2.2201,-2.195,0.0,0.0,0.0,0.0,0.0,0.0,0.0,0.0,0.0,0.0,0.0,0.0,0.0,0.0,0.0,0.0,0.0,0.0,0.0,0.0,0.0,0.0,0.0,0.0,0.0,0.0,0.0,0.0,0.0,0.0,0.0,0.0,0.0,0.0,0.0,0.0,0.0,0.0,0.0,0.0,0.0,-1.6129,-1.6388,-1.6001,0.0,0.0,0.0,0.0,-1.5185,-1.5254,0.0,0.0,0.0,0.0,0.0,0.0,0.0,0.0,0.0,0.0,0.0,0.0,0.0,0.0,0.0,0.0,0.0,0.0,0.0,0.0,0.0,0.0,0.0,0.0,0.0,0.0,0.0,0.0,0.0,0.0,0.0,0.0,0.0,0.0,0.0,0.0,0.0,0.0,0.0,0.0,0.0,0.0,0.0,0.0,0.0,0.0,0.0,0.0,0.0,0.0,0.0,0.0,0.0,0.0,0.0,0.0,-2.1542,-2.1783,-2.2424,-2.3439,-2.3415,-2.2951,-2.2215,-2.3217,-2.2973,0.0,0.0,0.0,0.0,0.0,0.0,0.0,0.0,0.0,0.0,0.0,0.0,0.0,0.0,0.0,0.0,0.0,0.0,0.0,0.0,0.0,0.0,0.0,0.0,0.0,0.0,0.0,0.0,0.0,0.0,0.0,0.0,0.0,0.0,0.0,0.0,0.0,0.0,0.0,0.0,0.0,-1.7566,-1.5725,-1.6084,-1.6426,0.0,0.0,-1.6085,-1.6414,-1.6836,0.0,0.0,0.0,0.0,0.0,0.0,0.0,0.0,0.0,0.0,0.0,0.0,0.0,0.0,0.0,0.0,0.0,0.0,0.0,0.0,0.0,0.0,0.0,0.0,0.0,0.0,0.0,0.0,0.0,0.0,0.0,0.0,0.0,0.0,0.0,0.0,0.0,0.0,0.0,0.0,0.0,0.0,0.0,0.0,0.0,0.0,0.0,0.0,0.0,0.0,0.0,0.0,0.0,0.0,0.0,-2.0974,-2.1509,-2.2223,-2.3157,-2.4279,-2.3818,-2.3416,-2.3244,-2.3235,-2.2611,0.0,0.0,0.0,0.0,0.0,0.0,0.0,0.0,0.0,0.0,0.0,0.0,0.0,0.0,0.0,0.0,0.0,0.0,0.0,0.0,0.0,0.0,0.0,0.0,0.0,0.0,0.0,0.0,0.0,0.0,0.0,0.0,0.0,0.0,0.0,0.0,0.0,0.0,0.0,0.0,0.0,0.0,-1.6893,-1.7177,0.0,0.0,0.0,-1.7236,-1.7399,0.0,0.0,0.0,0.0,0.0,0.0,0.0,0.0,0.0,0.0,0.0,0.0,0.0,0.0,0.0,0.0,0.0,0.0,0.0,0.0,0.0,0.0,0.0,0.0,0.0,0.0,0.0,0.0,0.0,0.0,0.0,0.0,0.0,0.0,0.0,0.0,0.0,0.0,0.0,0.0,0.0,0.0,0.0,0.0,0.0,0.0,0.0,0.0,0.0,0.0,0.0,0.0,0.0,0.0,0.0,0.0,0.0,-2.1521,-2.2681,-2.3866,-2.4933,-2.4264,-2.3986,-2.4163,-2.3341,0.0,0.0,0.0,0.0,0.0,0.0,0.0,0.0,0.0,0.0,0.0,0.0,0.0,0.0,0.0,0.0,0.0,0.0,0.0,0.0,0.0,0.0,0.0,0.0,0.0,0.0,0.0,-1.6205,0.0,0.0,0.0,0.0,0.0,0.0,0.0,0.0,0.0,0.0,0.0,0.0,0.0,0.0,-1.7187,-1.7595,-1.8046,-1.833,0.0,0.0,-1.8291,-1.8184,-1.835,-1.8198,0.0,0.0,0.0,0.0,0.0,0.0,0.0,0.0,0.0,0.0,0.0,0.0,0.0,0.0,0.0,0.0,0.0,0.0,0.0,0.0,0.0,0.0,0.0,0.0,0.0,0.0,0.0,0.0,0.0,0.0,0.0,0.0,0.0,0.0,0.0,0.0,0.0,0.0,0.0,0.0,0.0,0.0,0.0,0.0,0.0,0.0,0.0,0.0,0.0,0.0,0.0,0.0,0.0,0.0,-2.1414,-2.1534,-2.2681,-2.3866,-2.4957,-2.4933,-2.4696,-2.4197,-2.3985,-2.2902,0.0,0.0,0.0,0.0,0.0,0.0,0.0,0.0,0.0,0.0,0.0,0.0,0.0,0.0,0.0,0.0,0.0,0.0,0.0,0.0,0.0,0.0,0.0,0.0,0.0,0.0,0.0,0.0,0.0,0.0,0.0,0.0,0.0,0.0,0.0,0.0,0.0,0.0,0.0,0.0,0.0,-1.7614,-1.681,-1.8131,-1.9245,0.0,-1.9199,-1.9062,-1.8627,-1.9231,-1.9203,-1.7572,0.0,0.0,0.0,0.0,0.0,0.0,0.0,0.0,0.0,0.0,0.0,0.0,0.0,0.0,0.0,0.0,0.0,0.0,0.0,0.0,0.0,0.0,0.0,0.0,0.0,0.0,0.0,0.0,0.0,0.0,0.0,0.0,0.0,0.0,0.0,0.0,0.0,0.0,0.0,0.0,0.0,0.0,0.0,0.0,0.0,0.0,0.0,0.0,0.0,0.0,0.0,0.0,0.0,-2.1439,-2.1521,-2.3313,-2.4779,-2.5847,-2.5908,-2.549,-2.4607,-2.419,-2.2786,0.0,0.0,0.0,0.0,0.0,0.0,0.0,0.0,0.0,0.0,0.0,0.0,0.0,0.0,0.0,0.0,0.0,0.0,0.0,0.0,0.0,0.0,0.0,0.0,0.0,0.0,0.0,0.0,-1.6471,-1.6212,-1.5691,0.0,0.0,0.0,0.0,0.0,0.0,0.0,0.0,0.0,0.0,-1.7668,-1.7805,-1.8894,0.0,0.0,-1.9668,-1.993,-2.0581,-2.0195,-1.976,-1.9542,-1.8862,0.0,0.0,0.0,0.0,0.0,0.0,0.0,0.0,0.0,0.0,0.0,0.0,0.0,0.0,0.0,0.0,0.0,0.0,0.0,0.0,0.0,0.0,0.0,0.0,0.0,0.0,0.0,0.0,0.0,0.0,0.0,0.0,0.0,0.0,0.0,0.0,0.0,0.0,0.0,0.0,0.0,0.0,0.0,0.0,0.0,0.0,0.0,0.0,0.0,0.0,0.0,0.0,-2.1274,-2.1481,-2.369,-2.5347,-2.6474,-2.6323,-2.5762,-2.4845,-2.4086,-2.2585,0.0,0.0,0.0,0.0,0.0,0.0,0.0,0.0,0.0,0.0,0.0,0.0,0.0,0.0,0.0,0.0,0.0,0.0,0.0,0.0,0.0,0.0,0.0,0.0,0.0,0.0,0.0,0.0,-1.6693,-1.6194,-1.541,0.0,0.0,0.0,0.0,0.0,0.0,0.0,0.0,0.0,0.0,-1.7779,-1.8311,-1.9366,-2.0107,-2.0107,-1.999,-2.0224,-2.106,-2.0581,-2.0153,-2.0289,0.0,0.0,0.0,0.0,0.0,0.0,0.0,0.0,0.0,0.0,0.0,0.0,0.0,0.0,0.0,0.0,0.0,0.0,0.0,0.0,0.0,0.0,0.0,0.0,0.0,0.0,0.0,-1.7333,0.0,0.0,-1.8949,0.0,0.0,0.0,0.0,0.0,0.0,0.0,0.0,0.0,0.0,0.0,0.0,0.0,0.0,0.0,0.0,0.0,0.0,0.0,0.0,0.0,0.0,-2.0901,-2.1521,-2.3647,-2.5335,-2.6411,-2.5933,-2.536,-2.4775,-2.371,-2.233,-2.0679,0.0,0.0,0.0,0.0,0.0,0.0,0.0,0.0,0.0,0.0,0.0,0.0,0.0,0.0,0.0,0.0,0.0,0.0,0.0,0.0,0.0,0.0,0.0,0.0,0.0,0.0,-1.6683,-1.6513,-1.6042,0.0,0.0,0.0,0.0,0.0,0.0,0.0,0.0,0.0,0.0,-1.6614,-1.7989,-1.7954,-1.945,-2.0546,-2.0586,-2.0185,-1.9785,-1.9544,-2.017,-2.0352,0.0,0.0,0.0,0.0,0.0,0.0,0.0,0.0,0.0,0.0,0.0,0.0,0.0,0.0,0.0,0.0,0.0,0.0,0.0,0.0,0.0,0.0,0.0,0.0,0.0,0.0,0.0,-1.863,-1.8965,0.0,0.0,0.0,0.0,0.0,0.0,0.0,0.0,0.0,0.0,0.0,-1.957,-2.0673,0.0,0.0,0.0,0.0,0.0,0.0,0.0,0.0,0.0,0.0,0.0,0.0,-2.0901,-2.1574,-2.3326,-2.4632,-2.5347,-2.5184,-2.482,-2.428,-2.3496,-2.1992,-1.9648,0.0,0.0,0.0,0.0,0.0,0.0,0.0,0.0,0.0,0.0,0.0,0.0,0.0,0.0,0.0,0.0,0.0,0.0,0.0,0.0,0.0,0.0,0.0,0.0,0.0,-1.7917,0.0,0.0,0.0,0.0,0.0,0.0,0.0,0.0,0.0,0.0,0.0,-1.5467,-1.5954,-1.7176,-1.8207,-1.8761,-1.9579,-2.0234,0.0,0.0,0.0,0.0,0.0,0.0,0.0,0.0,0.0,0.0,0.0,0.0,0.0,0.0,-1.9868,-1.7875,-1.6894,-1.6157,-1.5317,0.0,0.0,0.0,0.0,0.0,0.0,0.0,0.0,0.0,0.0,0.0,0.0,0.0,0.0,-2.0029,-2.0745,-2.0288,0.0,0.0,0.0,0.0,0.0,0.0,0.0,0.0,-2.0919,-2.1154,-2.1006,-2.2097,-2.2339,0.0,-2.1763,-2.1325,0.0,0.0,0.0,0.0,0.0,0.0,0.0,0.0,-2.0693,-2.1534,-2.315,-2.4268,-2.4782,-2.46,-2.4356,-2.3991,-2.3032,-2.1603,-1.966,-1.8155,-1.7102,0.0,0.0,0.0,0.0,0.0,0.0,0.0,0.0,0.0,0.0,0.0,0.0,0.0,0.0,0.0,0.0,0.0,0.0,0.0,0.0,0.0,0.0,0.0,-1.7865,0.0,0.0,0.0,0.0,0.0,0.0,0.0,0.0,0.0,-1.4608,-1.5303,-1.6161,-1.7028,-1.792,-1.8711,-1.9404,0.0,0.0,0.0,0.0,0.0,0.0,0.0,-2.0263,-2.129,-2.0754,-2.0135,-1.9944,-1.9986,-1.9941,-1.9636,0.0,0.0,-1.849,-1.7462,-1.6606,-1.5789,-1.5302,-1.4757,-1.3985,-1.5172,-1.6314,0.0,0.0,0.0,0.0,0.0,0.0,0.0,0.0,-2.0742,-2.1459,0.0,-2.1276,0.0,0.0,0.0,0.0,-1.9956,-2.0999,0.0,0.0,-2.339,-2.3703,-2.3206,-2.3813,-2.3832,-2.3377,-2.33,-2.2707,-2.1614,-1.9867,0.0,0.0,0.0,0.0,0.0,0.0,-2.0376,-2.1531,-2.3125,-2.4217,-2.4675,-2.423,-2.3966,-2.3916,-2.2372,-2.127,-2.0679,-1.956,-1.823,-1.6638,-1.6994,0.0,0.0,0.0,0.0,0.0,0.0,0.0,0.0,0.0,0.0,0.0,0.0,0.0,0.0,0.0,0.0,0.0,0.0,0.0,0.0,-1.7699,0.0,0.0,0.0,0.0,0.0,0.0,0.0,0.0,0.0,0.0,-1.5527,-1.6219,-1.7048,-1.7939,0.0,0.0,0.0,0.0,-2.0586,-2.0595,-2.0215,-1.9951,-1.9951,-2.0693,-2.1141,-2.0692,0.0,0.0,-1.9725,-1.9359,-1.9138,-1.8271,-1.8857,-1.9416,-1.9757,-1.8614,-1.748,-1.6875,-1.5707,-1.5029,-1.5357,-1.6456,-1.7589,-2.4958,0.0,0.0,0.0,0.0,-2.2004,-2.2523,-2.3626,-2.3215,-2.3015,-2.2962,-2.2559,0.0,0.0,0.0,0.0,0.0,0.0,-2.2349,-2.2908,-2.3651,-2.4117,-2.4318,-2.4659,-2.4718,-2.4563,-2.3762,-2.321,-2.2813,-2.1069,-1.9768,-1.8977,0.0,0.0,0.0,0.0,-2.0993,-2.2058,-2.2907,-2.3434,-2.3584,-2.3434,-2.3358,-2.3346,-2.2146,-2.123,-2.0704,-1.961,-1.8607,-1.7777,-1.7838,0.0,0.0,0.0,0.0,0.0,0.0,0.0,0.0,0.0,0.0,0.0,0.0,0.0,0.0,0.0,0.0,0.0,0.0,0.0,-1.76,-1.7501,-1.7451,0.0,0.0,0.0,0.0,0.0,0.0,0.0,0.0,0.0,-1.7203,-1.748,-1.7925,0.0,0.0,-1.9443,-1.9853,-2.0019,-2.0215,-2.0556,-2.0507,0.0,-2.0419,-2.0115,-2.0062,-2.0514,-2.0921,-2.0984,-2.0332,-2.0218,-2.0165,-1.9863,-1.9402,-1.9136,-1.9173,-1.8423,-1.7184,-1.5694,-1.5111,-1.5079,-1.535,-1.6458,-1.7663,-2.6437,-2.4707,-2.3149,-2.2884,-2.3469,-2.314,-2.3675,-2.4862,-2.4476,-2.4446,-2.459,-2.4025,-2.357,-2.317,-2.2399,0.0,0.0,0.0,-2.3378,-2.4098,-2.4469,-2.4933,-2.5443,-2.5352,-2.5174,-2.496,-2.4055,-2.3528,-2.3282,-2.2185,-2.1078,-2.0012,0.0,0.0,-2.0142,-2.0725,-2.1418,-2.2284,-2.2819,-2.3095,-2.3095,-2.3095,-2.3095,-2.307,-2.2071,-2.1358,-2.1018,-1.9924,-1.907,-1.8555,-1.8303,-1.8131,0.0,0.0,0.0,0.0,0.0,0.0,0.0,0.0,0.0,0.0,0.0,-1.6328,-1.5825,0.0,0.0,0.0,-1.7363,-1.7657,-1.7723,-1.7903,0.0,0.0,0.0,0.0,0.0,0.0,0.0,-1.6108,-1.6727,-1.745,-1.814,-1.8408,-1.8769,-1.9453,-1.9531,-1.9687,-2.0117,0.0,-2.0264,-2.0566,-2.0245,-1.9962,-1.9952,-1.9544,-1.9507,-2.0478,-2.0615,-2.0615,-2.0605,-2.0284,-1.9962,-1.9844,-1.9076,-1.8189,-1.777,-1.724,-1.6596,-1.5312,-1.4841,-1.4734,-1.4823,-1.6141,-1.7504,-2.7499,-2.6848,-2.5136,-2.4296,-2.4117,-2.413,-2.4443,-2.4913,-2.4958,-2.564,-2.6666,-2.5441,-2.5244,-2.5792,-2.4039,0.0,-2.3321,-2.3847,-2.4657,-2.5661,-2.5661,-2.5984,-2.6461,-2.5824,-2.5285,-2.4795,-2.4217,-2.3622,-2.3108,-2.3083,-2.2581,-2.1619,-2.0589,-2.0288,-2.0767,-2.1307,-2.182,-2.2372,-2.2857,-2.3095,-2.3095,-2.3095,-2.3053,-2.302,-2.2033,-2.1455,-2.1393,-2.0376,-1.956,-1.902,-1.8517,-1.819,-1.799,0.0,0.0,0.0,0.0,0.0,0.0,0.0,0.0,0.0,0.0,0.0,0.0,0.0,0.0,0.0,-1.746,0.0,-1.8097,-1.8559,0.0,0.0,0.0,-1.674,-1.5962,-1.6241,-1.6378,-1.6235,0.0,0.0,-1.8539,-1.9033,-1.9453,-1.9902,-1.9933,-2.0107,-2.0546,-2.0595,-2.0566,-2.044,-1.9638,-1.9045,-1.9125,-1.9149,-1.9543,-2.043,-2.0615,-2.0566,-2.0411,-1.9717,-1.9085,-1.8877,-1.794,-1.6927,-1.5861,-1.5756,-1.5572,-1.5508,-1.4754,-1.4124,-1.4398,-1.582,-1.7131,-2.8538,-2.7776,-2.7348,-2.6388,-2.5222,-2.5222,-2.5536,-2.6084,-2.6109,-2.6034,-2.5884,-2.5547,-2.5291,-2.5076,-2.4601,-2.4621,-2.5021,-2.5159,-2.5586,-2.626,-2.6285,-2.6361,-2.6436,-2.546,-2.4901,-2.4738,-2.3785,-2.3233,-2.3108,-2.3095,-2.297,-2.2719,-2.2443,-2.1995,-2.1343,-2.1832,-2.2355,-2.2895,-2.3045,-2.3095,-2.3095,-2.3095,-2.2907,-2.251,-2.1845,-2.1307,-2.0905,-2.0188,-1.956,-1.902,-1.8872,-1.8593,-1.8166,-1.6951,0.0,0.0,0.0,0.0,0.0,0.0,0.0,0.0,0.0,-1.6327,-1.4963,0.0,-1.6441,0.0,-1.7521,-1.7965,-1.7424,-1.7472,0.0,0.0,-1.7096,-1.6884,-1.7254,-1.7033,-1.692,-1.7069,-1.7266,-1.7832,-1.8994,-1.9219,-1.957,-2.0331,-2.0449,-2.0488,-2.0605,-2.0615,-2.0274,-1.9559,-1.9164,-1.9006,-1.9006,-1.9726,-2.0284,-2.0566,-2.0615,-2.0333,-1.952,-1.9204,-1.8718,-1.7859,-1.6838,-1.6067,-1.5745,-1.5054,-1.4531,-1.4489,-1.425,-1.437,-1.5137,-1.5745,-1.6314,-2.876,-2.8109,-2.8109,-2.7557,-2.6703,-2.6452,-2.6575,-2.6839,-2.6612,-2.6311,-2.6009,-2.6009,-2.5858,-2.5561,-2.5548,-2.5699,-2.5996,-2.6009,-2.6185,-2.6487,-2.6487,-2.6487,-2.6461,-2.5573,-2.5046,-2.4763,-2.391,-2.3358,-2.312,-2.3095,-2.3095,-2.3095,-2.3095,-2.2794,-2.2259,-2.2523,-2.2807,-2.3095,-2.3095,-2.3095,-2.3095,-2.2869,-2.2594,-2.228,-2.1571,-2.088,-2.03,-1.9761,-1.9208,-1.8657,-1.842,-1.8254,-1.8179,-1.6996,-1.6221,0.0,0.0,0.0,0.0,0.0,0.0,0.0,0.0,0.0,0.0,0.0,-1.6606,-1.6882,-1.7892,-1.8351,-1.7821,-1.7984,-1.7993,-1.7672,-1.7338,-1.7265,-1.7582,-1.7386,-1.7318,-1.7611,-1.7822,-1.8281,-1.917,-1.9453,-1.9736,-2.0205,-2.0283,-2.0352,-2.0489,-2.0245,-1.9678,-1.9076,-1.8181,-1.7738,-1.8149,-1.9155,-2.0089,-2.0489,-2.0615,-2.0245,-1.9195,-1.8559,-1.79,-1.6764,-1.5703,-1.4977,-1.4977,-1.4531,-1.4055,-1.3921,-1.3895,-1.4136,-1.4824,-1.5379,-1.591,-2.8712,-2.8323,-2.8323,-2.8323,-2.8285,-2.7733,-2.7457,-2.7344,-2.6839,-2.6562,-2.6487,-2.6487,-2.6487,-2.6487,-2.6487,-2.6487,-2.6487,-2.6487,-2.6487,-2.6487,-2.6487,-2.6487,-2.6461,-2.5862,-2.5322,-2.4788,-2.4268,-2.3703,-2.3108,-2.3095,-2.3095,-2.3095,-2.3095,-2.3095,-2.3095,-2.3095,-2.3095,-2.3095,-2.3095,-2.307,-2.2995,-2.2518,-2.2246,-2.2071,-2.1104,-2.0314,-1.9723,-1.9246,-1.8744,-1.8229,-1.7844,-1.7753,-1.8057,-1.6978,-1.6133,0.0,-1.5524,0.0,0.0,0.0,0.0,0.0,0.0,0.0,0.0,-1.6434,-1.7024,-1.7451,-1.848,-1.8968,-1.8664,-1.8999,-1.8914,-1.8026,-1.7802,-1.7674,-1.7491,-1.7461,-1.7607,-1.7969,-1.8305,-1.873,-1.9219,-1.9609,-1.9834,-1.9922,-1.9951,-2.0039,-2.0216,-1.952,-1.8837,-1.873,-1.7147,-1.6601,-1.7334,-1.847,-1.9599,-2.0411,-2.0411,-2.0001,-1.8917,-1.7819,-1.6723,-1.5703,-1.4776,-1.4153,-1.4041,-1.4021,-1.3921,-1.3606,-1.3547,-1.3681,-1.4053,-1.4726,-1.5411,-2.9566,-2.9478,-2.9478,-2.9478,-2.9428,-2.8875,-2.836,-2.7908,-2.7404,-2.6914,-2.6499,-2.6487,-2.6487,-2.6487,-2.6487,-2.6487,-2.6487,-2.6487,-2.6487,-2.6487,-2.6487,-2.6487,-2.6449,-2.5896,-2.5322,-2.4775,-2.4268,-2.3672,-2.3095,-2.3095,-2.3095,-2.3095,-2.3095,-2.3095,-2.3095,0.0,0.0,0.0,-2.3095,-2.2882,-2.2456,-2.2372,-2.1882,-2.1031,-2.0339,0.0,-1.9183,-1.9058,-1.8757,-1.8242,-1.8521,0.0,0.0,0.0,0.0,0.0,0.0,0.0,0.0,0.0,0.0,0.0,-1.7739,-1.7338,-1.6475,-1.7679,-1.8393,-1.8116,-1.902,-1.9377,-1.8741,-1.8573,-1.8497,-1.8459,-1.7873,-1.7586,-1.7832,-1.7891,-1.793,-1.7998,-1.8086,-1.8437,-1.915,-1.9365,-1.9541,-1.9814,-1.9902,-1.9805,-1.9541,-1.8761,-1.7899,-1.7262,-1.7032,-1.7041,-1.7261,-1.8988,-2.0245,-2.0489,-1.9805,-1.8957,-1.7819,-1.6764,-1.5662,-1.4643,-1.425,-1.3995,-1.3774,-1.3686,-1.3593,-1.3347,-1.3293,-1.338,-1.3626,-1.3844,-1.407,-2.9779,-2.9779,-2.9779,-2.9779,0.0,-2.9478,-2.9189,-2.8888,-2.8047,-2.7381,-2.6889,-2.6612,-2.6487,-2.6487,-2.6487,-2.6487,-2.6487,-2.6487,-2.6487,-2.6487,-2.6487,-2.6487,-2.6474,-2.5875,-2.5322,-2.4775,-2.4268,-2.3672,-2.312,-2.3095,-2.3095,-2.3095,-2.3095,-2.3095,-2.3095,-2.3095,-2.3095,-2.3095,-2.2832,-2.2556,-2.2297,-2.1782,-2.127,-2.0704,-2.01,0.0,0.0,0.0,0.0,0.0,0.0,0.0,0.0,0.0,0.0,-1.6565,-1.6543,-1.6773,-1.73,-1.7315,-1.7566,-1.813,-1.8455,-1.8343,-1.7779,-1.8519,-1.9108,-1.9434,-1.995,-1.9971,-1.9321,-1.9091,-1.8814,-1.8349,-1.7942,-1.7793,-1.7969,-1.8008,-1.8008,-1.8037,-1.8193,-1.8506,-1.887,-1.917,-1.9258,-1.9251,-1.9241,-1.9104,-1.8712,-1.835,-1.7808,-1.7154,-1.7666,-1.8149,-1.827,-1.9471,-2.0362,-1.9923,-1.9362,-1.835,-1.6805,-1.6067,-1.5294,-1.4192,-1.3868,-1.3768,-1.3467,-1.3387,-1.33,-1.3066,-1.3018,-1.3019,-1.3186,-1.332,-1.3427,-2.9779,-2.9779,-2.9779,-2.9779,-2.9779,-2.9779,-2.9741,-2.9578,0.0,0.0,0.0,-2.6839,-2.6587,-2.6487,-2.6487,-2.6487,-2.6487,-2.6487,-2.6487,-2.6487,-2.6487,-2.6487,-2.6461,-2.5862,-2.5322,-2.4775,-2.4268,-2.3703,-2.312,-2.3095,-2.3095,-2.3095,-2.3095,-2.3095,-2.3095,-2.3007,-2.3007,-2.307,-2.2569,-2.2259,-2.2146,-2.1207,-2.0654,-2.0541,-1.9962,-1.9459,-1.902,-1.9008,-1.8581,-1.7727,-1.7664,-1.7463,-1.6989,-1.7325,-1.7549,-1.7574,-1.7953,-1.8254,-1.8342,-1.8342,-1.8392,-1.848,-1.8882,-1.9133,-1.9146,-1.9146,-1.9585,-2.0616,-2.0691,-2.0498,-2.0045,-1.9798,-1.9306,-1.8355,-1.8066,-1.7998,-1.8008,-1.8008,-1.794,-1.7823,-1.796,-1.8264,-1.8315,-1.8649,-1.8909,-1.866,-1.8666,-1.8549,-1.8288,-1.8202,-1.7884,-1.7366,-1.8094,-1.8966,-1.9125,-1.9599,-1.9923,-1.9244,-1.8669,-1.7713,-1.6203,-1.5457,-1.4853,-1.377,-1.3533,-1.3407,-1.3206,-1.3126,-1.3019,-1.2764,-1.2741,-1.271,-1.273,-1.2904,-1.3073,-2.9779,-2.9779,-2.9779,-2.9779,-2.9779,-2.9779,-2.9515,-2.9001,-2.885,-2.8235,-2.7316,-2.7228,-2.6939,-2.6487,-2.6487,-2.6487,-2.6487,-2.6487,-2.6487,-2.6487,-2.6487,-2.6487,-2.6461,-2.5896,-2.5322,-2.4808,-2.4255,-2.3703,-2.3158,-2.3108,-2.3095,-2.3095,-2.3095,-2.3095,-2.3058,-2.2631,-2.2644,-2.307,-2.2569,-2.2083,-2.1606,-2.1018,-2.044,-1.9936,-1.9396,-1.9083,-1.902,-1.902,-1.8933,-1.8782,-1.8782,-1.8732,-1.8644,-1.8279,-1.8078,-1.8091,-1.8166,-1.8381,-1.8845,-1.8882,-1.9083,-1.9522,-1.9648,-1.9698,-1.9685,-1.9698,-1.9962,-2.0629,-2.0717,-2.0721,-2.0765,-2.0128,-1.9518,-1.9093,-1.8438,-1.8008,-1.8008,-1.7974,-1.7657,-1.6957,-1.6821,-1.7057,-1.7385,-1.7513,-1.7873,-1.8386,-1.8529,-1.8676,-1.8841,-1.8341,-1.7585,-1.7276,-1.8131,-1.889,-1.9045,-1.9085,-1.9155,-1.9045,-1.739,-1.619,-1.5408,-1.4586,-1.3913,-1.336,-1.3353,-1.3225,-1.2995,-1.2851,-1.2806,-1.2601,-1.2435,-1.2466,-1.2435,-1.2452,-1.2619,-2.9779,-2.9779,-2.9779,-2.9779,-2.9767,-2.9453,-2.9176,-2.8863,-2.8574,-2.8047,-2.7316,-2.7002,-2.6738,-2.6499,-2.6487,-2.6487,-2.6487,-2.6487,-2.6487,-2.6487,-2.6487,-2.6487,-2.6436,-2.5896,-2.5322,-2.4788,-2.3754,-2.3001,-2.2494,-2.2445,-2.2433,-2.2488,-2.2884,-2.3095,-2.3058,-2.2556,-2.2393,-2.2631,-2.1845,-2.143,-2.1468,-2.0666,-2.0088,-1.9811,-1.956,-1.9421,-1.9447,-1.9421,-1.9296,-1.902,-1.9008,-1.887,-1.8581,-1.8607,-1.8643,-1.8632,-1.892,-1.9183,-1.9422,-1.9421,-1.9547,-1.9773,-1.9798,-1.9798,-1.9798,-1.9798,-2.0162,-2.1004,-2.0721,-2.0541,-2.0723,-1.9979,-1.9253,-1.8657,-1.8236,-1.8008,-1.794,-1.7501,-1.707,-1.6636,-1.6149,-1.6114,-1.6793,-1.6882,-1.7208,-1.8074,-1.8266,-1.851,-1.917,-1.8885,-1.8648,-1.8891,-1.9468,-1.9492,-1.9125,-1.9006,-1.851,-1.7488,-1.628,-1.5235,-1.4588,-1.377,-1.3565,-1.3681,-1.3757,-1.363,-1.3338,-1.3748,-1.3565,-1.255,-1.2769,-1.2842,-1.2519,-1.2305,-1.2412,-2.9779,-2.9779,-2.9779,-2.9716,-2.9566,-2.9076,-2.8762,-2.8524,-2.8097,-2.7607,-2.7128,-2.6801,-2.6625,-2.6499,-2.6487,-2.6487,-2.6487,-2.6487,-2.6487,-2.6487,-2.6487,-2.6487,-2.6411,-2.5762,-2.5209,-2.4641,-2.3256,-2.2301,-2.1913,-2.1721,-2.1721,-2.197,-2.2732,-2.3045,-2.2895,-2.238,-2.2133,-2.2058,-2.1069,-2.0779,-2.1282,-2.0326,-1.9798,-1.9798,-1.9798,-1.9798,-1.9798,-1.9798,-1.961,-1.9208,-1.9183,-1.8983,-1.8618,-1.8945,-1.9171,-1.9221,-1.9572,-1.9798,-1.9798,-1.9798,-1.9798,-1.9798,-1.9643,-1.9553,-1.9553,-1.9397,-1.9853,-2.0893,-2.0416,-2.0035,-2.0164,-1.9738,-1.8944,-1.8134,-1.8008,-1.7906,-1.7647,-1.7026,-1.6349,-1.6,-1.5305,-1.5163,-1.5755,-1.593,-1.6271,-1.7038,-1.7405,-1.7852,-1.8739,-1.9016,-1.9447,-2.0264,-2.0615,-2.0128,-1.9204,-1.8718,-1.7777,-1.5909,-1.5438,-1.486,-1.4156,-1.3727,-1.3877,-1.4366,-1.4423,-1.4192,-1.3921,-1.4466,-1.4222,-1.2879,-1.2989,-1.3419,-1.2842,-1.2703,-1.2666,-2.9779,-2.9779,-2.9779,-2.9478,-2.9013,-2.8913,-2.8336,-2.7532,-2.7381,-2.709,-2.665,-2.704,-2.6939,-2.6537,-2.6487,-2.6487,-2.6487,-2.6487,-2.6487,-2.6487,-2.6487,-2.6487,-2.6399,-2.5398,-2.487,-2.4566,-2.2841,-2.1867,-2.1721,-2.108,-2.1144,-2.1908,-2.2689,-2.2857,-2.2368,-2.1857,-2.1568,-2.1531,-2.0451,-2.0162,-2.0691,-2.0137,-1.9798,-1.9798,-1.9798,-1.9798,-1.9798,-1.9798,-1.9786,-1.9736,-1.971,-1.9698,-1.9648,-1.9685,-1.9723,-1.9685,-1.9747,-1.9798,-1.9798,-1.9798,-1.9798,-1.9747,-1.9202,-1.8833,-1.8806,-1.8205,-1.8511,-1.9725,-1.9603,-1.9293,-1.9391,-1.9332,-1.8888,-1.811,-1.794,-1.7681,-1.6922,-1.6671,-1.593,-1.4127,-1.3983,-1.3882,-1.4135,-1.4279,-1.4557,-1.5623,-1.5934,-1.6558,-1.7807,-1.818,-1.8804,-2.0034,-2.0547,-2.006,-1.9119,-1.8109,-1.712,-1.5717,-1.5225,-1.4885,-1.4513,-1.4765,-1.5348,-1.5122,-1.5119,-1.4836,-1.4418,-1.4414,-1.4557,-1.3164,-1.3091,-1.3673,-1.3564,-1.3564,-1.3557,-2.9779,-2.9779,-2.9779,-2.9654,-2.9377,-2.8737,-2.8185,-2.7733,-2.709,-2.6688,-2.6537,-2.6738,-2.67,-2.6487,-2.6487,-2.6487,-2.6487,-2.6487,-2.6487,-2.6487,-2.6487,-2.6487,-2.6373,-2.5335,-2.4536,-2.3891,-2.2046,-2.089,-2.0462,-2.0526,-2.129,-2.2506,-2.2944,-2.2819,-2.2293,-2.1769,-2.133,-2.0991,-2.0213,-1.9924,-2.0087,-1.9924,-1.9798,-1.9798,-1.9798,-1.9798,-1.9798,-1.9798,-1.9798,-1.9798,-1.9798,-1.9798,-1.9798,-1.9798,-1.9618,-1.9214,-1.915,-1.9333,-1.9773,-1.9798,-1.9798,-1.9798,-1.9123,-1.87,-1.8635,-1.7633,-1.7412,-1.8185,-1.836,-1.8572,-1.9141,-1.8854,-1.8371,-1.7998,-1.7535,-1.6991,-1.6671,-1.5579,-1.4486,-1.3745,-1.32,-1.3098,-1.3637,-1.4243,-1.47,-1.5128,-1.5312,-1.5922,-1.7196,-1.7254,-1.7602,-1.8588,-1.8704,-1.8578,-1.844,-1.8253,-1.724,-1.6115,-1.555,-1.5243,-1.5176,-1.5093,-1.5427,-1.5948,-1.6009,-1.5939,-1.5623,-1.5544,-1.5465,-1.3939,-1.3237,-1.3709,-1.3709,-1.4171,-1.4486,-2.9585,-2.9326,-2.904,-2.9162,-2.9427,-2.8213,-2.7753,-2.777,-2.6901,-2.6487,-2.6487,-2.6487,-2.6487,-2.6487,-2.6487,-2.6487,-2.6487,-2.6487,-2.6487,-2.6487,-2.6487,-2.6361,-2.6017,-2.4946,-2.3956,-2.2925,-2.1148,-1.9911,-1.9497,-2.0462,-2.1585,-2.2628,-2.2987,-2.2744,-2.2121,-2.1669,-2.1142,-2.049,-1.9999,-1.9798,-1.9811,-1.9798,-1.9798,-1.9798,-1.9798,-1.9798,-1.9798,-1.9798,-1.9798,-1.9798,-1.9605,-1.9501,-1.9475,-1.9319,-1.8965,-1.8501,-1.8421,-1.8635,-1.9176,-1.9202,-1.919,-1.915,-1.8516,-1.8085,-1.7879,-1.6912,-1.6471,-1.6895,-1.7277,-1.7872,-1.8506,-1.8291,-1.793,-1.7638,-1.6957,-1.6463,-1.5755,-1.445,-1.3637,-1.331,-1.2732,-1.2519,-1.3237,-1.3846,-1.4243,-1.4279,-1.4689,-1.5378,-1.6522,-1.6721,-1.7093,-1.8045,-1.7678,-1.7381,-1.7684,-1.7569,-1.7081,-1.6518,-1.5828,-1.6026,-1.5992,-1.583,-1.6026,-1.6941,-1.6966,-1.6567,-1.5869,-1.5895,-1.607,-1.47,-1.3962,-1.4027,-1.4665,-1.5013,-1.5269,-2.9145,-2.8136,-2.7075,-2.7676,-2.8812,-2.7279,-2.6895,-2.7331,-2.6751,-2.6487,-2.6487,-2.6487,-2.6487,-2.6487,-2.6487,-2.6487,-2.6487,-2.6487,-2.6487,-2.6487,-2.6487,-2.599,-2.5039,-2.4014,-2.3043,-2.2003,-2.0366,-1.9398,-1.9398,-2.0942,-2.1877,-2.2013,-2.2695,-2.2585,-2.1707,-2.1493,-2.0928,-1.9999,-1.9836,-1.9798,-1.9798,-1.9798,-1.9798,-1.9798,-1.9798,-1.9798,-1.9798,-1.9798,-1.9798,-1.9798,-1.915,-1.8768,-1.8715,-1.8085,-1.7715,-1.7677,-1.7649,-1.7688,-1.777,-1.7825,-1.7825,-1.7677,-1.7191,-1.6652,-1.6765,-1.6065,-1.5782,-1.6136,-1.6561,-1.7012,-1.7468,-1.7854,-1.7628,-1.6888,-1.6636,-1.5746,-1.4099,-1.3846,-1.3273,-1.2666,-1.2378,-1.2378,-1.2415,-1.2415,-1.2629,-1.2854,-1.3519,-1.461,-1.574,-1.6807,-1.7639,-1.8331,-1.811,-1.7448,-1.6594,-1.6783,-1.6434,-1.6229,-1.6623,-1.6813,-1.7003,-1.7192,-1.7545,-1.7691,-1.7364,-1.6759,-1.5904,-1.5544,-1.5641,-1.4977,-1.4271,-1.4378,-1.5508,-1.5438,-1.5517,-2.9573,-2.9106,-2.7988,-2.8086,-2.8687,-2.7191,-2.6821,-2.7256,-2.6725,-2.6487,-2.6487,-2.6487,-2.6487,-2.6487,-2.6487,-2.6487,-2.6487,-2.6487,-2.6487,-2.6487,-2.6487,-2.5943,-2.4968,-2.3968,-2.2684,-2.1224,-1.9919,-1.9299,-1.9398,-2.0505,-2.1365,-2.1911,-2.2362,-2.2221,-2.1556,-2.1157,-2.0591,-1.9886,-1.9798,-1.9798,-1.9798,-1.9798,-1.9798,-1.9798,-1.9798,-1.9798,-1.9798,-1.9798,-1.9592,-1.9123,-1.8821,-1.8501,-1.7988,-1.7302,-1.7107,-1.7484,-1.7135,-1.7118,-1.7534,-1.7605,-1.7605,-1.755,-1.6922,-1.6492,-1.6379,-1.5845,-1.5488,-1.5693,-1.6055,-1.6427,-1.668,-1.7412,-1.7647,-1.674,-1.6035,-1.5174,-1.3954,-1.3208,-1.2659,-1.2372,-1.2305,-1.2305,-1.2305,-1.2305,-1.2305,-1.2348,-1.2725,-1.3734,-1.4948,-1.5528,-1.6173,-1.6982,-1.6473,-1.5778,-1.6598,-1.6727,-1.6854,-1.7186,-1.7483,-1.7552,-1.7666,-1.7035,-1.7113,-1.7035,-1.6966,-1.6298,-1.5199,-1.4736,-1.4871,-1.4799,-1.4135,-1.5155,-1.6315,-1.5939,-1.5755,-2.8961,-2.8937,-2.7238,-2.7111,-2.7876,-2.6221,-2.5896,-2.6469,-2.6181,-2.6025,-2.606,-2.6349,-2.6487,-2.6487,-2.6487,-2.6487,-2.6487,-2.6487,-2.6361,-2.6025,-2.6025,-2.5323,-2.4067,-2.3087,-2.1828,-2.0442,-1.9638,-1.9299,-1.9398,-2.0171,-2.091,-2.1467,-2.1747,-2.1605,-2.1103,-2.0819,-2.0402,-1.9911,-1.9798,-1.9798,-1.9798,-1.9798,-1.9798,-1.9773,-1.9579,-1.9566,-1.9773,-1.9592,-1.9228,-1.8715,-1.8259,-1.766,-1.694,-1.6425,-1.6368,-1.6782,-1.6425,-1.634,-1.68,-1.6884,-1.6884,-1.6856,-1.6443,-1.6151,-1.6122,-1.5671,-1.5439,-1.5508,-1.584,-1.6125,-1.6281,-1.6992,-1.7102,-1.6036,-1.529,-1.4454,-1.328,-1.264,-1.2372,-1.2305,-1.2305,-1.2305,-1.2305,-1.2305,-1.2305,-1.2305,-1.2519,-1.3375,-1.431,-1.5021,-1.5251,-1.6298,-1.5924,-1.6029,-1.6607,-1.6998,-1.724,-1.7533,-1.7734,-1.7925,-1.7759,-1.7104,-1.6567,-1.6393,-1.593,-1.5269,-1.4665,-1.4099,-1.4027,-1.4135,-1.4942,-1.593,-1.6324,-1.6219,-1.5755,-2.725,-2.7671,-2.4542,-2.4692,-2.6158,-2.4465,-2.4068,-2.4948,-2.4998,-2.504,-2.5264,-2.6025,-2.6383,-2.6487,-2.6487,-2.6452,-2.6349,-2.6302,-2.5921,-2.5182,-2.504,-2.4,-2.2275,-2.1517,-2.0542,-1.9387,-1.9264,-1.9253,-1.9243,-2.0009,-2.0526,-2.0628,-2.0906,-2.0824,-2.0255,-2.0496,-2.0365,-1.9911,-1.9798,-1.9798,-1.9798,-1.9798,-1.9773,-1.9669,-1.9097,-1.9044,-1.9643,-1.9044,-1.8635,-1.8421,-1.733,-1.6236,-1.5719,-1.5526,-1.5468,-1.5584,-1.5468,-1.5439,-1.5497,-1.5555,-1.5661,-1.5633,-1.5497,-1.5526,-1.5526,-1.5468,-1.542,-1.5478,-1.5782,-1.6046,-1.6034,-1.6301,-1.5983,-1.4527,-1.4403,-1.3862,-1.2536,-1.2174,-1.2305,-1.2305,-1.2305,-1.2305,-1.2305,-1.2305,-1.2305,-1.2445,-1.2879,-1.3448,-1.3954,-1.4971,-1.6167,-1.6472,-1.614,-1.6149,-1.6751,-1.7329,-1.7486,-1.7691,-1.7847,-1.7974,-1.7681,-1.7104,-1.6358,-1.6009,-1.4977,-1.4307,-1.3918,-1.3557,-1.4271,-1.4629,-1.5649,-1.6463,-1.6645,-1.6472,-1.5305,-2.7804,-2.7804,-2.5368,-2.4712,-2.5265,-2.3879,-2.3577,-2.3947,-2.3956,-2.4373,-2.4969,-2.5335,-2.5826,-2.6383,-2.6487,-2.6094,-2.5511,-2.5441,-2.5276,-2.4898,-2.4264,-2.3294,-2.2099,-2.1418,-2.0355,-1.9006,-1.8547,-1.8395,-1.8596,-1.9299,-1.9683,-1.9771,-2.0198,-2.0358,-2.0191,-2.0136,-1.9949,-1.9836,-1.9798,-1.9798,-1.9798,-1.9798,-1.9553,-1.9071,-1.8794,-1.8608,-1.8313,-1.8043,-1.7704,-1.7257,-1.6754,-1.6169,-1.5584,-1.542,-1.542,-1.542,-1.542,-1.542,-1.542,-1.542,-1.542,-1.542,-1.542,-1.542,-1.542,-1.5381,-1.5381,-1.5381,-1.5547,-1.5438,-1.4971,-1.4895,-1.4751,-1.4163,-1.4156,-1.3609,-1.2268,-1.2131,-1.2278,-1.2305,-1.2305,-1.2305,-1.2305,-1.2305,-1.2305,-1.2305,-1.2629,-1.2945,-1.3673,-1.4343,-1.4906,-1.5446,-1.5614,-1.6254,-1.6853,-1.732,-1.7467,-1.7716,-1.793,-1.8008,-1.7681,-1.6828,-1.6114,-1.5155,-1.4163,-1.352,-1.3127,-1.3411,-1.4127,-1.4977,-1.5825,-1.6541,-1.7148,-1.6515,-1.5234,-2.7522,-2.7227,-2.4945,-2.3981,-2.3966,-2.2959,-2.2582,-2.2691,-2.2852,-2.3526,-2.4301,-2.4456,-2.5004,-2.5699,-2.5581,-2.5028,-2.4409,-2.4072,-2.3891,-2.3818,-2.3294,-2.2403,-2.149,-2.0872,-1.9894,-1.8601,-1.8135,-1.8008,-1.8042,-1.8529,-1.8821,-1.8922,-1.941,-1.9703,-1.9744,-1.9802,-1.9798,-1.9798,-1.9798,-1.9798,-1.9747,-1.954,-1.9176,-1.8688,-1.8178,-1.766,-1.7191,-1.695,-1.6698,-1.6464,-1.6265,-1.5864,-1.5439,-1.542,-1.542,-1.542,-1.542,-1.542,-1.542,-1.542,-1.542,-1.542,-1.542,-1.542,-1.5352,-1.5206,-1.5021,-1.5352,-1.4824,-1.4485,-1.4433,-1.4469,-1.4356,-1.4114,-1.3734,-1.3131,-1.2266,-1.2184,-1.2291,-1.2305,-1.2305,-1.2305,-1.2305,-1.2305,-1.2305,-1.2305,-1.2305,-1.2622,-1.3455,-1.4063,-1.47,-1.5482,-1.6332,-1.6819,-1.7104,-1.732,-1.7432,-1.7716,-1.7974,-1.8008,-1.7862,-1.6402,-1.534,-1.4127,-1.3055,-1.2952,-1.2629,-1.331,-1.4027,-1.4977,-1.5895,-1.6463,-1.6862,-1.6123,-1.5021,-2.6461,-2.6052,-2.3581,-2.2546,-2.2414,-2.1654,-2.1361,-2.1322,-2.1712,-2.2489,-2.3294,-2.3404,-2.3963,-2.4516,-2.4145,-2.3697,-2.3257,-2.2664,-2.2215,-2.2103,-2.1876,-2.1448,-2.062,-1.992,-1.9098,-1.8262,-1.8057,-1.8008,-1.8008,-1.811,-1.8008,-1.817,-1.8795,-1.8963,-1.915,-1.9534,-1.9874,-1.9811,-1.9747,-1.9669,-1.9605,-1.9018,-1.8543,-1.8421,-1.7302,-1.6595,-1.6368,-1.5911,-1.5835,-1.6236,-1.5777,-1.5497,-1.542,-1.542,-1.542,-1.542,-1.542,-1.542,-1.542,-1.542,-1.542,-1.542,-1.542,-1.5352,-1.5196,-1.4717,-1.451,-1.4883,-1.3959,-1.3529,-1.4219,-1.4444,-1.4296,-1.3909,-1.332,-1.2729,-1.2347,-1.2271,-1.2305,-1.2305,-1.2305,-1.2305,-1.2305,-1.2305,-1.2305,-1.2305,-1.2305,-1.2696,-1.331,-1.4063,-1.5261,-1.5974,-1.6367,-1.6932,-1.7044,-1.7789,-1.7912,-1.8064,-1.8262,-1.8217,-1.7758,-1.6237,-1.4585,-1.3339,-1.2556,-1.2378,-1.2519,-1.32,-1.4027,-1.4985,-1.5755,-1.6349,-1.6393,-1.5939,-1.5171,-2.5859,-2.4667,-2.3123,-2.2148,-2.1561,-2.1268,-2.1025,-2.0801,-2.0887,-2.1593,-2.2253,-2.2403,-2.2962,-2.3781,-2.3599,-2.311,-2.244,-2.2113,-2.1565,-2.1039,-2.0962,-2.0658,-2.0087,-1.9551,-1.8994,-1.8432,-1.8144,-1.8008,-1.8008,-1.8008,-1.8042,-1.8056,-1.8977,-1.9274,-1.9093,-1.9924,-2.0173,-1.9771,-1.9228,-1.9018,-1.8874,-1.8259,-1.7594,-1.7062,-1.668,-1.6197,-1.5777,-1.5526,-1.5468,-1.5642,-1.5526,-1.542,-1.542,-1.542,-1.542,-1.542,-1.542,-1.542,-1.542,-1.542,-1.542,-1.542,-1.542,-1.5138,-1.454,-1.4332,-1.4034,-1.3808,-1.3308,-1.313,-1.3012,-1.3217,-1.3083,-1.2678,-1.2925,-1.2831,-1.2249,-1.2171,-1.2305,-1.2305,-1.2305,-1.2305,-1.2305,-1.2305,-1.2305,-1.2305,-1.2305,-1.2452,-1.3098,-1.381,-1.4879,-1.5021,-1.5446,-1.6332,-1.7119,-1.7938,-1.8391,-1.8504,-1.8578,-1.8582,-1.7703,-1.6245,-1.4494,-1.2872,-1.2519,-1.2305,-1.2592,-1.3062,-1.4027,-1.4914,-1.5693,-1.6324,-1.6715,-1.655,-1.5578,-2.5576,-2.4094,-2.2798,-2.1855,-2.12,-2.1035,-2.0801,-2.0644,-2.0605,-2.1116,-2.1773,-2.1555,-2.1962,-2.2776,-2.2451,-2.1973,-2.1441,-2.1403,-2.1078,-2.0672,-2.041,-2.0087,-1.9678,-1.9392,-1.8975,-1.8364,-1.8135,-1.8027,-1.8008,-1.8008,-1.8212,-1.8639,-1.9329,-1.946,-1.9101,-2.0065,-2.0044,-1.9088,-1.8688,-1.8581,-1.8221,-1.7523,-1.7006,-1.6492,-1.6236,-1.5806,-1.5439,-1.542,-1.542,-1.541,-1.542,-1.542,-1.542,-1.542,-1.542,-1.542,-1.542,-1.542,-1.542,-1.542,-1.542,-1.542,-1.542,-1.4991,-1.4332,-1.3944,-1.3403,-1.3164,-1.2594,-1.2343,-1.2537,-1.2825,-1.2923,-1.2899,-1.3141,-1.3078,-1.2188,-1.2211,-1.2291,-1.2305,-1.2305,-1.2305,-1.2305,-1.2305,-1.2305,-1.2305,-1.2305,-1.2592,-1.3025,-1.3738,-1.445,-1.4914,-1.583,-1.7101,-1.776,-1.845,-1.89,-1.9014,-1.8533,-1.8608,-1.7442,-1.6049,-1.4361,-1.2921,-1.2539,-1.2378,-1.2592,-1.2952,-1.3665,-1.4557,-1.5508,-1.6402,-1.6862,-1.6724,-1.5789,-2.53,-2.3783,-2.2408,-2.1562,-2.1123,-2.0742,-2.0635,-2.0615,-2.0615,-2.1039,-2.1479,-2.0934,-2.1155,-2.1811,-2.1231,-2.0683,-2.0644,-2.075,-2.0614,-2.0342,-2.0049,-1.9629,-1.9248,-1.917,-1.875,-1.8164,-1.8018,-1.8008,-1.8008,-1.8008,-1.8361,-1.8872,-1.9425,-1.9454,-1.9305,-2.0069,-1.9513,-1.8391,-1.834,-1.8085,-1.7495,-1.681,-1.634,-1.6208,-1.5816,-1.5526,-1.5439,-1.542,-1.542,-1.542,-1.542,-1.542,-1.542,-1.542,-1.542,-1.542,-1.542,-1.542,-1.542,-1.542,-1.542,-1.542,-1.542,-1.4962,-1.4145,-1.3455,-1.294,-1.2489,-1.1418,-1.1549,-1.2342,-1.3089,-1.3266,-1.3186,-1.339,-1.3084,-1.2556,-1.2305,-1.2305,-1.2305,-1.2305,-1.2305,-1.2305,-1.2305,-1.2305,-1.2305,-1.2305,-1.2482,-1.3127,-1.4027,-1.4879,-1.5685,-1.6837,-1.8283,-1.8682,-1.8987,-1.9307,-1.9455,-1.8629,-1.8109,-1.6959,-1.5548,-1.405,-1.2961,-1.2652,-1.2412,-1.2342,-1.2842,-1.3411,-1.4343,-1.5411,-1.6437,-1.7251,-1.6576,-1.5772,-2.3253,-2.1808,-2.1477,-2.1113,-2.0732,-2.0644,-2.0615,-2.0615,-2.0615,-2.075,-2.0828,-2.0683,-2.075,-2.0924,-2.0712,-2.0615,-2.0615,-2.0595,-2.04,-2.001,-1.9619,-1.9189,-1.8822,-1.8754,-1.8461,-1.8096,-1.8008,-1.8008,-1.8008,-1.8042,-1.811,-1.8398,-1.9108,-1.9263,-1.9171,-1.9825,-1.9742,-1.8596,-1.8097,-1.7495,-1.6771,-1.6083,-1.5729,-1.5671,-1.5497,-1.5449,-1.542,-1.542,-1.542,-1.542,-1.542,-1.542,-1.542,-1.542,-1.542,-1.542,-1.542,-1.542,-1.542,-1.542,-1.542,-1.542,-1.5264,-1.4805,-1.3425,-1.3122,-1.2366,-1.1527,-1.0994,-1.1262,-1.1985,-1.2382,-1.2661,-1.2739,-1.2703,-1.2592,-1.2335,-1.2305,-1.2305,-1.2305,-1.2305,-1.2305,-1.2305,-1.2305,-1.2305,-1.2305,-1.2342,-1.2415,-1.32,-1.4207,-1.5021,-1.5834,-1.7506,-1.8718,-1.8948,-1.9307,-1.9746,-1.9874,-1.9165,-1.8332,-1.7123,-1.5924,-1.4737,-1.3679,-1.2772,-1.2596,-1.2418,-1.2415,-1.2922,-1.4099,-1.5267,-1.6307,-1.6868,-1.6281,-1.6158,-2.3052,-2.124,-2.12,-2.0977,-2.0644,-2.0615,-2.0615,-2.0615,-2.0615,-2.0615,-2.0615,-2.0615,-2.0615,-2.0615,-2.0615,-2.0615,-2.0615,-2.0595,-2.0253,-1.9717,-1.9355,-1.9062,-1.8617,-1.8403,-1.8169,-1.8018,-1.8008,-1.8008,-1.8008,-1.8042,-1.8236,-1.8586,-1.9077,-1.9361,-1.9401,-1.9895,-1.9373,-1.8278,-1.7789,-1.7107,-1.6054,-1.5642,-1.542,-1.542,-1.542,-1.542,-1.542,-1.542,-1.542,-1.542,-1.542,-1.542,-1.542,-1.542,-1.542,-1.542,-1.542,-1.542,-1.542,-1.542,-1.542,-1.5381,-1.5079,-1.4213,-1.3213,-1.2696,-1.1903,-1.0992,-1.0767,-1.1062,-1.1603,-1.2114,-1.2258,-1.2305,-1.2305,-1.2305,-1.2305,-1.2305,-1.2305,-1.2305,-1.2305,-1.2305,-1.2305,-1.2305,-1.2305,-1.2305,-1.2305,-1.2378,-1.2879,-1.3846,-1.4772,-1.5884,-1.7772,-1.8896,-1.9134,-1.957,-2.0185,-2.0226,-1.9908,-1.9156,-1.8222,-1.6999,-1.5795,-1.4513,-1.3106,-1.2788,-1.2647,-1.2601,-1.2813,-1.3962,-1.5142,-1.6118,-1.6732,-1.6732,-1.6715,-2.3071,-2.1133,-2.1093,-2.0908,-2.0635,-2.0615,-2.0615,-2.0615,-2.0615,-2.0615,-2.0615,-2.0615,-2.0615,-2.0615,-2.0615,-2.0615,-2.0566,-2.0331,-1.9863,-1.9404,-1.9053,-1.8789,-1.8432,-1.8178,-1.8057,-1.8008,-1.8008,-1.8008,-1.8008,-1.8042,-1.8269,-1.8911,-1.9044,-1.9113,-1.955,-1.9796,-1.9124,-1.7683,-1.7539,-1.6912,-1.5748,-1.5439,-1.542,-1.542,-1.542,-1.542,-1.542,-1.542,-1.542,-1.542,-1.542,-1.542,-1.542,-1.542,-1.542,-1.542,-1.542,-1.542,-1.542,-1.5391,-1.5352,-1.5264,-1.4658,-1.3786,-1.2909,-1.2235,-1.1531,-1.1013,-1.0767,-1.0989,-1.1403,-1.1964,-1.2251,-1.2305,-1.2305,-1.2305,-1.2305,-1.2305,-1.2305,-1.2305,-1.2305,-1.2305,-1.2305,-1.2305,-1.2305,-1.2305,-1.2305,-1.2452,-1.2915,-1.3702,-1.4736,-1.5787,-1.7537,-1.9035,-1.9387,-1.9795,-2.041,-2.0372,-2.0265,-1.9661,-1.8894,-1.7695,-1.6277,-1.4608,-1.3487,-1.3178,-1.2876,-1.2775,-1.3216,-1.4111,-1.5115,-1.626,-1.6836,-1.7216,-1.7324,-2.1074,-2.0723,-2.0713,-2.0674,-2.0615,-2.0615,-2.0615,-2.0615,-2.0615,-2.0615,-2.0615,-2.0605,-2.0605,-2.0595,-2.0605,-2.0595,-2.039,-1.9959,-1.9482,-1.9121,-1.8711,-1.8291,-1.8252,-1.8105,-1.8018,-1.8008,-1.8008,-1.8008,-1.8008,-1.8042,-1.8134,-1.8236,-1.8331,-1.8512,-1.8902,-1.8923,-1.8644,-1.7613,-1.7425,-1.6726,-1.5748,-1.542,-1.542,-1.542,-1.542,-1.542,-1.542,-1.542,-1.542,-1.542,-1.542,-1.542,-1.542,-1.542,-1.542,-1.542,-1.542,-1.542,-1.542,-1.5352,-1.5021,-1.4569,-1.4145,-1.3416,-1.2443,-1.1865,-1.1351,-1.1107,-1.104,-1.1323,-1.1382,-1.1946,-1.2231,-1.2291,-1.2298,-1.2305,-1.2305,-1.2305,-1.2305,-1.2305,-1.2305,-1.2305,-1.2305,-1.2305,-1.2305,-1.2305,-1.2305,-1.2445,-1.2842,-1.3846,-1.5021,-1.6086,-1.7238,-1.8592,-1.965,-2.0107,-2.0547,-2.0382,-2.0138,-1.9708,-1.8939,-1.798,-1.6678,-1.565,-1.4399,-1.361,-1.3302,-1.3121,-1.3319,-1.4002,-1.5156,-1.6438,-1.7003,-1.7541,-1.819,-2.1039,-2.0615,-2.0615,-2.0615,-2.0615,-2.0615,-2.0615,-2.0615,-2.0615,-2.0615,-2.0615,-2.0595,-2.0468,-2.0342,-2.0537,-2.039,-1.9891,-1.9578,-1.917,-1.8877,-1.8525,-1.8295,-1.8262,-1.8125,-1.8027,-1.8008,-1.8008,-1.8008,-1.8008,-1.8008,-1.8008,-1.8041,-1.8171,-1.8535,-1.8879,-1.878,-1.8364,-1.7788,-1.7276,-1.6528,-1.5526,-1.542,-1.542,-1.542,-1.542,-1.542,-1.542,-1.542,-1.542,-1.542,-1.542,-1.542,-1.542,-1.542,-1.542,-1.542,-1.542,-1.542,-1.5294,-1.5108,-1.4746,-1.4756,-1.3816,-1.2962,-1.2297,-1.1779,-1.1202,-1.1333,-1.1542,-1.181,-1.1843,-1.199,-1.2053,-1.2104,-1.2204,-1.2298,-1.2305,-1.2305,-1.2305,-1.2305,-1.2305,-1.2305,-1.2305,-1.2305,-1.2305,-1.2305,-1.2305,-1.2482,-1.2769,-1.3983,-1.5269,-1.6563,-1.7651,-1.8772,-1.9853,-2.0254,-2.0605,-2.045,-2.0245,-1.9805,-1.9441,-1.8718,-1.8226,-1.7559,-1.6222,-1.4667,-1.398,-1.3859,-1.387,-1.3981,-1.5405,-1.6646,-1.7228,-1.7867,-1.8518,-2.127,-2.0615,-2.0615,-2.0615,-2.0615,-2.0615,-2.0615,-2.0615,-2.0615,-2.0615,-2.0615,-2.0586,-2.0361,-2.0068,-2.0059,-1.9959,-1.9277,-1.9219,-1.8945,-1.8666,-1.8461,-1.8442,-1.8398,-1.8232,-1.8008,-1.8008,-1.8008,-1.8008,-1.8008,-1.8008,-1.8008,-1.8041,-1.8301,-1.8615,-1.8837,-1.8419,-1.8269,-1.7676,-1.7134,-1.6161,-1.5584,-1.542,-1.542,-1.542,-1.542,-1.542,-1.542,-1.542,-1.542,-1.542,-1.542,-1.542,-1.542,-1.542,-1.542,-1.542,-1.542,-1.542,-1.5264,-1.4952,-1.4688,-1.4451,-1.3075,-1.2535,-1.1996,-1.1358,-1.0902,-1.1457,-1.1728,-1.1898,-1.1817,-1.1937,-1.1977,-1.2067,-1.2191,-1.2305,-1.2305,-1.2305,-1.2305,-1.2305,-1.2305,-1.2305,-1.2305,-1.2305,-1.2305,-1.2305,-1.2305,-1.2415,-1.2842,-1.4235,-1.5541,-1.6981,-1.8207,-1.9222,-1.999,-2.0322,-2.0576,-2.0527,-2.0489,-2.0284,-2.0089,-1.9805,-1.9346,-1.8867,-1.7752,-1.6325,-1.5515,-1.4441,-1.4039,-1.4342,-1.5832,-1.6719,-1.7115,-1.7975,-1.8868,-2.0683,-2.0615,-2.0615,-2.0615,-2.0615,-2.0615,-2.0615,-2.0615,-2.0615,-2.0615,-2.0605,-2.0566,-2.0283,-1.9902,-1.9512,-1.9375,-1.918,-1.8867,-1.8637,-1.8481,-1.8247,-1.8154,-1.8105,-1.8057,-1.8008,-1.8008,-1.8008,-1.8008,-1.7949,-1.7939,-1.7969,-1.7978,-1.7945,-1.7995,-1.7911,-1.7809,-1.7337,-1.6627,-1.6481,-1.6122,-1.5517,-1.542,-1.542,-1.542,-1.542,-1.542,-1.542,-1.542,-1.542,-1.542,-1.542,-1.542,-1.542,-1.542,-1.542,-1.542,-1.542,-1.542,-1.5352,-1.5079,-1.4628,-1.4025,-1.2962,-1.2182,-1.1452,-1.1083,-1.0807,-1.067,-1.1074,-1.1438,-1.1727,-1.1783,-1.198,-1.2118,-1.2231,-1.2298,-1.2305,-1.2305,-1.2305,-1.2305,-1.2305,-1.2305,-1.2305,-1.2305,-1.2305,-1.2305,-1.2342,-1.2489,-1.3237,-1.4799,-1.6191,-1.7735,-1.8474,-1.9448,-2.0136,-2.0468,-2.0556,-2.0605,-2.0615,-2.0615,-2.045,-2.0284,-2.0372,-1.9748,-1.8655,-1.7477,-1.6285,-1.5185,-1.4248,-1.4597,-1.5932,-1.65,-1.6758,-1.7857,-1.9127,-2.0615,-2.0615,-2.0615,-2.0615,-2.0615,-2.0615,-2.0615,-2.0615,-2.0615,-2.0615,-2.0546,-2.0283,-1.9961,-1.9492,-1.8887,-1.8701,-1.8744,-1.8451,-1.8256,-1.8266,-1.8105,-1.8008,-1.8018,-1.8008,-1.8008,-1.8008,-1.7969,-1.7822,-1.7764,-1.7666,-1.7646,-1.7654,-1.7608,-1.7481,-1.7201,-1.7141,-1.685,-1.6388,-1.608,-1.5729,-1.5497,-1.542,-1.542,-1.542,-1.542,-1.542,-1.542,-1.542,-1.542,-1.542,-1.542,-1.542,-1.542,-1.542,-1.542,-1.542,-1.542,-1.542,-1.5352,-1.4991,-1.451,-1.4055,-1.3144,-1.1779,-1.0958,-1.0982,-1.1233,-1.1296,-1.1536,-1.168,-1.1739,-1.1874,-1.195,-1.2087,-1.2238,-1.2285,-1.2305,-1.2305,-1.2305,-1.2305,-1.2305,-1.2305,-1.2305,-1.2305,-1.2305,-1.2305,-1.2592,-1.2952,-1.4199,-1.6009,-1.7363,-1.8632,-1.9146,-1.9541,-2.0116,-2.0556,-2.0576,-2.0615,-2.0615,-2.0615,-2.0615,-2.0566,-2.0615,-2.0001,-1.8696,-1.7669,-1.6849,-1.5863,-1.477,-1.5268,-1.605,-1.6683,-1.732,-1.8188,-1.9124,-2.0615,-2.0615,-2.0615,-2.0615,-2.0615,-2.0615,-2.0615,-2.0615,-2.0615,-2.0546,-2.0264,-1.9844,-1.9394,-1.9033,-1.8437,-1.8242,-1.8412,-1.811,-1.8037,-1.8008,-1.8008,-1.8008,-1.8008,-1.8008,-1.8008,-1.8008,-1.8008,-1.7881,-1.7617,-1.7363,-1.7217,-1.7239,-1.7348,-1.7104,-1.6856,-1.6651,-1.6398,-1.647,-1.6066,-1.5816,-1.5719,-1.5719,-1.5575,-1.5468,-1.542,-1.542,-1.542,-1.542,-1.542,-1.542,-1.542,-1.542,-1.542,-1.542,-1.542,-1.542,-1.542,-1.542,-1.5206,-1.4844,-1.4569,-1.3965,-1.3014,-1.1226,-1.0863,-1.1226,-1.1469,-1.1296,-1.1453,-1.1693,-1.1918,-1.184,-1.1932,-1.2011,-1.2198,-1.2258,-1.2305,-1.2305,-1.2305,-1.2305,-1.2305,-1.2305,-1.2305,-1.2305,-1.2305,-1.2305,-1.2703,-1.3339,-1.4859,-1.67,-1.7918,-1.9013,-1.9473,-1.9736,-2.0224,-2.0586,-2.0605,-2.0615,-2.0615,-2.0615,-2.0615,-2.0615,-2.0615,-1.9756,-1.8829,-1.8492,-1.807,-1.6636,-1.5431,-1.6062,-1.6675,-1.7405,-1.81,-1.8853,-1.9175,-2.0615,-2.0615,-2.0615,-2.0615,-2.0615,-2.0615,-2.0615,-2.0615,-2.0615,-2.0332,-1.9873,-1.9134,-1.8773,-1.8539,-1.8271,-1.8037,-1.8066,-1.8027,-1.8008,-1.8008,-1.8008,-1.8008,-1.8008,-1.8008,-1.8008,-1.8008,-1.7998,-1.7978,-1.7803,-1.7295,-1.697,-1.678,-1.6929,-1.6729,-1.6444,-1.6168,-1.6261,-1.6384,-1.6208,-1.6236,-1.6265,-1.6197,-1.595,-1.5497,-1.542,-1.542,-1.542,-1.542,-1.5294,-1.5294,-1.5352,-1.5264,-1.5206,-1.5352,-1.5391,-1.542,-1.542,-1.5352,-1.5079,-1.4688,-1.3974,-1.3009,-1.1911,-1.0926,-1.0688,-1.0618,-1.0713,-1.0835,-1.1081,-1.1218,-1.1377,-1.1531,-1.1857,-1.2064,-1.2245,-1.2265,-1.2305,-1.2305,-1.2305,-1.2305,-1.2305,-1.2305,-1.2305,-1.2305,-1.2305,-1.2305,-1.3164,-1.3839,-1.4984,-1.6616,-1.789,-1.8935,-1.9545,-1.999,-2.0429,-2.0615,-2.0615,-2.0615,-2.0615,-2.0615,-2.0615,-2.0615,-2.0615,-2.0284,-1.9629,-1.9444,-1.8997,-1.7471,-1.6554,-1.6797,-1.7328,-1.7997,-1.8473,-1.9003,-1.9255,-2.0361,-2.0605,-2.0615,-2.0615,-2.0615,-2.0615,-2.0615,-2.0615,-2.0605,-2.0156,-1.9455,-1.888,-1.8451,-1.8227,-1.8135,-1.8008,-1.8008,-1.8008,-1.794,-1.8008,-1.8008,-1.8008,-1.8008,-1.7974,-1.8008,-1.8008,-1.7998,-1.7822,-1.7549,-1.7379,-1.7096,-1.6863,-1.6572,-1.6261,-1.5997,-1.5949,-1.6056,-1.6282,-1.6151,-1.6007,-1.6379,-1.6007,-1.569,-1.5468,-1.542,-1.542,-1.542,-1.542,-1.5108,-1.4952,-1.5196,-1.5108,-1.4962,-1.5206,-1.5381,-1.5391,-1.5381,-1.5147,-1.4864,-1.4658,-1.4392,-1.3061,-1.2027,-1.1108,-1.0681,-1.0586,-1.0586,-1.0673,-1.0868,-1.1156,-1.1343,-1.1744,-1.2111,-1.2251,-1.2305,-1.2305,-1.2305,-1.2305,-1.2305,-1.2305,-1.2305,-1.2305,-1.2305,-1.2305,-1.2305,-1.2378,-1.3375,-1.4402,-1.5471,-1.6768,-1.8159,-1.907,-1.9691,-2.0098,-2.0527,-2.0595,-2.0605,-2.0615,-2.0615,-2.0615,-2.0615,-2.0615,-2.0566,-2.0411,-2.0207,-1.974,-1.9036,-1.803,-1.7679,-1.7974,-1.824,-1.8545,-1.8939,-1.9154,-1.9123,-1.998,-2.039,-2.041,-2.0488,-2.0595,-2.0615,-2.0615,-2.0586,-2.0449,-1.9704,-1.8665,-1.819,-1.7681,-1.7317,-1.7123,-1.7079,-1.701,-1.701,-1.7079,-1.7044,-1.701,-1.7329,-1.7501,-1.7613,-1.7613,-1.7862,-1.7988,-1.7832,-1.7676,-1.7773,-1.7549,-1.7012,-1.6309,-1.6191,-1.6143,-1.6007,-1.6048,-1.6222,-1.6304,-1.6002,-1.6459,-1.6093,-1.5575,-1.5497,-1.542,-1.542,-1.542,-1.5381,-1.5196,-1.5021,-1.505,-1.5079,-1.4991,-1.5021,-1.5352,-1.5352,-1.5147,-1.4756,-1.4481,-1.3986,-1.3747,-1.2212,-1.1694,-1.1083,-1.0776,-1.06,-1.0613,-1.0774,-1.1076,-1.1363,-1.1483,-1.187,-1.2131,-1.2238,-1.2298,-1.2305,-1.2305,-1.2305,-1.2305,-1.2305,-1.2305,-1.2305,-1.2305,-1.2305,-1.2392,-1.2709,-1.3846,-1.4761,-1.563,-1.7054,-1.8711,-1.9438,-1.9894,-2.0234,-2.0546,-2.0537,-2.0527,-2.0615,-2.0615,-2.0615,-2.0615,-2.0527,-2.0566,-2.0527,-2.0265,-1.9869,-1.9483,-1.9068,-1.9019,-1.9164,-1.9129,-1.8871,-1.8725,-1.8856,-1.874,-1.9514,-1.9912,-1.9894,-2.0118,-2.0507,-2.0595,-2.0615,-2.0498,-1.9984,-1.8862,-1.7361,-1.6855,-1.6237,-1.5658,-1.5737,-1.5728,-1.5693,-1.5587,-1.5587,-1.5693,-1.5842,-1.6009,-1.6498,-1.6888,-1.732,-1.7862,-1.7998,-1.7978,-1.793,-1.7744,-1.7666,-1.7627,-1.708,-1.6619,-1.6677,-1.6658,-1.6597,-1.6568,-1.6917,-1.6693,-1.6602,-1.6355,-1.5835,-1.5526,-1.542,-1.542,-1.542,-1.542,-1.5235,-1.505,-1.5196,-1.5225,-1.5079,-1.5225,-1.5352,-1.5235,-1.4658,-1.4293,-1.4055,-1.274,-1.1841,-1.1296,-1.1146,-1.0744,-1.0624,-1.0633,-1.072,-1.0908,-1.1109,-1.1417,-1.1665,-1.1946,-1.2111,-1.2218,-1.2285,-1.2305,-1.2305,-1.2305,-1.2305,-1.2305,-1.2305,-1.2305,-1.2305,-1.2342,-1.2472,-1.3046,-1.4243,-1.5185,-1.5892,-1.7469,-1.9201,-1.9519,-1.9916,-2.0197,-2.0372,-2.043,-2.045,-2.0527,-2.045,-2.0245,-2.0245,-2.0206,-2.0294,-2.045,-2.0459,-2.0188,-2.0343,-2.0411,-1.9839,-1.9155,-1.9125,-1.8937,-1.8726,-1.8624,-1.8617,-1.8539,-1.9455,-1.8816,-1.9004,-1.9748,-2.037,-2.0605,-2.0362,-1.9165,-1.7704,-1.6439,-1.5855,-1.5552,-1.5269,-1.5092,-1.5057,-1.5092,-1.5199,-1.5199,-1.5128,-1.5057,-1.5825,-1.6315,-1.6602,-1.707,-1.7759,-1.8008,-1.8008,-1.7988,-1.7803,-1.7842,-1.7842,-1.7656,-1.7252,-1.6853,-1.675,-1.6857,-1.7142,-1.6919,-1.6556,-1.6815,-1.6238,-1.571,-1.543,-1.542,-1.542,-1.542,-1.542,-1.5235,-1.4962,-1.5108,-1.5206,-1.4962,-1.5021,-1.5108,-1.4785,-1.4174,-1.3666,-1.281,-1.1648,-1.1257,-1.1052,-1.087,-1.0618,-1.0593,-1.0794,-1.0921,-1.1069,-1.1336,-1.1645,-1.1873,-1.2114,-1.2245,-1.2271,-1.2305,-1.2305,-1.2305,-1.2305,-1.2305,-1.2305,-1.2305,-1.2305,-1.2305,-1.2903,-1.3123,-1.3666,-1.4841,-1.5341,-1.5995,-1.7915,-1.9718,-1.9563,-1.9745,-2.0052,-2.0206,-1.9844,-1.9883,-2.0001,-1.9766,-1.945,-1.949,-1.952,-1.952,-1.9441,-2.004,-2.0566,-2.011,-1.9656,-1.9319,-1.8932,-1.874,-1.8726,-1.8612,-1.8683,-1.8867,-1.8095,-1.8899,-1.8054,-1.811,-1.8905,-1.977,-1.9897,-1.9241,-1.7813,-1.6365,-1.5219,-1.4788,-1.4414,-1.4235,-1.4199,-1.4191,-1.4199,-1.4199,-1.4163,-1.4199,-1.4163,-1.4871,-1.5649,-1.6289,-1.6862,-1.7613,-1.8008,-1.8008,-1.8008,-1.8008,-1.7998,-1.7998,-1.7998,-1.7652,-1.7301,-1.7292,-1.7172,-1.7251,-1.6845,-1.6674,-1.6548,-1.6128,-1.5635,-1.5469,-1.542,-1.542,-1.542,-1.5323,-1.5177,-1.4903,-1.4962,-1.5147,-1.4903,-1.4688,-1.4785,-1.4323,-1.3476,-1.2779,-1.1593,-1.1076,-1.0926,-1.1139,-1.0839,-1.0649,-1.064,-1.0834,-1.1009,-1.1249,-1.1658,-1.1893,-1.2067,-1.2258,-1.2285,-1.2305,-1.2305,-1.2305,-1.2305,-1.2305,-1.2305,-1.2305,-1.2305,-1.2305,-1.2435,-1.3306,-1.3881,-1.4635,-1.5391,-1.5731,-1.6134,-1.7879,-1.9402,-1.9313,-1.9056,-1.9094,-1.9076,-1.8868,-1.8988,-1.9392,-1.8997,-1.8479,-1.8399,-1.839,-1.839,-1.8421,-1.8762,-1.8976,-1.8939,-1.8617,-1.8228,-1.8104,-1.813,-1.8189,-1.8377,-1.8559,-1.8758,-1.807,-1.8338,-1.7485,-1.7297,-1.7879,-1.8515,-1.8218,-1.7081,-1.6164,-1.5016,-1.368,-1.3688,-1.3339,-1.2556,-1.2445,-1.2549,-1.2622,-1.2586,-1.2622,-1.2696,-1.3018,-1.4019,-1.4942,-1.5579,-1.6645,-1.7545,-1.8008,-1.8008,-1.8008,-1.8008,-1.8008,-1.8008,-1.8008,-1.7881,-1.7822,-1.7725,-1.7527,-1.7307,-1.716,-1.6912,-1.6641,-1.6205,-1.584,-1.5625,-1.5478,-1.543,-1.542,-1.5381,-1.5352,-1.5323,-1.5381,-1.5352,-1.5108,-1.4628,-1.4353,-1.3687,-1.2565,-1.1593,-1.0919,-1.0624,-1.0624,-1.0832,-1.0681,-1.0586,-1.0687,-1.0862,-1.1136,-1.1403,-1.173,-1.1997,-1.2245,-1.2271,-1.2298,-1.2305,-1.2305,-1.2305,-1.2305,-1.2305,-1.2305,-1.2305,-1.2305,-1.2348,-1.2516,-1.3248,-1.4193,-1.4834,-1.5416,-1.5979,-1.6448,-1.717,-1.8419,-1.8558,-1.832,-1.7986,-1.7908,-1.7819,-1.798,-1.8301,-1.7779,-1.7302,-1.7261,-1.7228,-1.7219,-1.7235,-1.7283,-1.7374,-1.7514,-1.7395,-1.7075,-1.7106,-1.7397,-1.7873,-1.818,-1.8178,-1.8359,-1.5443,-1.6033,-1.5105,-1.5206,-1.5829,-1.5513,-1.5223,-1.5139,-1.4858,-1.4007,-1.2703,-1.2703,-1.2592,-1.2298,-1.2305,-1.2305,-1.2305,-1.2305,-1.2342,-1.2482,-1.2879,-1.4055,-1.5021,-1.5869,-1.6897,-1.7613,-1.8008,-1.8008,-1.8008,-1.8008,-1.8008,-1.8008,-1.7998,-1.7998,-1.7978,-1.8008,-1.7793,-1.7627,-1.75,-1.7217,-1.6838,-1.6427,-1.6124,-1.584,-1.5527,-1.5459,-1.542,-1.542,-1.542,-1.542,-1.5381,-1.5235,-1.451,-1.4273,-1.3936,-1.2496,-1.1531,-1.0807,-1.0618,-1.0586,-1.0586,-1.0593,-1.0606,-1.0593,-1.0713,-1.0962,-1.1296,-1.1516,-1.1857,-1.2164,-1.2271,-1.2291,-1.2305,-1.2305,-1.2305,-1.2305,-1.2305,-1.2305,-1.2305,-1.2305,-1.2305,-1.2348,-1.2516,-1.3278,-1.417,-1.4812,-1.5405,-1.5929,-1.6421,-1.7077,-1.7399,-1.7616,-1.7172,-1.6764,-1.6887,-1.6887,-1.7009,-1.709,-1.6527,-1.6134,-1.6088,-1.609,-1.6036,-1.6026,-1.6007,-1.6089,-1.6234,-1.6125,-1.5993,-1.649,-1.6831,-1.7438,-1.7904,-1.8118,-1.8259,-1.4673,-1.5021,-1.4135,-1.3846,-1.3911,-1.3419,-1.3322,-1.3548,-1.3569,-1.2996,-1.2355,-1.2342,-1.2305,-1.2305,-1.2305,-1.2305,-1.2305,-1.2305,-1.2305,-1.2519,-1.3382,-1.4199,-1.5199,-1.6184,-1.707,-1.7681,-1.8008,-1.8008,-1.8008,-1.7988,-1.7978,-1.7754,-1.7881,-1.7891,-1.7842,-1.7891,-1.8008,-1.7891,-1.7773,-1.7568,-1.7178,-1.6709,-1.6367,-1.6065,-1.5674,-1.5478,-1.543,-1.543,-1.541,-1.5294,-1.5235,-1.4746,-1.3995,-1.3657,-1.2779,-1.15,-1.1021,-1.0681,-1.0586,-1.0586,-1.0586,-1.062,-1.0687,-1.0774,-1.0875,-1.1129,-1.1309,-1.151,-1.1957,-1.2305,-1.2305,-1.2305,-1.2305,-1.2305,-1.2305,-1.2305,-1.2305,-1.2305,-1.2305,-1.2305,-1.2305,-1.2305,-1.27,-1.3455,-1.4119,-1.4752,-1.5217,-1.561,-1.5928,-1.6271,-1.6506,-1.6626,-1.5992,-1.5379,-1.5647,-1.5849,-1.5726,-1.5659,-1.5394,-1.5074,-1.4995,-1.4878,-1.4789,-1.4735,-1.4684,-1.4858,-1.5141,-1.5099,-1.5099,-1.581,-1.6727,-1.7449,-1.8136,-1.8667,-1.8756,-1.4914,-1.4843,-1.3991,-1.3091,-1.2378,-1.2378,-1.2385,-1.2305,-1.2442,-1.2311,-1.2305,-1.2305,-1.2305,-1.2305,-1.2305,-1.2305,-1.2415,-1.2482,-1.2666,-1.2556,-1.3911,-1.4843,-1.5544,-1.6289,-1.7285,-1.7784,-1.8008,-1.8008,-1.8008,-1.7988,-1.7842,-1.7471,-1.7822,-1.79,-1.7715,-1.7891,-1.8008,-1.7978,-1.793,-1.7793,-1.7451,-1.7012,-1.6582,-1.6261,-1.586,-1.5498,-1.5488,-1.543,-1.5381,-1.5079,-1.4756,-1.4273,-1.3416,-1.2596,-1.1469,-1.1014,-1.0681,-1.0618,-1.0586,-1.0586,-1.0586,-1.0673,-1.0827,-1.0901,-1.0989,-1.1316,-1.1516,-1.1637,-1.2037,-1.2265,-1.2305,-1.2305,-1.2305,-1.2305,-1.2305,-1.2305,-1.2305,-1.2305,-1.2305,-1.2305,-1.2305,-1.2342,-1.279,-1.3514,-1.3704,-1.4461,-1.4747,-1.5042,-1.5301,-1.5464,-1.5598,-1.5632,-1.5063,-1.4587,-1.4758,-1.4812,-1.4379,-1.417,-1.4177,-1.4185,-1.4241,-1.3913,-1.3501,-1.3692,-1.3899,-1.3959,-1.4082,-1.4574,-1.5358,-1.6156,-1.6981,-1.7634,-1.8254,-1.8783,-1.874,-1.3018,-1.2989,-1.2732,-1.2482,-1.2342,-1.2305,-1.2305,-1.2305,-1.2305,-1.2305,-1.2305,-1.2305,-1.2305,-1.2305,-1.2305,-1.2305,-1.2378,-1.2915,-1.3273,-1.3875,-1.4835,-1.5579,-1.6324,-1.7035,-1.7681,-1.7896,-1.8008,-1.8008,-1.8008,-1.7988,-1.7978,-1.7852,-1.7998,-1.7891,-1.7754,-1.7959,-1.8008,-1.8008,-1.7988,-1.7969,-1.7773,-1.748,-1.7119,-1.6829,-1.6426,-1.5968,-1.5801,-1.5547,-1.5058,-1.454,-1.4362,-1.3597,-1.2412,-1.1437,-1.0895,-1.0649,-1.0586,-1.0586,-1.0586,-1.0586,-1.0586,-1.06,-1.0713,-1.0841,-1.1089,-1.1531,-1.1777,-1.1877,-1.2011,-1.2191,-1.2305,-1.2305,-1.2305,-1.2305,-1.2305,-1.2305,-1.2305,-1.2305,-1.2305,-1.2305,-1.2305,-1.2569,-1.2973,-1.3249,-1.348,-1.3594,-1.3602,-1.378,-1.4172,-1.4414,-1.4629,-1.4608,-1.4275,-1.3947,-1.4077,-1.4076,-1.3763,-1.3647,-1.3696,-1.3601,-1.3553,-1.3253,-1.3045,-1.3153,-1.328,-1.3629,-1.4342,-1.5386,-1.6158,-1.6742,-1.7188,-1.784,-1.7996,-1.8392,-1.825,-1.2305,-1.2305,-1.2305,-1.2305,-1.2305,-1.2305,-1.2305,-1.2305,-1.2305,-1.2305,-1.2305,-1.2305,-1.2305,-1.2305,-1.2305,-1.2305,-1.2489,-1.328,-1.3528,-1.4243,-1.5544,-1.6245,-1.7001,-1.7579,-1.7828,-1.8008,-1.8008,-1.8008,-1.8008,-1.7988,-1.7969,-1.7842,-1.7861,-1.7939,-1.7852,-1.7881,-1.8008,-1.8008,-1.8008,-1.8008,-1.7969,-1.7656,-1.7435,-1.7161,-1.6807,-1.6388,-1.5904,-1.5542,-1.4863,-1.4028,-1.3537,-1.2535,-1.1562,-1.0926,-1.0649,-1.0586,-1.0586,-1.0586,-1.0586,-1.0586,-1.0586,-1.06,-1.0747,-1.0909,-1.1216,-1.1623,-1.1839,-1.1946,-1.2111,-1.2298,-1.2305,-1.2305,-1.2305,-1.2305,-1.2305,-1.2305,-1.2305,-1.2305,-1.2305,-1.2305,-1.2305,-1.2378,-1.2673,-1.268,-1.2896,-1.3203,-1.3097,-1.3313,-1.3554,-1.366,-1.3814,-1.3814,-1.3614,-1.35,-1.3561,-1.3561,-1.3414,-1.3327,-1.3234,-1.322,-1.316,-1.2819,-1.2644,-1.2811,-1.3209,-1.3923,-1.4752,-1.5614,-1.6645,-1.7339,-1.7686,-1.8027,-1.8007,-1.771,-1.732,-1.2305,-1.2305,-1.2305,-1.2305,-1.2305,-1.2305,-1.2305,-1.2305,-1.2305,-1.2305,-1.2305,-1.2305,-1.2305,-1.2305,-1.2305,-1.2305,-1.2703,-1.3709,-1.3926,-1.4522,-1.6035,-1.6784,-1.7251,-1.7604,-1.7862,-1.8008,-1.8008,-1.8008,-1.8008,-1.7988,-1.7881,-1.7607,-1.7666,-1.7832,-1.7676,-1.7773,-1.8008,-1.8008,-1.8008,-1.8008,-1.7852,-1.7676,-1.7559,-1.7344,-1.7041,-1.6631,-1.6141,-1.5416,-1.4772,-1.3673,-1.2636,-1.1624,-1.1045,-1.0649,-1.0649,-1.0586,-1.0586,-1.0586,-1.0586,-1.0586,-1.0586,-1.0646,-1.0868,-1.1076,-1.1356,-1.1583,-1.1792,-1.2053,-1.2218,-1.2291,-1.2305,-1.2305,-1.2305,-1.2305,-1.2305,-1.2305,-1.2305,-1.2305,-1.2305,-1.2305,-1.2305,-1.2342,-1.2482,-1.2445,-1.2513,-1.2775,-1.2991,-1.322,-1.338,-1.3407,-1.3507,-1.3467,-1.332,-1.3233,-1.3166,-1.306,-1.2999,-1.3039,-1.2986,-1.2918,-1.279,-1.2583,-1.2442,-1.2506,-1.3032,-1.3846,-1.4593,-1.5403,-1.6472,-1.7295,-1.7097,-1.6968,-1.6978,-1.6657,-1.6167,-1.2305,-1.2305,-1.2305,-1.2305,-1.2305,-1.2305,-1.2305,-1.2305,-1.2305,-1.2305,-1.2305,-1.2305,-1.2305,-1.2305,-1.2305,-1.2378,-1.2806,-1.3991,-1.4736,-1.5269,-1.6541,-1.7329,-1.7579,-1.7432,-1.7862,-1.794,-1.7906,-1.8008,-1.8008,-1.8008,-1.7988,-1.7881,-1.7881,-1.7959,-1.7939,-1.8008,-1.8008,-1.8008,-1.8008,-1.8008,-1.7974,-1.7876,-1.7886,-1.7725,-1.748,-1.7285,-1.679,-1.5638,-1.4635,-1.3411,-1.2038,-1.1069,-1.0681,-1.0586,-1.0586,-1.0586,-1.0586,-1.0586,-1.0586,-1.0586,-1.0586,-1.0593,-1.0787,-1.0935,-1.1209,-1.1456,-1.173,-1.2144,-1.2298,-1.2298,-1.2305,-1.2305,-1.2305,-1.2305,-1.2305,-1.2305,-1.2305,-1.2305,-1.2305,-1.2305,-1.2305,-1.2629,-1.3062,-1.2915,-1.2636,-1.2839,-1.2902,-1.3076,-1.3053,-1.3126,-1.3213,-1.312,-1.3026,-1.2951,-1.2864,-1.2652,-1.2585,-1.2659,-1.2737,-1.2656,-1.2518,-1.2412,-1.2342,-1.2415,-1.2915,-1.3709,-1.4486,-1.5084,-1.5482,-1.6053,-1.5772,-1.5596,-1.5737,-1.5658,-1.5269]}]]